[[{"header":{"parameterUnit":"m.s-1","parameterCategory":1,"la1":31.0,"la2":29.5877,"lo1":-88.7671,"lo2":-86.6584,"dy":0.0162,"dx":0.0185,"nx":115,"ny":88,"refTime":"2023-03-21T06:00:00:Z","depth":0,"parameterNumber":2,"parameterNumberName":"U-component_of_WINDS"},"data":[0.0,0.0,0.0,0.0,0.0,0.0,0.0,0.0,0.0,0.0,0.0,0.0,0.0,0.0,0.0,0.0,0.0,0.0,0.0,0.0,0.0,0.0,0.0,0.0,0.0,0.0,0.0,0.0,0.0,0.0,0.0,0.0,0.0,0.0,0.0,0.0,0.0,0.0,0.0,0.0,0.0,0.0,0.0,0.0,0.0,0.0,0.0,0.0,0.0,0.0,0.0,0.0,0.0,0.0,0.0,0.0,0.0,0.0,0.0,0.0,0.0,0.0,0.0,0.0,0.0,0.0,0.0,0.0,0.0,0.0,0.0,0.0,0.0,0.0,0.0,0.0,0.0,0.0,0.0,0.0,0.0,0.0,0.0,0.0,0.0,0.0,0.0,0.0,0.0,0.0,0.0,0.0,0.0,0.0,0.0,0.0,0.0,0.0,0.0,0.0,0.0,0.0,0.0,0.0,0.0,0.0,0.0,0.0,0.0,0.0,0.0,0.0,0.0,0.0,0.0,0.0,0.0,0.0,0.0,0.0,0.0,0.0,0.0,0.0,0.0,0.0,0.0,0.0,0.0,0.0,0.0,0.0,0.0,0.0,0.0,0.0,0.0,0.0,0.0,0.0,0.0,0.0,0.0,0.0,0.0,0.0,0.0,0.0,0.0,0.0,0.0,0.0,0.0,0.0,0.0,0.0,0.0,0.0,0.0,0.0,0.0,0.0,0.0,0.0,0.0,0.0,0.0,0.0,0.0,0.0,0.0,0.0,0.0,0.0,0.0,0.0,0.0,0.0,0.0,0.0,0.0,0.0,0.0,0.0,0.0,0.0,0.0,0.0,0.0,0.0,0.0,0.0,0.0,0.0,0.0,0.0,0.0,0.0,0.0,0.0,0.0,0.0,0.0,0.0,0.0,0.0,0.0,0.0,0.0,0.0,0.0,0.0,0.0,0.0,0.0,0.0,0.0,0.0,0.0,0.0,0.0,0.0,0.0,0.0,0.0,0.0,0.0,0.0,0.0,0.0,0.0,0.0,0.0,0.0,0.0,0.0,0.0,0.0,0.0,0.0,0.0,0.0,0.0,0.0,0.0,0.0,0.0,0.0,0.0,0.0,0.0,0.0,0.0,0.0,0.0,0.0,0.0,0.0,0.0,0.0,0.0,0.0,0.0,0.0,0.0,0.0,0.0,0.0,0.0,0.0,0.0,0.0,0.0,0.0,0.0,0.0,0.0,0.0,0.0,0.0,0.0,0.0,0.0,0.0,0.0,0.0,0.0,0.0,0.0,0.0,0.0,0.0,0.0,0.0,0.0,0.0,0.0,0.0,0.0,0.0,0.0,0.0,0.0,0.0,0.0,0.0,0.0,0.0,0.0,0.0,0.0,0.0,0.0,0.0,0.0,0.0,0.0,0.0,0.0,0.0,0.0,0.0,0.0,0.0,0.0,0.0,0.0,0.0,0.0,0.0,0.0,0.0,0.0,0.0,0.0,0.0,0.0,0.0,0.0,0.0,0.0,0.0,0.0,0.0,0.0,0.0,0.0,0.0,0.0,0.0,0.0,0.0,0.0,0.0,0.0,0.0,0.0,0.0,0.0,0.0,0.0,0.0,0.0,0.0,0.0,0.0,0.0,0.0,0.0,0.0,0.0,0.0,0.0,0.0,0.0,0.0,0.0,0.0,0.0,0.0,0.0,0.0,0.0,0.0,0.0,0.0,0.0,0.0,0.0,0.0,0.0,0.0,0.0,0.0,0.0,0.0,0.0,0.0,0.0,0.0,0.0,0.0,0.0,0.0,0.0,0.0,0.0,0.0,0.0,0.0,0.0,0.0,0.0,0.0,0.0,0.0,0.0,0.0,0.0,0.0,0.0,0.0,0.0,0.0,0.0,0.0,0.0,0.0,0.0,0.0,0.0,0.0,0.0,0.0,0.0,0.0,0.0,0.0,0.0,0.0,0.0,0.0,0.0,0.0,0.0,0.0,0.0,0.0,0.0,0.0,0.0,0.0,0.0,0.0,0.0,0.0,0.0,0.0,0.0,0.0,0.0,0.0,0.0,0.0,0.0,0.0,0.0,0.0,0.0,0.0,0.0,0.0,0.0,0.0,0.0,0.0,0.0,0.0,0.0,0.0,0.0,0.0,0.0,0.0,0.0,0.0,0.0,0.0,0.0,0.0,0.0,0.0,0.0,0.0,0.0,0.0,0.0,0.0,0.0,0.0,0.0,0.0,0.0,0.0,0.0,0.0,0.0,0.0,0.0,0.0,0.0,0.0,0.0,0.0,0.0,0.0,0.0,0.0,0.0,0.0,0.0,0.0,0.0,0.0,0.0,0.0,0.0,0.0,0.0,0.0,0.0,0.0,0.0,0.0,0.0,0.0,0.0,0.0,0.0,0.0,0.0,0.0,0.0,0.0,0.0,0.0,0.0,0.0,0.0,0.0,0.0,0.0,0.0,0.0,0.0,0.0,0.0,0.0,0.0,0.0,0.0,0.0,0.0,0.0,0.0,0.0,0.0,0.0,0.0,0.0,0.0,0.0,0.0,0.0,0.0,0.0,0.0,0.0,0.0,0.0,0.0,0.0,0.0,0.0,0.0,0.0,0.0,0.0,0.0,0.0,0.0,0.0,0.0,0.0,0.0,0.0,0.0,0.0,0.0,0.0,0.0,0.0,0.0,0.0,0.0,0.0,0.0,0.0,0.0,0.0,0.0,0.0,0.0,0.0,0.0,0.0,0.0,0.0,0.0,0.0,0.0,0.0,0.0,0.0,0.0,0.0,0.0,0.0,0.0,0.0,0.0,0.0,0.0,0.0,0.0,0.0,0.0,0.0,0.0,0.0,0.0,0.0,0.0,0.0,0.0,0.0,0.0,0.0,0.0,0.0,0.0,0.0,0.0,0.0,0.0,0.0,0.0,0.0,0.0,0.0,0.0,0.0,0.0,0.0,0.0,0.0,0.0,0.0,0.0,0.0,0.0,0.0,0.0,0.0,0.0,0.0,0.0,0.0,0.0,0.0,0.0,0.0,0.0,0.0,0.0,0.0,0.0,0.0,0.0,0.0,0.0,0.0,0.0,0.0,0.0,0.0,0.0,0.0,0.0,0.0,0.0,0.0,0.0,0.0,0.0,0.0,0.0,0.0,0.0,0.0,0.0,0.0,0.0,0.0,0.0,0.0,0.0,0.0,0.0,0.0,0.0,0.0,0.0,0.0,0.0,0.0,0.0,0.0,0.0,0.0,0.0,0.0,0.0,0.0,0.0,0.0,0.0,0.0,0.0,0.0,0.0,0.0,0.0,0.0,0.0,0.0,0.0,0.0,0.0,0.0,0.0,0.0,0.0,0.0,0.0,0.0,0.0,0.0,0.0,0.0,0.0,0.0,0.0,0.0,0.0,0.0,0.0,0.0,0.0,0.0,0.0,0.0,0.0,0.0,0.0,0.0,0.0,0.0,0.0,0.0,0.0,0.0,0.0,0.0,0.0,0.0,0.0,0.0,0.0,0.0,0.0,0.0,0.0,0.0,0.0,0.0,0.0,0.0,0.0,0.0,0.0,0.0,0.0,0.0,0.0,0.0,0.0,0.0,0.0,0.0,0.0,0.0,0.0,0.0,0.0,0.0,0.0,0.0,0.0,0.0,0.0,0.0,0.0,0.0,0.0,0.0,0.0,0.0,0.0,0.0,0.0,0.0,0.0,0.0,0.0,0.0,0.0,0.0,0.0,0.0,0.0,0.0,0.0,0.0,0.0,0.0,0.0,0.0,0.0,0.0,0.0,0.0,0.0,0.0,0.0,0.0,0.0,0.0,0.0,0.0,0.0,0.0,0.0,0.0,0.0,0.0,0.0,0.0,0.0,0.0,0.0,0.0,0.0,0.0,0.0,0.0,0.0,0.0,0.0,0.0,0.0,0.0,0.0,0.0,0.0,0.0,0.0,0.0,0.0,0.0,0.0,0.0,0.0,0.0,0.0,0.0,0.0,0.0,0.0,0.0,0.0,0.0,0.0,0.0,0.0,0.0,0.0,0.0,0.0,0.0,0.0,0.0,0.0,0.0,0.0,0.0,0.0,0.0,0.0,0.0,0.0,0.0,0.0,0.0,0.0,0.0,0.0,0.0,0.0,0.0,0.0,0.0,0.0,0.0,0.0,0.0,0.0,0.0,0.0,0.0,0.0,0.0,0.0,0.0,0.0,0.0,0.0,0.0,0.0,0.0,0.0,0.0,0.0,0.0,0.0,0.0,0.0,0.0,0.0,0.0,0.0,0.0,0.0,0.0,0.0,0.0,-7.1291,0.0,0.0,0.0,0.0,0.0,0.0,0.0,0.0,0.0,0.0,0.0,0.0,0.0,0.0,0.0,0.0,0.0,0.0,0.0,0.0,0.0,0.0,0.0,0.0,0.0,0.0,0.0,0.0,0.0,0.0,0.0,0.0,0.0,0.0,0.0,0.0,0.0,0.0,0.0,0.0,0.0,0.0,0.0,0.0,0.0,0.0,0.0,0.0,0.0,0.0,0.0,0.0,0.0,0.0,0.0,0.0,0.0,0.0,0.0,0.0,0.0,0.0,0.0,0.0,0.0,0.0,0.0,0.0,0.0,0.0,0.0,0.0,0.0,0.0,0.0,0.0,0.0,0.0,0.0,0.0,0.0,0.0,0.0,0.0,0.0,0.0,0.0,0.0,0.0,0.0,0.0,0.0,0.0,0.0,0.0,0.0,0.0,0.0,0.0,0.0,0.0,0.0,0.0,0.0,0.0,0.0,0.0,0.0,0.0,0.0,-7.1056,-7.1142,-7.119,-7.1236,-7.1253,0.0,0.0,0.0,0.0,0.0,0.0,0.0,0.0,0.0,0.0,0.0,0.0,0.0,0.0,0.0,0.0,0.0,0.0,0.0,0.0,0.0,0.0,0.0,0.0,0.0,0.0,0.0,0.0,0.0,0.0,0.0,0.0,0.0,0.0,0.0,0.0,0.0,0.0,0.0,0.0,0.0,0.0,0.0,0.0,0.0,0.0,0.0,0.0,0.0,0.0,0.0,0.0,0.0,0.0,0.0,0.0,0.0,0.0,0.0,0.0,0.0,0.0,0.0,0.0,0.0,0.0,0.0,0.0,0.0,0.0,0.0,0.0,0.0,0.0,0.0,0.0,0.0,0.0,0.0,0.0,0.0,0.0,0.0,0.0,0.0,0.0,0.0,0.0,0.0,0.0,0.0,0.0,0.0,0.0,0.0,0.0,0.0,0.0,0.0,0.0,0.0,0.0,0.0,0.0,0.0,0.0,0.0,0.0,0.0,0.0,0.0,0.0,-7.1142,-7.1224,-7.1253,0.0,0.0,0.0,0.0,0.0,0.0,0.0,0.0,0.0,0.0,0.0,0.0,0.0,0.0,0.0,0.0,0.0,0.0,0.0,0.0,0.0,0.0,0.0,0.0,0.0,0.0,0.0,0.0,0.0,0.0,0.0,0.0,0.0,0.0,0.0,0.0,0.0,0.0,0.0,0.0,0.0,0.0,0.0,0.0,0.0,0.0,0.0,0.0,0.0,0.0,0.0,0.0,0.0,0.0,0.0,0.0,0.0,0.0,0.0,0.0,0.0,0.0,0.0,0.0,0.0,0.0,0.0,0.0,0.0,0.0,0.0,0.0,0.0,0.0,0.0,0.0,0.0,0.0,0.0,0.0,0.0,0.0,0.0,0.0,0.0,0.0,0.0,0.0,0.0,0.0,0.0,0.0,0.0,0.0,0.0,0.0,0.0,0.0,0.0,0.0,0.0,0.0,0.0,0.0,0.0,0.0,0.0,0.0,0.0,0.0,-7.0939,-7.1005,-7.1081,0.0,-7.1242,0.0,0.0,0.0,0.0,0.0,0.0,0.0,0.0,0.0,0.0,0.0,0.0,0.0,0.0,0.0,0.0,0.0,0.0,0.0,0.0,0.0,0.0,0.0,0.0,0.0,0.0,0.0,0.0,0.0,0.0,0.0,0.0,0.0,0.0,0.0,0.0,0.0,0.0,0.0,0.0,0.0,0.0,0.0,0.0,0.0,0.0,0.0,0.0,0.0,0.0,0.0,0.0,0.0,0.0,0.0,0.0,0.0,0.0,0.0,0.0,0.0,0.0,0.0,0.0,0.0,0.0,0.0,0.0,0.0,0.0,0.0,0.0,0.0,0.0,0.0,0.0,0.0,0.0,0.0,0.0,0.0,0.0,0.0,0.0,0.0,0.0,0.0,0.0,0.0,0.0,0.0,0.0,0.0,0.0,0.0,0.0,0.0,0.0,0.0,0.0,0.0,0.0,0.0,0.0,0.0,0.0,0.0,0.0,0.0,0.0,-7.0925,-7.1005,-7.1106,-7.1213,0.0,0.0,0.0,0.0,0.0,0.0,0.0,0.0,0.0,0.0,0.0,0.0,0.0,0.0,0.0,0.0,0.0,0.0,0.0,0.0,0.0,0.0,0.0,0.0,0.0,0.0,0.0,0.0,0.0,0.0,0.0,0.0,0.0,0.0,0.0,0.0,0.0,0.0,0.0,0.0,0.0,0.0,0.0,0.0,0.0,0.0,0.0,0.0,0.0,0.0,0.0,0.0,0.0,0.0,0.0,0.0,0.0,0.0,0.0,0.0,0.0,0.0,0.0,0.0,0.0,0.0,0.0,0.0,0.0,0.0,0.0,0.0,0.0,0.0,0.0,0.0,0.0,0.0,0.0,0.0,0.0,0.0,0.0,0.0,0.0,0.0,0.0,0.0,0.0,0.0,0.0,0.0,0.0,0.0,0.0,0.0,0.0,0.0,0.0,0.0,0.0,0.0,0.0,0.0,0.0,0.0,0.0,0.0,0.0,0.0,-7.0829,-7.0925,-7.1005,-7.1118,-7.1213,-7.1269,0.0,0.0,0.0,0.0,0.0,0.0,0.0,0.0,0.0,0.0,0.0,0.0,0.0,0.0,0.0,0.0,0.0,0.0,0.0,0.0,0.0,0.0,0.0,0.0,0.0,0.0,0.0,0.0,0.0,0.0,0.0,0.0,0.0,0.0,0.0,0.0,0.0,0.0,0.0,0.0,0.0,0.0,0.0,0.0,0.0,0.0,0.0,0.0,0.0,0.0,0.0,0.0,0.0,0.0,0.0,0.0,0.0,0.0,0.0,0.0,0.0,0.0,0.0,0.0,0.0,0.0,0.0,0.0,0.0,0.0,0.0,0.0,0.0,0.0,0.0,0.0,0.0,0.0,0.0,0.0,0.0,0.0,0.0,0.0,0.0,0.0,0.0,0.0,0.0,0.0,0.0,0.0,0.0,0.0,0.0,0.0,0.0,0.0,0.0,0.0,0.0,0.0,0.0,0.0,0.0,0.0,0.0,0.0,-7.0723,-7.0829,-7.0925,-7.1005,-7.1068,-7.1142,0.0,0.0,0.0,0.0,0.0,0.0,0.0,0.0,0.0,0.0,0.0,0.0,0.0,0.0,0.0,0.0,0.0,0.0,0.0,0.0,0.0,0.0,0.0,0.0,0.0,0.0,0.0,0.0,0.0,0.0,0.0,0.0,0.0,0.0,0.0,0.0,0.0,0.0,0.0,0.0,0.0,0.0,0.0,0.0,0.0,0.0,0.0,0.0,0.0,0.0,0.0,0.0,0.0,0.0,0.0,0.0,0.0,0.0,0.0,0.0,0.0,0.0,0.0,0.0,0.0,0.0,0.0,0.0,0.0,0.0,0.0,0.0,0.0,0.0,0.0,0.0,0.0,0.0,0.0,0.0,0.0,0.0,0.0,0.0,0.0,0.0,0.0,0.0,0.0,0.0,0.0,0.0,0.0,0.0,0.0,0.0,0.0,0.0,0.0,0.0,0.0,0.0,0.0,0.0,0.0,0.0,0.0,0.0,0.0,-7.0684,-7.0829,-7.0939,-7.1005,-7.1068,-7.113,0.0,0.0,0.0,0.0,0.0,0.0,0.0,0.0,0.0,0.0,0.0,0.0,0.0,0.0,0.0,0.0,0.0,0.0,0.0,0.0,0.0,0.0,0.0,0.0,0.0,0.0,0.0,0.0,0.0,0.0,0.0,0.0,0.0,0.0,0.0,0.0,0.0,0.0,0.0,0.0,0.0,0.0,0.0,0.0,0.0,0.0,0.0,0.0,0.0,0.0,0.0,0.0,0.0,0.0,0.0,0.0,0.0,0.0,0.0,0.0,0.0,0.0,0.0,0.0,0.0,0.0,0.0,0.0,0.0,0.0,0.0,0.0,0.0,0.0,0.0,0.0,0.0,0.0,0.0,0.0,0.0,0.0,0.0,0.0,0.0,0.0,0.0,0.0,0.0,0.0,0.0,0.0,0.0,0.0,0.0,0.0,0.0,0.0,0.0,0.0,0.0,0.0,0.0,0.0,0.0,0.0,0.0,0.0,0.0,-7.0752,0.0,-7.0925,-7.0965,-7.103,-7.1106,0.0,0.0,0.0,0.0,0.0,0.0,0.0,0.0,0.0,0.0,0.0,0.0,0.0,0.0,0.0,0.0,0.0,0.0,0.0,0.0,0.0,0.0,0.0,0.0,0.0,0.0,0.0,0.0,0.0,0.0,0.0,0.0,0.0,0.0,0.0,0.0,0.0,0.0,0.0,0.0,0.0,0.0,0.0,0.0,0.0,0.0,0.0,0.0,0.0,0.0,0.0,0.0,0.0,0.0,0.0,0.0,0.0,0.0,0.0,0.0,0.0,0.0,0.0,0.0,0.0,0.0,0.0,0.0,0.0,0.0,0.0,0.0,0.0,0.0,0.0,0.0,0.0,0.0,0.0,0.0,0.0,0.0,0.0,0.0,0.0,0.0,0.0,0.0,0.0,0.0,0.0,0.0,0.0,0.0,0.0,0.0,0.0,0.0,0.0,0.0,0.0,0.0,0.0,0.0,0.0,0.0,0.0,0.0,-7.0701,-7.0787,-7.0857,-7.0898,-7.0898,-7.0965,-7.103,0.0,0.0,0.0,0.0,0.0,0.0,0.0,0.0,0.0,0.0,0.0,0.0,0.0,0.0,0.0,0.0,0.0,0.0,0.0,0.0,0.0,0.0,0.0,0.0,0.0,0.0,0.0,0.0,0.0,0.0,0.0,0.0,0.0,0.0,0.0,0.0,0.0,0.0,0.0,0.0,0.0,0.0,0.0,0.0,0.0,0.0,0.0,0.0,0.0,0.0,0.0,0.0,0.0,0.0,0.0,0.0,0.0,0.0,0.0,0.0,0.0,0.0,0.0,0.0,0.0,0.0,0.0,0.0,0.0,0.0,0.0,0.0,0.0,0.0,0.0,0.0,0.0,0.0,0.0,0.0,0.0,0.0,0.0,0.0,0.0,0.0,0.0,0.0,0.0,0.0,0.0,0.0,0.0,0.0,0.0,0.0,0.0,0.0,0.0,0.0,0.0,0.0,0.0,0.0,0.0,0.0,0.0,0.0,0.0,-7.0752,-7.0787,-7.0843,-7.0898,-7.0965,-7.1005,0.0,0.0,0.0,0.0,0.0,0.0,0.0,0.0,0.0,0.0,0.0,0.0,0.0,0.0,0.0,0.0,0.0,0.0,0.0,0.0,0.0,0.0,0.0,0.0,0.0,0.0,0.0,0.0,0.0,0.0,0.0,0.0,0.0,0.0,0.0,0.0,0.0,0.0,0.0,0.0,0.0,0.0,0.0,0.0,0.0,0.0,0.0,0.0,0.0,0.0,0.0,0.0,0.0,0.0,0.0,0.0,0.0,0.0,0.0,0.0,0.0,0.0,0.0,0.0,0.0,0.0,0.0,0.0,0.0,0.0,0.0,0.0,0.0,0.0,0.0,0.0,0.0,0.0,0.0,0.0,0.0,0.0,0.0,0.0,0.0,0.0,0.0,0.0,0.0,0.0,0.0,0.0,0.0,0.0,0.0,0.0,0.0,0.0,0.0,0.0,0.0,0.0,0.0,0.0,0.0,0.0,0.0,0.0,0.0,-7.162,-7.1688,-7.1737,-7.1818,-7.1887,-7.1941,-7.1968,0.0,0.0,0.0,0.0,0.0,0.0,0.0,0.0,0.0,0.0,0.0,0.0,0.0,0.0,0.0,0.0,0.0,0.0,0.0,0.0,0.0,0.0,0.0,0.0,0.0,0.0,0.0,0.0,0.0,0.0,0.0,0.0,0.0,0.0,0.0,0.0,0.0,0.0,0.0,0.0,0.0,0.0,0.0,0.0,0.0,0.0,0.0,0.0,0.0,0.0,0.0,0.0,0.0,0.0,0.0,0.0,0.0,0.0,0.0,0.0,0.0,0.0,0.0,0.0,0.0,0.0,0.0,0.0,0.0,0.0,0.0,0.0,0.0,0.0,0.0,0.0,0.0,0.0,0.0,0.0,0.0,0.0,0.0,0.0,0.0,0.0,0.0,0.0,0.0,0.0,0.0,0.0,0.0,0.0,0.0,0.0,0.0,0.0,0.0,0.0,0.0,0.0,0.0,0.0,0.0,0.0,0.0,0.0,-7.321,-7.3384,-7.3345,-7.3283,-7.3394,-7.3504,0.0,0.0,0.0,0.0,0.0,0.0,0.0,0.0,0.0,0.0,0.0,0.0,0.0,0.0,0.0,0.0,0.0,0.0,0.0,0.0,0.0,0.0,0.0,0.0,0.0,0.0,0.0,0.0,0.0,0.0,0.0,0.0,0.0,0.0,0.0,0.0,0.0,0.0,0.0,0.0,0.0,0.0,0.0,0.0,0.0,0.0,0.0,0.0,0.0,0.0,0.0,0.0,0.0,0.0,0.0,0.0,0.0,0.0,0.0,0.0,0.0,0.0,0.0,0.0,0.0,0.0,0.0,0.0,0.0,0.0,0.0,0.0,0.0,0.0,0.0,0.0,0.0,0.0,0.0,0.0,0.0,0.0,0.0,0.0,0.0,0.0,0.0,0.0,0.0,0.0,0.0,0.0,0.0,0.0,0.0,0.0,0.0,0.0,0.0,0.0,0.0,0.0,0.0,0.0,0.0,0.0,0.0,0.0,0.0,-7.4847,-7.4992,-7.4528,-7.336,-7.3433,-7.3514,0.0,0.0,0.0,0.0,0.0,0.0,0.0,0.0,0.0,0.0,0.0,0.0,0.0,0.0,0.0,0.0,0.0,0.0,0.0,0.0,0.0,0.0,0.0,0.0,0.0,0.0,0.0,0.0,0.0,0.0,0.0,0.0,0.0,0.0,0.0,0.0,0.0,0.0,0.0,0.0,0.0,0.0,0.0,0.0,0.0,0.0,0.0,0.0,0.0,0.0,0.0,0.0,0.0,0.0,0.0,0.0,0.0,0.0,0.0,0.0,0.0,0.0,0.0,0.0,0.0,0.0,0.0,0.0,0.0,0.0,0.0,0.0,0.0,0.0,0.0,0.0,0.0,0.0,0.0,0.0,0.0,0.0,0.0,0.0,0.0,0.0,0.0,0.0,0.0,0.0,0.0,0.0,0.0,0.0,0.0,0.0,0.0,0.0,0.0,0.0,0.0,0.0,0.0,0.0,0.0,0.0,0.0,0.0,-7.5205,-7.5501,-7.5649,-7.5248,-7.4351,-7.4456,-7.4553,0.0,0.0,0.0,0.0,0.0,0.0,0.0,0.0,0.0,0.0,0.0,0.0,0.0,0.0,0.0,0.0,0.0,0.0,0.0,0.0,0.0,0.0,0.0,0.0,0.0,0.0,0.0,0.0,0.0,0.0,0.0,0.0,0.0,0.0,0.0,0.0,0.0,0.0,0.0,0.0,0.0,0.0,0.0,0.0,0.0,0.0,0.0,0.0,0.0,0.0,0.0,0.0,0.0,0.0,0.0,0.0,0.0,0.0,0.0,0.0,0.0,0.0,0.0,0.0,0.0,0.0,0.0,0.0,0.0,0.0,0.0,0.0,0.0,0.0,0.0,0.0,0.0,0.0,0.0,0.0,0.0,0.0,0.0,0.0,0.0,0.0,0.0,0.0,0.0,0.0,0.0,0.0,0.0,0.0,0.0,0.0,0.0,0.0,0.0,0.0,0.0,0.0,0.0,0.0,0.0,0.0,0.0,0.0,-7.6293,-7.5768,-7.5918,-7.5961,-7.5961,-7.6079,-7.613,0.0,0.0,0.0,0.0,0.0,0.0,0.0,0.0,0.0,0.0,0.0,0.0,0.0,0.0,0.0,0.0,0.0,0.0,0.0,0.0,0.0,0.0,0.0,0.0,0.0,0.0,0.0,0.0,0.0,0.0,0.0,0.0,0.0,0.0,0.0,0.0,0.0,0.0,0.0,0.0,0.0,0.0,0.0,0.0,0.0,0.0,0.0,0.0,0.0,0.0,0.0,0.0,0.0,0.0,0.0,0.0,0.0,0.0,0.0,0.0,0.0,0.0,0.0,0.0,0.0,0.0,0.0,0.0,0.0,0.0,0.0,0.0,0.0,0.0,0.0,0.0,0.0,0.0,0.0,0.0,0.0,0.0,0.0,0.0,0.0,0.0,0.0,0.0,0.0,0.0,0.0,0.0,0.0,0.0,0.0,0.0,0.0,0.0,0.0,0.0,0.0,0.0,0.0,0.0,0.0,0.0,0.0,0.0,-7.7437,-7.7487,-7.7641,-7.7725,-7.7725,-7.7286,-7.7015,0.0,0.0,0.0,0.0,0.0,0.0,0.0,0.0,0.0,0.0,0.0,0.0,0.0,0.0,0.0,0.0,0.0,0.0,0.0,0.0,0.0,0.0,0.0,0.0,0.0,0.0,0.0,0.0,0.0,0.0,0.0,0.0,0.0,0.0,0.0,0.0,0.0,0.0,0.0,0.0,0.0,0.0,0.0,0.0,0.0,0.0,0.0,0.0,-7.1589,0.0,0.0,0.0,0.0,0.0,0.0,0.0,0.0,0.0,0.0,0.0,0.0,0.0,0.0,0.0,0.0,0.0,0.0,0.0,0.0,0.0,0.0,0.0,0.0,0.0,0.0,0.0,0.0,0.0,0.0,0.0,0.0,0.0,0.0,0.0,0.0,0.0,0.0,0.0,0.0,0.0,0.0,0.0,0.0,0.0,0.0,0.0,0.0,0.0,0.0,0.0,0.0,0.0,0.0,0.0,0.0,0.0,0.0,0.0,-7.8161,-7.8022,-7.8199,-7.83,-7.8316,-7.8384,-7.8284,0.0,0.0,0.0,0.0,0.0,0.0,0.0,0.0,0.0,0.0,0.0,0.0,0.0,0.0,0.0,0.0,0.0,0.0,0.0,0.0,0.0,0.0,0.0,0.0,0.0,0.0,0.0,0.0,0.0,0.0,0.0,0.0,0.0,0.0,0.0,0.0,0.0,0.0,0.0,0.0,0.0,0.0,0.0,0.0,0.0,0.0,0.0,0.0,0.0,0.0,0.0,0.0,0.0,0.0,0.0,0.0,0.0,0.0,0.0,0.0,0.0,0.0,0.0,0.0,0.0,0.0,0.0,0.0,0.0,0.0,0.0,0.0,0.0,0.0,0.0,0.0,0.0,0.0,0.0,0.0,0.0,0.0,0.0,0.0,0.0,0.0,0.0,0.0,0.0,0.0,0.0,0.0,0.0,0.0,0.0,0.0,0.0,0.0,0.0,0.0,0.0,0.0,0.0,0.0,0.0,0.0,0.0,-7.9111,-7.8904,-7.8443,-7.8599,-7.8683,-7.8683,-7.9537,-7.9669,-7.8938,0.0,0.0,0.0,0.0,0.0,0.0,0.0,0.0,0.0,0.0,0.0,0.0,0.0,0.0,0.0,0.0,0.0,0.0,0.0,0.0,0.0,0.0,0.0,0.0,0.0,0.0,0.0,0.0,0.0,0.0,0.0,0.0,0.0,0.0,0.0,0.0,0.0,0.0,-7.1291,-7.1291,0.0,0.0,0.0,0.0,0.0,0.0,0.0,0.0,-7.1986,0.0,0.0,0.0,0.0,0.0,0.0,0.0,0.0,0.0,0.0,0.0,0.0,0.0,0.0,0.0,0.0,0.0,0.0,0.0,0.0,0.0,0.0,0.0,0.0,0.0,0.0,0.0,0.0,0.0,0.0,0.0,0.0,0.0,0.0,0.0,0.0,0.0,0.0,0.0,0.0,0.0,0.0,0.0,0.0,0.0,0.0,0.0,0.0,0.0,0.0,0.0,0.0,0.0,0.0,0.0,0.0,-7.9967,-8.0104,-8.0125,-8.0086,-8.0267,-8.0371,-8.0371,-8.069,-8.0823,-8.0685,0.0,0.0,0.0,0.0,0.0,0.0,0.0,0.0,0.0,0.0,0.0,0.0,0.0,0.0,0.0,0.0,0.0,0.0,0.0,0.0,0.0,0.0,0.0,0.0,0.0,0.0,0.0,0.0,0.0,0.0,0.0,0.0,0.0,0.0,0.0,0.0,0.0,0.0,0.0,-7.1291,-7.1584,0.0,0.0,0.0,0.0,0.0,0.0,0.0,0.0,-7.3773,0.0,0.0,0.0,0.0,0.0,0.0,0.0,0.0,0.0,0.0,0.0,0.0,0.0,0.0,0.0,0.0,0.0,0.0,0.0,0.0,0.0,0.0,0.0,0.0,0.0,0.0,0.0,0.0,0.0,0.0,0.0,0.0,0.0,0.0,0.0,0.0,0.0,0.0,0.0,0.0,0.0,0.0,0.0,0.0,0.0,0.0,0.0,0.0,0.0,0.0,0.0,0.0,0.0,0.0,0.0,-8.0195,-8.0353,-8.0431,-8.0542,-8.0723,-8.0809,-8.086,-8.1029,-8.1093,0.0,0.0,0.0,0.0,0.0,0.0,0.0,0.0,0.0,0.0,0.0,0.0,0.0,0.0,0.0,0.0,0.0,0.0,0.0,0.0,0.0,0.0,0.0,0.0,0.0,0.0,0.0,0.0,0.0,0.0,0.0,0.0,0.0,0.0,0.0,0.0,0.0,0.0,0.0,0.0,-7.2678,-7.2865,-7.3315,0.0,0.0,0.0,0.0,0.0,0.0,-7.42,-7.42,0.0,0.0,0.0,0.0,0.0,0.0,0.0,0.0,0.0,0.0,0.0,0.0,0.0,0.0,0.0,0.0,0.0,0.0,0.0,0.0,0.0,0.0,0.0,0.0,0.0,0.0,0.0,0.0,0.0,0.0,0.0,0.0,0.0,0.0,0.0,0.0,0.0,0.0,0.0,0.0,0.0,0.0,0.0,0.0,0.0,0.0,0.0,0.0,0.0,0.0,0.0,0.0,0.0,0.0,0.0,-8.0195,-8.0334,-8.0468,-8.0614,-8.0741,-8.0843,-8.0926,-8.1007,-8.1093,0.0,0.0,0.0,0.0,0.0,0.0,0.0,0.0,0.0,0.0,0.0,0.0,0.0,0.0,0.0,0.0,0.0,0.0,0.0,0.0,0.0,0.0,0.0,0.0,0.0,0.0,0.0,0.0,0.0,0.0,0.0,0.0,0.0,0.0,0.0,0.0,0.0,0.0,0.0,0.0,0.0,-7.4069,-7.4237,-7.4334,0.0,0.0,0.0,0.0,-7.4706,-7.4706,0.0,0.0,0.0,0.0,0.0,0.0,0.0,0.0,0.0,0.0,0.0,0.0,0.0,0.0,0.0,0.0,0.0,0.0,0.0,0.0,0.0,0.0,0.0,0.0,0.0,0.0,0.0,0.0,0.0,0.0,0.0,0.0,0.0,0.0,0.0,0.0,0.0,0.0,0.0,0.0,0.0,0.0,0.0,0.0,0.0,0.0,0.0,0.0,0.0,0.0,0.0,0.0,0.0,0.0,0.0,0.0,-8.0215,-8.0392,-8.0543,-8.0614,-8.0702,-8.0843,-8.0926,-8.1045,-8.1093,0.0,0.0,0.0,0.0,0.0,0.0,0.0,0.0,0.0,0.0,0.0,0.0,0.0,0.0,0.0,0.0,0.0,0.0,0.0,0.0,0.0,0.0,0.0,0.0,0.0,0.0,0.0,0.0,0.0,0.0,0.0,0.0,0.0,0.0,0.0,0.0,0.0,0.0,0.0,0.0,0.0,-7.4274,-7.5061,-7.5227,-7.5545,0.0,0.0,-7.6415,-7.6415,-7.6415,0.0,0.0,0.0,0.0,0.0,0.0,0.0,0.0,0.0,0.0,0.0,0.0,0.0,0.0,0.0,0.0,0.0,0.0,0.0,0.0,0.0,0.0,0.0,0.0,0.0,0.0,0.0,0.0,0.0,0.0,0.0,0.0,0.0,0.0,0.0,0.0,0.0,0.0,0.0,0.0,0.0,0.0,0.0,0.0,0.0,0.0,0.0,0.0,0.0,0.0,0.0,0.0,0.0,0.0,0.0,-8.0235,-8.0333,-8.0431,-8.058,-8.0685,-8.0775,-8.086,-8.1029,-8.1077,-8.1093,0.0,0.0,0.0,0.0,0.0,0.0,0.0,0.0,0.0,0.0,0.0,0.0,0.0,0.0,0.0,0.0,0.0,0.0,0.0,0.0,0.0,0.0,0.0,0.0,0.0,0.0,0.0,0.0,0.0,0.0,0.0,0.0,0.0,0.0,0.0,0.0,0.0,0.0,0.0,0.0,0.0,0.0,-7.6032,-7.6118,0.0,0.0,0.0,-7.6687,-7.6687,0.0,0.0,0.0,0.0,0.0,0.0,0.0,0.0,0.0,0.0,0.0,0.0,0.0,0.0,0.0,0.0,0.0,0.0,0.0,0.0,0.0,0.0,0.0,0.0,0.0,0.0,0.0,0.0,0.0,0.0,0.0,0.0,0.0,0.0,0.0,0.0,0.0,0.0,0.0,0.0,0.0,0.0,0.0,0.0,0.0,0.0,0.0,0.0,0.0,0.0,0.0,0.0,0.0,0.0,0.0,0.0,0.0,-8.0392,-8.0487,-8.0634,-8.0792,-8.0809,-8.0932,-8.1093,-8.1093,0.0,0.0,0.0,0.0,0.0,0.0,0.0,0.0,0.0,0.0,0.0,0.0,0.0,0.0,0.0,0.0,0.0,0.0,0.0,0.0,0.0,0.0,0.0,0.0,0.0,0.0,0.0,-7.4541,0.0,0.0,0.0,0.0,0.0,0.0,0.0,0.0,0.0,0.0,0.0,0.0,0.0,0.0,-7.6632,-7.6691,-7.669,-7.6794,0.0,0.0,-7.7114,-7.7308,-7.7347,-7.7347,0.0,0.0,0.0,0.0,0.0,0.0,0.0,0.0,0.0,0.0,0.0,0.0,0.0,0.0,0.0,0.0,0.0,0.0,0.0,0.0,0.0,0.0,0.0,0.0,0.0,0.0,0.0,0.0,0.0,0.0,0.0,0.0,0.0,0.0,0.0,0.0,0.0,0.0,0.0,0.0,0.0,0.0,0.0,0.0,0.0,0.0,0.0,0.0,0.0,0.0,0.0,0.0,0.0,0.0,0.0,-8.0392,-8.0505,-8.0688,-8.0831,-8.0877,-8.0959,-8.1093,-8.1093,-8.1093,0.0,0.0,0.0,0.0,0.0,0.0,0.0,0.0,0.0,0.0,0.0,0.0,0.0,0.0,0.0,0.0,0.0,0.0,0.0,0.0,0.0,0.0,0.0,0.0,0.0,0.0,0.0,0.0,0.0,0.0,0.0,0.0,0.0,0.0,0.0,0.0,0.0,0.0,0.0,0.0,0.0,-7.6632,-7.6691,-7.669,-7.6998,0.0,0.0,-7.8202,-7.8979,-7.9095,-7.9134,-7.9134,0.0,0.0,0.0,0.0,0.0,0.0,0.0,0.0,0.0,0.0,0.0,0.0,0.0,0.0,0.0,0.0,0.0,0.0,0.0,0.0,0.0,0.0,0.0,0.0,0.0,0.0,0.0,0.0,0.0,0.0,0.0,0.0,0.0,0.0,0.0,0.0,0.0,0.0,0.0,0.0,0.0,0.0,0.0,0.0,0.0,0.0,0.0,0.0,0.0,0.0,0.0,0.0,0.0,-8.1917,-8.1977,-8.211,-8.2238,-8.2326,-8.2412,-8.2551,-8.2631,-8.2631,-8.2631,0.0,0.0,0.0,0.0,0.0,0.0,0.0,0.0,0.0,0.0,0.0,0.0,0.0,0.0,0.0,0.0,0.0,0.0,0.0,0.0,0.0,0.0,0.0,0.0,0.0,0.0,0.0,0.0,-7.6707,-7.6397,-7.6397,0.0,0.0,0.0,0.0,0.0,0.0,0.0,0.0,0.0,0.0,-7.7613,-7.8213,-7.8309,0.0,0.0,-7.8823,-7.8901,-7.9251,-7.929,-7.929,-7.929,-7.929,0.0,0.0,0.0,0.0,0.0,0.0,0.0,0.0,0.0,0.0,0.0,0.0,0.0,0.0,0.0,0.0,0.0,0.0,0.0,0.0,0.0,0.0,0.0,0.0,0.0,0.0,0.0,0.0,0.0,0.0,0.0,0.0,0.0,0.0,0.0,0.0,0.0,0.0,0.0,0.0,0.0,0.0,0.0,0.0,0.0,0.0,0.0,0.0,0.0,0.0,0.0,0.0,-8.293,-8.299,-8.316,-8.3252,-8.3285,-8.3444,-8.3544,-8.3593,-8.3593,-8.3593,0.0,0.0,0.0,0.0,0.0,0.0,0.0,0.0,0.0,0.0,0.0,0.0,0.0,0.0,0.0,0.0,0.0,0.0,0.0,0.0,0.0,0.0,0.0,0.0,0.0,0.0,0.0,0.0,-7.7365,-7.7171,-7.7171,0.0,0.0,0.0,0.0,0.0,0.0,0.0,0.0,0.0,0.0,-7.8535,-7.9212,-7.929,-7.9415,-7.9639,-7.9678,-7.9756,-8.0028,-8.0105,-8.0067,-8.0067,0.0,0.0,0.0,0.0,0.0,0.0,0.0,0.0,0.0,0.0,0.0,0.0,0.0,0.0,0.0,0.0,0.0,0.0,0.0,0.0,0.0,0.0,0.0,0.0,0.0,0.0,0.0,0.0,0.0,0.0,-7.9154,0.0,0.0,0.0,0.0,0.0,0.0,0.0,0.0,0.0,0.0,0.0,0.0,0.0,0.0,0.0,0.0,0.0,0.0,0.0,0.0,0.0,0.0,-8.2968,-8.3047,-8.3272,-8.3361,-8.3361,-8.3511,-8.367,-8.3632,-8.3632,-8.3593,-8.3609,0.0,0.0,0.0,0.0,0.0,0.0,0.0,0.0,0.0,0.0,0.0,0.0,0.0,0.0,0.0,0.0,0.0,0.0,0.0,0.0,0.0,0.0,0.0,0.0,0.0,0.0,-7.7713,-7.8448,-7.8912,0.0,0.0,0.0,0.0,0.0,0.0,0.0,0.0,0.0,0.0,-7.9145,-7.9195,-7.9328,-7.9328,-7.9678,-8.0455,-8.0572,-8.0844,-8.1659,-8.1815,-8.1854,0.0,0.0,0.0,0.0,0.0,0.0,0.0,0.0,0.0,0.0,0.0,0.0,0.0,0.0,0.0,0.0,0.0,0.0,0.0,0.0,0.0,0.0,0.0,0.0,0.0,0.0,0.0,-8.1031,-8.0768,0.0,0.0,0.0,0.0,0.0,0.0,0.0,0.0,0.0,0.0,0.0,-8.1786,-8.2203,0.0,0.0,0.0,0.0,0.0,0.0,0.0,0.0,0.0,0.0,0.0,0.0,-8.4631,-8.4671,-8.4862,-8.4972,-8.4972,-8.5164,-8.5247,-8.5247,-8.5247,-8.5065,-8.4612,0.0,0.0,0.0,0.0,0.0,0.0,0.0,0.0,0.0,0.0,0.0,0.0,0.0,0.0,0.0,0.0,0.0,0.0,0.0,0.0,0.0,0.0,0.0,0.0,0.0,-7.9144,0.0,0.0,0.0,0.0,0.0,0.0,0.0,0.0,0.0,0.0,0.0,-7.9326,-7.9921,-8.0087,-8.0359,-8.096,-8.1038,-8.1154,0.0,0.0,0.0,0.0,0.0,0.0,0.0,0.0,0.0,0.0,0.0,0.0,0.0,0.0,-8.0649,-7.9484,-7.9359,-7.9408,-7.9423,0.0,0.0,0.0,0.0,0.0,0.0,0.0,0.0,0.0,0.0,0.0,0.0,0.0,0.0,-8.1857,0.0,-8.1594,0.0,0.0,0.0,0.0,0.0,0.0,0.0,0.0,-8.2244,-8.2501,-8.2702,-8.3097,-8.3536,0.0,-8.4067,-8.3764,0.0,0.0,0.0,0.0,0.0,0.0,0.0,0.0,-8.5511,-8.5511,-8.5704,-8.5777,-8.5777,-8.5992,-8.6094,-8.6094,-8.6126,-8.5937,-8.5574,-8.5565,-8.5404,0.0,0.0,0.0,0.0,0.0,0.0,0.0,0.0,0.0,0.0,0.0,0.0,0.0,0.0,0.0,0.0,0.0,0.0,0.0,0.0,0.0,0.0,0.0,-8.0111,0.0,0.0,0.0,0.0,0.0,0.0,0.0,0.0,0.0,-8.0078,-7.9991,-8.0239,-8.0883,-8.101,-8.1271,-8.1815,0.0,0.0,0.0,0.0,0.0,0.0,0.0,-8.2786,-8.2786,-8.2747,-8.2786,-8.2786,-8.2747,-8.2786,-8.2786,0.0,0.0,-8.0482,-8.0231,-8.0326,-8.0302,-8.0351,-8.0389,-8.0389,-8.0389,-8.0389,0.0,0.0,0.0,0.0,0.0,0.0,0.0,0.0,-8.2834,-8.242,0.0,-8.1745,0.0,0.0,0.0,0.0,0.0,-8.1707,0.0,0.0,-8.2896,-8.338,-8.3688,-8.4484,-8.4901,-8.4901,-8.4901,-8.4863,-8.4863,-8.4863,0.0,0.0,0.0,0.0,0.0,0.0,-8.5511,-8.5511,-8.5704,-8.5777,-8.5815,-8.5992,-8.6094,-8.6094,-8.6137,-8.6269,-8.6384,-8.6419,-8.6528,-8.6558,-8.6571,0.0,0.0,0.0,0.0,0.0,0.0,0.0,0.0,0.0,0.0,0.0,0.0,0.0,0.0,0.0,0.0,0.0,0.0,0.0,0.0,-8.0227,0.0,0.0,0.0,0.0,0.0,0.0,0.0,0.0,0.0,0.0,-8.1678,-8.1697,-8.1751,-8.1814,0.0,0.0,0.0,0.0,-8.3136,-8.3136,-8.3835,-8.4379,-8.4379,-8.4379,-8.4379,-8.4379,0.0,0.0,-8.4379,-8.4379,-8.434,-8.4379,-8.3679,-8.2882,-8.215,-8.192,-8.1921,-8.192,-8.1922,-8.2065,-8.2065,-8.1909,-8.1948,-8.411,0.0,0.0,0.0,0.0,-8.411,-8.396,-8.3735,-8.3735,-8.3622,-8.3397,-8.3397,0.0,0.0,0.0,0.0,0.0,0.0,-8.359,-8.3801,-8.4125,-8.4358,-8.4522,-8.4787,-8.4901,-8.4901,-8.4901,-8.4901,-8.4901,-8.4901,-8.4901,-8.4901,0.0,0.0,0.0,0.0,-8.5511,-8.5511,-8.5704,-8.5777,-8.5777,-8.5992,-8.6094,-8.6094,-8.6175,-8.6269,-8.6423,-8.6457,-8.6542,-8.6596,-8.661,0.0,0.0,0.0,0.0,0.0,0.0,0.0,0.0,0.0,0.0,0.0,0.0,0.0,0.0,0.0,0.0,0.0,0.0,0.0,-8.1155,-8.1104,-8.122,0.0,0.0,0.0,0.0,0.0,0.0,0.0,0.0,0.0,-8.3441,-8.2959,-8.2665,0.0,0.0,-8.3679,-8.3679,-8.3874,-8.4029,-8.4029,-8.4223,0.0,0.0,-8.4418,-8.4418,-8.4418,-8.4418,-8.4418,-8.4418,-8.4418,-8.4418,-8.4418,-8.4252,-8.4025,-8.3757,-8.2762,-8.2077,-8.2005,-8.2039,-8.2104,-8.2104,-8.2104,-8.2104,-8.5049,-8.5011,-8.4373,-8.411,-8.411,-8.411,-8.411,-8.411,-8.411,-8.411,-8.411,-8.411,-8.411,-8.411,-8.411,0.0,0.0,0.0,-8.4356,-8.4505,-8.4627,-8.4784,-8.4878,-8.4901,-8.4901,-8.4901,-8.4901,-8.4901,-8.4901,-8.4901,-8.4901,-8.4901,0.0,0.0,-8.5219,-8.5391,-8.5511,-8.5511,-8.5704,-8.5777,-8.5777,-8.5992,-8.6094,-8.6094,-8.6207,-8.6339,-8.6384,-8.6486,-8.6569,-8.661,-8.661,-8.661,0.0,0.0,0.0,0.0,0.0,0.0,0.0,0.0,0.0,0.0,0.0,-8.3089,-8.2587,0.0,0.0,0.0,-8.2548,-8.2509,-8.2548,-8.2548,0.0,0.0,0.0,0.0,0.0,0.0,0.0,-8.4057,-8.4095,-8.4095,-8.4165,-8.4084,-8.3906,-8.367,-8.4068,-8.4418,-8.4418,0.0,-8.4923,-8.4923,-8.5195,-8.5428,-8.5428,-8.5428,-8.5428,-8.5428,-8.5428,-8.5428,-8.5428,-8.5428,-8.5428,-8.5437,-8.5203,-8.5015,-8.5018,-8.3953,-8.3041,-8.3077,-8.3104,-8.3117,-8.3117,-8.3162,-8.3117,-8.6476,-8.6363,-8.4899,-8.426,-8.4185,-8.411,-8.411,-8.411,-8.411,-8.411,-8.411,-8.411,-8.411,-8.411,-8.411,0.0,-8.411,-8.4266,-8.4356,-8.4505,-8.4665,-8.4784,-8.4901,-8.4901,-8.4901,-8.4901,-8.4901,-8.4901,-8.4901,-8.4976,-8.4976,-8.5014,-8.5241,-8.5333,-8.5219,-8.5467,-8.5626,-8.5626,-8.5858,-8.6007,-8.6025,-8.6202,-8.6247,-8.6225,-8.637,-8.6461,-8.6437,-8.6528,-8.661,-8.661,-8.661,-8.661,-8.661,0.0,0.0,0.0,0.0,0.0,0.0,0.0,0.0,0.0,0.0,0.0,0.0,0.0,0.0,0.0,-8.4095,0.0,-8.4095,-8.4095,0.0,0.0,0.0,-8.4134,-8.4211,-8.4211,-8.425,-8.4289,0.0,0.0,-8.4299,-8.5068,-8.5342,-8.4709,-8.4602,-8.4612,-8.4612,-8.5311,-8.5816,-8.5816,-8.6438,-8.6992,-8.6826,-8.6875,-8.6826,-8.6826,-8.703,-8.6904,-8.6904,-8.6904,-8.6943,-8.6904,-8.6408,-8.5918,-8.5913,-8.5299,-8.4837,-8.4864,-8.4754,-8.4637,-8.4559,-8.4559,-8.452,-8.6476,-8.6476,-8.61,-8.5575,-8.4974,-8.4335,-8.411,-8.411,-8.411,-8.411,-8.411,-8.411,-8.411,-8.411,-8.411,-8.411,-8.4136,-8.4368,-8.4456,-8.4505,-8.476,-8.4878,-8.4901,-8.4901,-8.4901,-8.4901,-8.4901,-8.4901,-8.4939,-8.5545,-8.581,-8.5848,-8.6669,-8.6475,-8.5257,-8.6039,-8.6505,-8.6505,-8.7351,-8.7845,-8.8025,-8.8077,-8.7781,-8.7192,-8.7249,-8.707,-8.651,-8.6556,-8.661,-8.661,-8.661,-8.661,-8.661,-8.661,0.0,0.0,0.0,0.0,0.0,0.0,0.0,0.0,0.0,-8.4753,-8.4134,0.0,-8.4095,0.0,-8.4095,-8.4095,-8.4095,-8.4095,0.0,0.0,-8.4095,-8.4327,-8.4946,-8.5024,-8.5256,-8.5913,-8.5991,-8.6017,-8.6042,-8.6308,-8.6444,-8.6327,-8.634,-8.636,-8.6399,-8.6515,-8.6671,-8.6671,-8.6826,-8.703,-8.703,-8.703,-8.703,-8.703,-8.703,-8.703,-8.703,-8.703,-8.703,-8.6992,-8.6903,-8.68,-8.6778,-8.6685,-8.6572,-8.6507,-8.5611,-8.4676,-8.4676,-8.4715,-8.4715,-8.7602,-8.7565,-8.7227,-8.6814,-8.6363,-8.5537,-8.5162,-8.5162,-8.5162,-8.4974,-8.4636,-8.426,-8.411,-8.411,-8.411,-8.411,-8.4136,-8.4419,-8.4481,-8.4505,-8.4784,-8.4901,-8.4901,-8.4901,-8.509,-8.5431,-8.5431,-8.5621,-8.6038,-8.6455,-8.6682,-8.6682,-8.7353,-8.7236,-8.6361,-8.7014,-8.7384,-8.7384,-8.804,-8.8477,-8.8671,-8.8671,-8.8512,-8.8045,-8.8135,-8.7788,-8.7022,-8.7097,-8.6996,-8.6648,-8.661,-8.661,-8.661,-8.661,-8.661,0.0,0.0,0.0,0.0,0.0,0.0,0.0,0.0,0.0,0.0,0.0,-8.5217,-8.5217,-8.5217,-8.5217,-8.5217,-8.5217,-8.5217,-8.5217,-8.5217,-8.541,-8.5836,-8.5875,-8.6068,-8.6532,-8.661,-8.6623,-8.6662,-8.6749,-8.682,-8.6854,-8.693,-8.703,-8.703,-8.703,-8.703,-8.703,-8.703,-8.703,-8.703,-8.703,-8.703,-8.703,-8.703,-8.703,-8.703,-8.703,-8.6992,-8.7021,-8.7046,-8.7136,-8.7152,-8.7167,-8.7209,-8.7092,-8.6468,-8.5884,-8.5806,-8.5806,-8.5806,-8.8992,-8.8954,-8.8241,-8.794,-8.7903,-8.7114,-8.6701,-8.6476,-8.6476,-8.61,-8.5424,-8.4711,-8.4335,-8.426,-8.426,-8.4185,-8.4136,-8.4356,-8.4556,-8.4656,-8.4912,-8.5105,-8.5242,-8.5204,-8.5583,-8.6265,-8.6265,-8.6644,-8.7402,-8.7516,-8.7554,-8.7554,-8.7847,-8.7998,-8.802,-8.8273,-8.8436,-8.8456,-8.8634,-8.8822,-8.9017,-8.9017,-8.8996,-8.8897,-8.9006,-8.866,-8.7827,-8.7958,-8.7693,-8.6842,-8.6764,-8.6726,-8.661,-8.661,-8.661,0.0,-8.661,0.0,0.0,0.0,0.0,0.0,0.0,0.0,0.0,-8.661,-8.661,-8.661,-8.661,-8.661,-8.661,-8.661,-8.661,-8.661,-8.661,-8.661,-8.661,-8.661,-8.661,-8.661,-8.661,-8.661,-8.661,-8.6725,-8.6797,-8.6809,-8.6909,-8.6972,-8.702,-8.703,-8.703,-8.703,-8.7098,-8.7254,-8.7292,-8.7331,-8.7409,-8.737,-8.7448,-8.7292,-8.7409,-8.7409,-8.739,-8.7399,-8.7483,-8.7534,-8.7534,-8.7571,-8.7559,-8.7676,-8.7598,-8.7443,-8.7131,-8.7053,-8.7209,-8.8992,-8.8992,-8.8841,-8.8766,-8.8766,-8.8579,-8.7752,-8.6513,-8.6476,-8.6438,-8.6251,-8.61,-8.5687,-8.5086,-8.5086,-8.4711,-8.4136,-8.4292,-8.472,-8.5487,-8.5634,-8.617,-8.6909,-8.6947,-8.7023,-8.7175,-8.7137,-8.7251,-8.7402,-8.8047,-8.8388,-8.8388,-8.9292,-8.971,-8.9733,0.0,0.0,0.0,-9.0398,-9.0511,-9.0692,-9.0748,-9.0398,-8.9773,-8.987,0.0,-8.8804,-8.8889,-8.8544,-8.7731,-8.764,0.0,0.0,0.0,0.0,0.0,0.0,0.0,0.0,0.0,0.0,0.0,-8.661,-8.661,-8.661,-8.661,-8.661,-8.661,-8.661,-8.661,-8.661,-8.661,-8.661,-8.661,-8.661,-8.661,-8.661,-8.661,-8.661,-8.661,-8.661,-8.661,-8.6648,-8.6675,-8.6749,-8.6875,-8.6866,-8.693,-8.7059,-8.7059,-8.703,-8.702,-8.7642,-8.8031,-8.8069,-8.8574,-8.8846,-8.9041,-8.9041,-8.9002,-8.8924,-8.8963,-8.9022,-8.9041,-8.9164,-8.9168,-8.9177,-8.9285,-8.9196,-8.9274,-8.9274,-8.8884,-8.752,-8.7209,-8.7209,-8.8992,0.0,-8.8992,-8.8992,0.0,-8.8992,-8.8503,-8.7715,-8.7715,-8.7527,-8.7114,-8.6701,-8.6251,-8.5875,-8.5913,-8.5687,-8.5274,-8.5406,-8.5788,-8.6292,-8.6417,-8.6828,-8.7402,-8.7402,-8.7592,-8.8009,-8.8009,-8.8198,-8.8577,-8.8994,-8.9184,-8.9222,-8.9862,-9.0205,-9.0228,-9.0465,-9.0697,-9.0915,-9.0915,-9.101,-9.1192,-9.121,-9.0997,-9.0625,0.0,0.0,0.0,0.0,0.0,0.0,0.0,0.0,0.0,0.0,0.0,-8.661,-8.661,-8.661,-8.661,-8.661,-8.661,-8.661,-8.661,-8.661,-8.661,-8.661,-8.661,-8.661,-8.661,-8.661,-8.661,-8.661,-8.661,-8.661,-8.661,-8.661,-8.661,-8.661,-8.661,-8.661,-8.661,-8.6726,-8.719,-8.7281,-8.7551,-8.796,-8.8096,-8.8123,-8.8176,-8.7875,-8.7759,-8.8147,-8.8574,-8.8885,-8.8924,-8.9196,-8.9507,-8.9507,-8.9507,-8.9507,-8.9507,-8.9527,-8.9566,-8.9652,-8.9666,-8.9707,-8.9745,-8.9767,-8.9781,-8.9781,-8.9781,-8.9586,-8.8651,-8.8495,-8.8495,-8.9217,-8.9179,-8.9067,-8.8992,-8.8992,-8.8992,-8.8992,-8.8992,0.0,0.0,0.0,-8.7264,-8.6851,-8.6739,-8.6739,-8.6626,-8.6513,-8.6621,-8.6816,-8.7122,-8.7261,-8.7485,-8.7819,-8.7819,-8.816,-8.8805,-8.8805,-8.9146,-8.979,-8.979,-8.979,-8.9814,-9.009,-9.0228,-9.0273,-9.0487,-9.0676,-9.0877,-9.0896,-9.101,-9.1192,-9.121,-9.121,-9.121,-9.1258,-9.1033,-9.0404,-9.0458,-9.0146,-8.9392,-8.871,-8.8246,-8.8091,-8.7447,-8.6996,-8.6842,-8.6842,-8.6764,-8.661,-8.661,-8.6687,-8.6842,-8.6958,-8.6919,-8.6648,-8.661,-8.661,-8.661,-8.661,-8.661,-8.661,-8.6764,-8.6842,-8.6842,-8.6958,-8.7112,-8.7074,-8.7074,-8.7151,-8.7074,-8.7151,-8.7345,-8.8041,-8.8171,-8.8468,-8.9123,-8.9209,-8.951,-8.9564,-8.9002,-8.8691,-8.9235,-8.9546,-8.974,-8.974,-8.9973,-8.9934,-9.0128,-9.0051,-8.9973,-8.9983,-9.0013,-9.0071,-9.0271,-9.0166,-9.0244,-9.0273,-9.0365,-9.0248,-9.0248,-9.0248,-9.0248,-9.0287,-9.0287,-9.0131,-9.0043,-8.9968,-8.9292,-8.8992,-8.8992,-8.8992,-8.8992,-8.8992,-8.8992,-8.8954,-8.8804,-8.8691,-8.8278,-8.7602,-8.764,-8.7227,-8.6513,-8.654,-8.7077,-8.799,-8.8015,-8.8545,-8.9449,-8.9449,-8.9525,-8.9601,-8.9638,-8.9676,-8.979,-8.979,-8.979,-8.9814,-9.0052,-9.0317,-9.053,-9.0572,-9.0656,-9.0739,-9.0857,-9.101,-9.1192,-9.121,-9.121,-9.121,-9.1258,-9.127,-9.1171,-9.1213,-9.0875,-9.0119,-8.9986,-8.9644,-8.891,-8.8812,-8.8505,-8.7809,-8.7731,-8.7383,-8.6648,-8.661,-8.6919,-8.7693,-8.8428,-8.8234,-8.6764,-8.661,-8.661,-8.661,-8.6687,-8.661,-8.6648,-8.7306,-8.7731,-8.777,-8.8389,-8.8814,-8.8737,-8.8737,-8.8698,-8.8698,-8.8853,-8.8776,-8.8969,-8.9021,-8.9113,-8.9293,-8.9624,-8.9698,-9.0302,-8.9856,-8.9429,-8.9584,-9.0128,-9.0556,-9.0672,-9.1255,-9.1527,-9.1721,-9.1643,-9.1527,-9.1527,-9.1578,-9.1626,-9.1789,-9.1723,-9.1841,-9.1917,-9.2041,-9.1885,-9.1846,-9.1807,-9.1885,-9.1846,-9.1846,-9.1495,-9.0907,-9.0794,-9.0005,-8.9667,-8.963,-8.9179,-8.8992,-8.8992,-8.8992,-8.8992,-8.8992,-8.8992,-8.8804,-8.8466,-8.8428,-8.8241,-8.7865,-8.7865,-8.8216,-8.882,-8.8857,-8.92,-8.9728,-8.979,-8.979,-8.979,-8.979,-8.979,-8.979,-8.979,-8.979,-8.9814,-9.0052,-9.0317,-9.0572,-9.0631,-9.0635,-9.0699,-9.0819,-9.0953,-9.1082,-9.1175,-9.121,-9.1171,-9.1206,-9.1258,-9.1308,-9.1341,-9.1197,-9.0859,-9.0466,-9.0072,-8.9686,-8.9296,-8.8914,-8.8527,-8.8555,-8.8428,-8.8041,-8.8002,-8.8196,-8.8582,-8.8969,-8.8892,-8.8079,-8.8002,-8.8002,-8.8002,-8.8002,-8.8002,-8.8002,-8.8389,-8.8621,-8.8582,-8.8969,-8.9201,-8.9201,-8.9201,-8.9201,-8.9201,-8.9201,-8.9356,-8.9782,-8.9859,-9.0107,-9.0545,-9.0772,-9.0996,-9.1439,-9.1177,-9.0905,-9.0944,-9.1255,-9.1449,-9.1527,-9.1799,-9.2071,-9.211,-9.211,-9.211,-9.211,-9.2132,-9.219,-9.2226,-9.2276,-9.2362,-9.2384,-9.2391,-9.243,-9.243,-9.243,-9.243,-9.243,-9.243,-9.208,-9.1741,-9.1695,-9.0832,-9.0381,-9.0156,-8.9555,-8.9179,-8.8992,-8.8992,-8.8992,-8.8992,-8.8992,-8.8992,-8.8992,-8.8992,-8.8992,-8.8992,-8.8992,-8.9092,-8.9345,-8.9397,-8.9515,-8.9741,-8.9766,-8.979,-8.979,-8.979,-8.979,-8.979,-8.979,-8.9814,-8.9887,-9.0113,-9.0317,-9.0631,-9.0631,-9.0635,-9.0679,-9.0799,-9.0954,-9.1028,-9.1118,-9.121,-9.121,-9.121,-9.1206,-9.1275,-9.1275,-9.1308,-9.1336,-9.0773,-9.0442,-9.0404,-8.9864,-8.946,-8.9359,-8.9378,-8.9381,-8.924,-8.9356,-8.9472,-8.9472,-8.9665,-8.9743,-8.9743,-8.9782,-8.9588,-8.9279,-8.9124,-8.9163,-8.9163,-8.9356,-8.9472,-8.9472,-8.9665,-8.9859,-8.9782,-8.9743,-8.9782,-8.9743,-8.9743,-9.0052,-9.0516,-9.071,-9.0997,-9.1643,-9.2033,-9.2099,-9.211,-9.211,-9.211,-9.211,-9.211,-9.2071,-9.211,-9.211,-9.211,-9.211,-9.211,-9.211,-9.212,-9.2161,-9.2178,-9.2234,-9.2293,-9.2377,-9.2384,-9.243,-9.243,-9.243,-9.243,-9.243,-9.243,-9.243,-9.2391,-9.248,-9.2484,-9.1695,-9.0907,-9.0231,-9.0118,-8.9667,-8.9067,-8.8992,-8.8992,-8.8992,-8.8992,-8.8992,-8.8992,-8.8992,-8.8992,-8.8992,-8.8992,-8.9075,-8.9238,-8.9371,-8.9501,-8.9616,-8.9741,-8.979,-8.979,-8.979,-8.979,-8.979,-8.979,-8.9911,-9.0121,-9.0205,-9.0317,-9.0551,-9.0593,-9.0593,-9.0614,-9.0798,-9.0915,-9.0989,-9.1118,-9.121,-9.121,-9.121,-9.121,-9.1227,-9.1227,-9.1227,-9.1245,-9.1198,-9.1171,-9.1171,-9.1175,-9.0867,-9.0233,-9.017,-8.9905,-8.9356,-8.9898,-9.0284,-9.0323,-9.0981,-9.1367,-9.1406,-9.1406,-9.0787,-8.9704,-8.9279,-8.9317,-8.924,-8.9859,-9.0284,-9.0323,-9.0903,-9.1445,-9.1367,-9.1484,-9.1484,-9.1484,-9.129,-9.1484,-9.1445,-9.1498,-9.163,-9.1824,-9.2033,-9.211,-9.211,-9.211,-9.211,-9.211,-9.211,-9.211,-9.211,-9.211,-9.211,-9.211,-9.211,-9.211,-9.2131,-9.2152,-9.2187,-9.2195,-9.2293,-9.2384,-9.243,-9.243,-9.243,-9.243,-9.243,-9.243,-9.243,-9.243,-9.243,-9.3215,-9.32,-9.253,-9.1733,-9.0982,-9.0456,-9.0005,-8.9705,-8.9179,-8.8992,-8.8992,-8.8992,-8.8992,-8.8992,-8.8992,-8.8992,-8.8992,-8.8992,-8.9075,-8.9173,-8.9345,-8.9475,-8.9629,-8.9716,-8.979,-8.979,-8.979,-8.979,-8.979,-8.979,-8.9887,-9.0052,-9.0121,-9.0295,-9.0449,-9.0551,-9.0631,-9.0593,-9.0798,-9.0935,-9.0953,-9.1121,-9.121,-9.121,-9.121,-9.121,-9.121,-9.121,-9.121,-9.121,-9.1206,-9.1262,-9.1224,-9.1308,-9.122,-9.0905,-9.0914,-9.0844,-9.0527,-9.088,-9.1103,-9.1103,-9.1455,-9.1716,-9.1716,-9.1716,-9.1367,-9.0865,-9.0671,-9.0671,-9.0671,-9.0981,-9.1174,-9.1213,-9.1522,-9.1716,-9.1716,-9.1716,-9.1716,-9.1716,-9.1716,-9.1716,-9.173,-9.1785,-9.1825,-9.1888,-9.1994,-9.2099,-9.211,-9.211,-9.211,-9.211,-9.211,-9.211,-9.211,-9.211,-9.211,-9.211,-9.211,-9.211,-9.212,-9.2161,-9.2187,-9.2187,-9.23,-9.2384,-9.243,-9.243,-9.243,-9.243,-9.243,-9.243,-9.243,-9.243,-9.243,-9.3618,-9.3635,-9.3251,-9.2596,-9.177,-9.1169,-9.0644,-9.0156,-8.9592,-8.9217,-8.8992,-8.8992,-8.8992,-8.8992,-8.8992,-8.8992,-8.8992,-8.8992,-8.9047,-8.9184,-8.9345,-8.9475,-8.9578,-8.9716,-8.979,-8.979,-8.979,-8.979,-8.979,-8.979,-8.9863,-8.9982,-9.0159,-9.0273,-9.0383,-9.053,-9.0631,-9.0593,-9.0778,-9.0877,-9.0935,-9.1046,-9.1175,-9.121,-9.121,-9.121,-9.121,-9.121,-9.121,-9.121,-9.121,-9.121,-9.121,-9.1279,-9.1275,-9.1308,-9.1352,-9.14,-9.14,-9.1485,-9.1531,-9.157,-9.1644,-9.1687,-9.1687,-9.1702,-9.1716,-9.1677,-9.1716,-9.1638,-9.1716,-9.1716,-9.1716,-9.1716,-9.1716,-9.1716,-9.1716,-9.1716,-9.1716,-9.1716,-9.1716,-9.1716,-9.173,-9.1825,-9.1888,-9.19,-9.2033,-9.211,-9.211,-9.211,-9.211,-9.211,-9.211,-9.211,-9.211,-9.211,-9.211,-9.211,-9.211,-9.211,-9.212,-9.2161,-9.2187,-9.2195,-9.2308,-9.2384,-9.2384,-9.243,-9.243,-9.243,-9.243,-9.243,-9.243,-9.243,-9.243,-9.3432,-9.3709,-9.3852,-9.3422,-9.2634,-9.2559,-9.1658,-9.0381,-9.0156,-8.9743,-8.9104,-8.8992,-8.8992,-8.8992,-8.8992,-8.8992,-8.8992,-8.8992,-8.8992,-8.9047,-8.9291,-8.9386,-8.9412,-8.9667,-8.979,-8.979,-8.979,-8.979,-8.979,-8.979,-8.9901,-9.002,-9.0098,-9.0273,-9.0383,-9.053,-9.061,-9.0631,-9.0697,-9.0779,-9.0915,-9.0972,-9.1082,-9.1192,-9.121,-9.121,-9.121,-9.121,-9.121,-9.121,-9.121,-9.121,-9.121,-9.121,-9.1224,-9.1292,-9.1374,-9.1384,-9.1384,-9.14,-9.14,-9.1415,-9.1516,-9.16,-9.1615,-9.1673,-9.1702,-9.1716,-9.1716,-9.1716,-9.1716,-9.1716,-9.1716,-9.1716,-9.1716,-9.1716,-9.1716,-9.1716,-9.1716,-9.1716,-9.1716,-9.1716,-9.1716,-9.1838,-9.1875,-9.1912,-9.2033,-9.211,-9.211,-9.211,-9.211,-9.211,-9.211,-9.211,-9.211,-9.211,-9.211,-9.211,-9.211,-9.211,-9.2102,-9.2142,-9.219,-9.2243,-9.2308,-9.2384,-9.2384,-9.243,-9.243,-9.243,-9.243,-9.243,-9.243,-9.243,-9.243,-9.3338,-9.3557,-9.374,-9.3612,-9.3312,-9.2876,-9.2333,-9.1733,-9.0644,-9.0043,-8.9705,-8.9217,-8.8992,-8.8992,-8.8992,-8.8992,-8.8992,-8.8992,-8.8992,-8.9019,-8.9173,-8.9345,-8.9423,-8.9566,-8.9716,-8.979,-8.979,-8.979,-8.979,-8.979,-8.9814,-8.9863,-9.002,-9.0159,-9.0273,-9.0383,-9.0508,-9.0593,-9.0697,-9.0759,-9.0954,-9.0972,-9.1064,-9.1192,-9.121,-9.121,-9.121,-9.121,-9.121,-9.121,-9.121,-9.121,-9.121,-9.121,-9.1227,-9.1262,-9.1258,-9.1258,-9.1275,-9.1325,-9.1358,-9.1358,-9.1438,-9.15,-9.1585,-9.1629,-9.1659,-9.1702,-9.1716,-9.1716,-9.1716,-9.1716,-9.1716,-9.1716,-9.1716,-9.1716,-9.1716,-9.1716,-9.1716,-9.1716,-9.1716,-9.1716,-9.1744,-9.1838,-9.1888,-9.19,-9.2033,-9.2099,-9.211,-9.211,-9.211,-9.211,-9.211,-9.211,-9.211,-9.211,-9.211,-9.211,-9.211,-9.211,-9.2131,-9.2161,-9.2178,-9.2195,-9.23,-9.2384,-9.243,-9.243,-9.243,-9.243,-9.243,-9.243,-9.243,-9.243,-9.243,-9.3275,-9.3401,-9.3557,-9.3656,-9.3574,-9.32,-9.2847,-9.2576,-9.1479,-9.0869,-9.0569,-9.0043,-8.978,-8.978,-8.9818,-8.9818,-8.9705,-8.9254,-8.8992,-8.9019,-8.9157,-8.9254,-8.9423,-8.9553,-8.9704,-8.9766,-8.979,-8.979,-8.979,-8.979,-8.979,-8.979,-8.9949,-9.0204,-9.0548,-9.0759,-9.0983,-9.1319,-9.1459,-9.1561,-9.1623,-9.1721,-9.1873,-9.1946,-9.2,-9.171,-9.1248,-9.121,-9.121,-9.121,-9.121,-9.121,-9.121,-9.121,-9.121,-9.121,-9.121,-9.121,-9.121,-9.1262,-9.1258,-9.1258,-9.1341,-9.1422,-9.1516,-9.1585,-9.1629,-9.1687,-9.1716,-9.1716,-9.1716,-9.1716,-9.1716,-9.1716,-9.1716,-9.1716,-9.1716,-9.1716,-9.1716,-9.1716,-9.1716,-9.1716,-9.173,-9.1851,-9.1875,-9.1888,-9.1994,-9.2099,-9.211,-9.211,-9.211,-9.211,-9.211,-9.211,-9.211,-9.211,-9.211,-9.211,-9.211,-9.211,-9.2131,-9.2171,-9.2217,-9.2204,-9.2276,-9.237,-9.243,-9.243,-9.243,-9.243,-9.243,-9.243,-9.243,-9.243,-9.2391,-9.3211,-9.3243,-9.3401,-9.3501,-9.3495,-9.3543,-9.3223,-9.2653,-9.2546,-9.2079,-9.1507,-9.1395,-9.1207,-9.1357,-9.1207,-9.1357,-9.1019,-8.9855,-8.9254,-8.9282,-8.928,-8.9415,-8.9624,-8.9678,-8.9869,-9.0055,-8.9904,-8.9904,-9.0017,-9.0055,-9.0055,-8.9966,-9.0176,-9.0713,-9.1499,-9.1651,-9.2106,-9.2651,-9.2809,-9.295,-9.3207,-9.3176,-9.3236,-9.3409,-9.3464,-9.2826,-9.1402,-9.1287,-9.1325,-9.1287,-9.121,-9.121,-9.121,-9.121,-9.121,-9.121,-9.121,-9.121,-9.121,-9.121,-9.1227,-9.1227,-9.1258,-9.1341,-9.14,-9.1516,-9.1615,-9.1702,-9.1716,-9.1716,-9.1716,-9.1716,-9.1716,-9.1716,-9.1716,-9.1716,-9.1716,-9.1716,-9.1716,-9.1716,-9.1716,-9.1716,-9.1744,-9.1799,-9.1888,-9.1912,-9.2033,-9.211,-9.211,-9.211,-9.211,-9.211,-9.211,-9.211,-9.211,-9.211,-9.211,-9.211,-9.211,-9.211,-9.2131,-9.2152,-9.2208,-9.2195,-9.23,-9.2384,-9.243,-9.243,-9.243,-9.243,-9.243,-9.243,-9.243,-9.243,-9.2398,-9.3086,-9.3086,-9.3211,-9.3275,-9.3306,-9.3501,-9.3438,-9.326,-9.2833,-9.2471,-9.2258,-9.1733,-9.147,-9.1507,-9.147,-9.1507,-9.1432,-9.0907,-9.0719,-9.0634,-9.0137,-9.0258,-9.0771,-9.0555,-9.0738,-9.1395,-9.1496,-9.1496,-9.1458,-9.1496,-9.1534,-9.1496,-9.1545,-9.1771,-9.2181,-9.2337,-9.2642,-9.2907,-9.3071,-9.312,-9.3207,-9.3348,-9.3485,-9.3582,-9.3656,-9.3403,-9.2941,-9.2402,-9.2095,-9.2095,-9.1518,-9.121,-9.121,-9.121,-9.121,-9.121,-9.121,-9.121,-9.121,-9.121,-9.121,-9.121,-9.1206,-9.1292,-9.1368,-9.1415,-9.1546,-9.1649,-9.1716,-9.1716,-9.1716,-9.1716,-9.1716,-9.1716,-9.1716,-9.1716,-9.1716,-9.1716,-9.1716,-9.1716,-9.1716,-9.173,-9.1746,-9.1838,-9.19,-9.1948,-9.2055,-9.211,-9.211,-9.2148,-9.211,-9.211,-9.211,-9.2265,-9.2304,-9.2343,-9.2265,-9.2187,-9.211,-9.211,-9.2131,-9.2152,-9.2199,-9.226,-9.2355,-9.2377,-9.2384,-9.243,-9.243,-9.243,-9.243,-9.243,-9.243,-9.2391,-9.2398,-9.2988,-9.3021,-9.3119,-9.3114,-9.3146,-9.3344,-9.3464,-9.3543,-9.3155,-9.305,-9.3018,-9.2671,-9.2409,-9.2409,-9.2409,-9.2409,-9.2409,-9.2409,-9.2409,-9.2221,-9.1169,-9.1104,-9.162,-9.1423,-9.1532,-9.2153,-9.2292,-9.2292,-9.2292,-9.2292,-9.2292,-9.2292,-9.2292,-9.2518,-9.2945,-9.3103,-9.3358,-9.3778,-9.3966,-9.4075,-9.4101,-9.4206,-9.4346,-9.4465,-9.4522,-9.4635,-9.4595,-9.3864,-9.3287,-9.2864,-9.2133,-9.171,-9.1672,-9.1402,-9.121,-9.121,-9.121,-9.121,-9.121,-9.121,-9.121,-9.121,-9.121,-9.1241,-9.1352,-9.14,-9.1477,-9.1687,-9.1716,-9.1716,-9.1716,-9.1716,-9.1716,-9.1716,-9.1716,-9.1716,-9.1716,-9.1716,-9.1716,-9.1716,-9.1716,-9.1719,-9.1773,-9.185,-9.1912,-9.201,-9.2066,-9.211,-9.2187,-9.242,-9.2498,-9.2731,-9.312,-9.3042,-9.2692,-9.2576,-9.2459,-9.2304,-9.211,-9.211,-9.212,-9.2161,-9.2187,-9.2285,-9.2377,-9.2384,-9.243,-9.243,-9.243,-9.243,-9.243,-9.243,-9.243,-9.243,-9.2398,-9.2988,-9.2988,-9.2988,-9.2988,-9.3021,-9.3146,-9.3306,-9.3501,-9.3581,-9.3695,-9.3844,-9.379,-9.3865,-9.394,-9.3752,-9.3752,-9.394,-9.376,-9.3752,-9.3385,-9.2475,-9.1893,-9.1883,-9.2167,-9.2491,-9.2582,-9.2633,-9.2557,-9.2709,-9.2709,-9.2443,-9.2633,-9.2709,-9.291,-9.3718,-9.3978,-9.4439,-9.5028,-9.5318,-9.5385,-9.5429,-9.5615,-9.572,-9.5767,-9.5867,-9.5963,-9.5885,-9.5326,-9.4557,-9.3749,-9.2903,-9.2556,-9.2402,-9.1748,-9.1364,-9.1364,-9.1248,-9.121,-9.121,-9.121,-9.121,-9.121,-9.121,-9.1241,-9.1368,-9.14,-9.1462,-9.1687,-9.1716,-9.1716,-9.1716,-9.1716,-9.1754,-9.1793,-9.1793,-9.1716,-9.1716,-9.1716,-9.1716,-9.1716,-9.1716,-9.1744,-9.1825,-9.1928,-9.2106,-9.2216,-9.2388,-9.2604,-9.2692,-9.312,-9.3392,-9.3664,-9.3935,-9.3858,-9.3508,-9.3003,-9.2887,-9.2653,-9.2343,-9.211,-9.212,-9.2171,-9.2252,-9.2308,-9.2377,-9.2384,-9.243,-9.243,-9.243,-9.243,-9.243,-9.243,-9.243,-9.243,-9.2412,-9.2988,-9.2988,-9.2988,-9.2988,-9.2988,-9.3054,-9.3248,-9.347,-9.3532,-9.3747,-9.3956,-9.4015,-9.4015,-9.4015,-9.4015,-9.4015,-9.4015,-9.4015,-9.4015,-9.3948,-9.361,-9.3021,-9.2862,-9.3396,-9.3823,-9.3917,-9.3908,-9.4111,-9.4149,-9.3997,-9.4035,-9.4149,-9.3997,-9.4212,-9.4529,-9.4616,-9.4891,-9.5239,-9.5394,-9.5509,-9.5621,-9.5708,-9.5835,-9.59,-9.6039,-9.6136,-9.6269,-9.6095,-9.5211,-9.3826,-9.3518,-9.3364,-9.3326,-9.2595,-9.2133,-9.2095,-9.1595,-9.1248,-9.1248,-9.1287,-9.1248,-9.121,-9.1364,-9.1241,-9.1384,-9.1438,-9.1516,-9.1673,-9.1716,-9.1754,-9.1754,-9.1793,-9.1986,-9.2451,-9.2218,-9.187,-9.1832,-9.1716,-9.1716,-9.1716,-9.1793,-9.1901,-9.2096,-9.2508,-9.2906,-9.3065,-9.3459,-9.3858,-9.378,-9.4013,-9.4324,-9.4363,-9.4518,-9.4479,-9.4246,-9.3702,-9.3314,-9.3081,-9.2653,-9.211,-9.2112,-9.2171,-9.2252,-9.237,-9.2377,-9.243,-9.243,-9.243,-9.243,-9.243,-9.243,-9.243,-9.243,-9.243,-9.2425,-9.2988,-9.2988,-9.2988,-9.2988,-9.2988,-9.2988,-9.3184,-9.347,-9.3501,-9.3686,-9.3956,-9.4015,-9.4015,-9.4015,-9.4015,-9.4015,-9.4015,-9.4015,-9.4015,-9.4015,-9.3977,-9.3735,-9.3653,-9.417,-9.4486,-9.4583,-9.4741,-9.4755,-9.4755,-9.4793,-9.4793,-9.4717,-9.4793,-9.4793,-9.4781,-9.4946,-9.507,-9.5191,-9.5348,-9.5463,-9.5598,-9.5664,-9.5751,-9.5877,-9.5941,-9.6098,-9.6251,-9.6288,-9.5788,-9.4941,-9.448,-9.4249,-9.4172,-9.3441,-9.3018,-9.2979,-9.2518,-9.2249,-9.2249,-9.2249,-9.2249,-9.2305,-9.2284,-9.237,-9.2525,-9.2512,-9.2604,-9.2784,-9.276,-9.276,-9.276,-9.276,-9.2992,-9.334,-9.3031,-9.276,-9.276,-9.2799,-9.276,-9.2774,-9.2788,-9.2805,-9.2922,-9.3464,-9.3756,-9.3991,-9.4246,-9.4479,-9.4607,-9.4946,-9.5217,-9.5217,-9.5412,-9.5528,-9.5101,-9.4479,-9.3508,-9.3236,-9.2724,-9.2169,-9.2142,-9.219,-9.226,-9.2362,-9.2377,-9.243,-9.243,-9.243,-9.243,-9.243,-9.243,-9.243,-9.243,-9.243,-9.2425,-9.2988,-9.2988,-9.2988,-9.2988,-9.2988,-9.3021,-9.3216,-9.347,-9.3532,-9.3717,-9.3956,-9.4015,-9.4015,-9.4015,-9.4015,-9.4015,-9.4015,-9.4015,-9.4015,-9.4015,-9.4015,-9.3961,-9.4076,-9.4245,-9.4459,-9.4594,-9.4715,-9.4793,-9.4793,-9.4793,-9.4793,-9.4793,-9.4793,-9.4793,-9.4819,-9.4921,-9.5045,-9.5143,-9.5263,-9.5417,-9.5554,-9.5598,-9.5686,-9.5832,-9.59,-9.6078,-9.6232,-9.6288,-9.6172,-9.6249,-9.5518,-9.5172,-9.5018,-9.4326,-9.3903,-9.3749,-9.3595,-9.348,-9.3595,-9.3441,-9.3557,-9.3498,-9.3645,-9.3924,-9.3775,-9.374,-9.3832,-9.3882,-9.4191,-9.3959,-9.3998,-9.4153,-9.4269,-9.4346,-9.4346,-9.4462,-9.4423,-9.4307,-9.4191,-9.4206,-9.4223,-9.433,-9.4434,-9.4586,-9.4762,-9.4807,-9.514,-9.5489,-9.5645,-9.5839,-9.6033,-9.6033,-9.6344,-9.6733,-9.6033,-9.5217,-9.4091,-9.3275,-9.2617,-9.2181,-9.219,-9.2195,-9.2276,-9.2355,-9.2377,-9.243,-9.243,-9.243,-9.243,-9.243,-9.243,-9.243,-9.243,-9.243,-9.2412,-9.2988,-9.2988,-9.2988,-9.2988,-9.3021,-9.3114,-9.3275,-9.3501,-9.3587,-9.3807,-9.3956,-9.4015,-9.4015,-9.4015,-9.4015,-9.4015,-9.4015,-9.4015,-9.4015,-9.4015,-9.4015,-9.4015,-9.4102,-9.4265,-9.4404,-9.4513,-9.4689,-9.4793,-9.4793,-9.4793,-9.4793,-9.4793,-9.4793,-9.4793,-9.4819,-9.4844,-9.4921,-9.5045,-9.5167,-9.531,-9.5463,-9.5554,-9.5664,-9.581,-9.5959,-9.6117,-9.6251,-9.6288,-9.6288,-9.6249,-9.6134,-9.5903,-9.5749,-9.5172,-9.4749,-9.4595,-9.4095,-9.3787,-9.3749,-9.3826,-9.3749,-9.3882,-9.4048,-9.3924,-9.3985,-9.4196,-9.4195,-9.4177,-9.4191,-9.4385,-9.4462,-9.4888,-9.5158,-9.5313,-9.57,-9.6087,-9.6009,-9.5042,-9.4462,-9.436,-9.4417,-9.4408,-9.4512,-9.5246,-9.5499,-9.5673,-9.6033,-9.6538,-9.6655,-9.6694,-9.6655,-9.6616,-9.6771,-9.7005,-9.6616,-9.5723,-9.4596,-9.3763,-9.3104,-9.2715,-9.2675,-9.258,-9.2737,-9.2642,-9.2384,-9.243,-9.243,-9.243,-9.243,-9.243,-9.243,-9.243,-9.243,-9.243,-9.2412,-9.2988,-9.2988,-9.2988,-9.2988,-9.3021,-9.3146,-9.3306,-9.3501,-9.3618,-9.3837,-9.3986,-9.4015,-9.4015,-9.4015,-9.4015,-9.4015,-9.4015,-9.4015,-9.4015,-9.4015,-9.4015,-9.4015,-9.4044,-9.418,-9.4321,-9.4431,-9.4621,-9.4715,-9.4793,-9.4793,-9.4793,-9.4793,-9.4793,-9.4793,-9.4793,-9.4793,-9.487,-9.4996,-9.5119,-9.5277,-9.5417,-9.5531,-9.5664,-9.5772,-9.5938,-9.6078,-9.6155,-9.6269,-9.6288,-9.6288,-9.6288,-9.6288,-9.6249,-9.5865,-9.5634,-9.548,-9.5249,-9.4903,-9.4903,-9.4903,-9.498,-9.4903,-9.5028,-9.5114,-9.5197,-9.5293,-9.5385,-9.5414,-9.5429,-9.5429,-9.5429,-9.5739,-9.6087,-9.6164,-9.6512,-9.6783,-9.6628,-9.5932,-9.539,-9.5458,-9.5645,-9.5713,-9.5894,-9.6073,-9.6287,-9.6461,-9.6499,-9.6927,-9.6966,-9.6966,-9.7043,-9.7043,-9.7082,-9.7082,-9.6888,-9.615,-9.5062,-9.4395,-9.3979,-9.3775,-9.3812,-9.3561,-9.3344,-9.3086,-9.2742,-9.243,-9.243,-9.243,-9.2547,-9.2469,-9.2469,-9.243,-9.243,-9.2444,-9.2471,-9.2988,-9.2988,-9.2988,-9.3021,-9.3054,-9.3179,-9.3338,-9.3563,-9.3679,-9.3867,-9.3986,-9.4015,-9.4015,-9.4015,-9.4015,-9.4015,-9.4015,-9.4015,-9.4015,-9.4015,-9.4015,-9.4015,-9.4044,-9.4131,-9.4236,-9.4404,-9.4567,-9.4663,-9.4767,-9.4793,-9.4793,-9.4793,-9.4793,-9.4793,-9.4793,-9.4819,-9.4844,-9.4946,-9.5119,-9.5253,-9.5371,-9.5509,-9.5664,-9.5772,-9.5898,-9.6019,-9.6117,-9.6232,-9.6288,-9.6288,-9.6288,-9.6288,-9.6288,-9.6288,-9.6288,-9.6249,-9.6095,-9.6019,-9.5942,-9.6095,-9.6134,-9.6288,-9.639,-9.6398,-9.641,-9.6444,-9.6482,-9.659,-9.6551,-9.6551,-9.6783,-9.6667,-9.6706,-9.6744,-9.6783,-9.6822,-9.6822,-9.6822,-9.6628,-9.6643,-9.6472,-9.645,-9.6656,-9.6834,-9.7048,-9.7199,-9.7199,-9.7199,-9.7199,-9.7199,-9.7199,-9.7199,-9.7199,-9.681,-9.6577,-9.6472,-9.5384,-9.4921,-9.4621,-9.4659,-9.4656,-9.4356,-9.3974,-9.3475,-9.3093,-9.2976,-9.3015,-9.3288,-9.321,-9.2781,-9.2703,-9.2898,-9.2756,-9.2536,-9.2495,-9.2988,-9.2988,-9.2988,-9.3086,-9.3179,-9.3375,-9.3495,-9.3679,-9.3867,-9.3956,-9.3986,-9.4015,-9.4015,-9.4015,-9.4015,-9.4015,-9.4015,-9.4015,-9.4015,-9.4015,-9.4015,-9.4015,-9.4015,-9.4044,-9.4189,-9.4376,-9.454,-9.4636,-9.4767,-9.4793,-9.4793,-9.4793,-9.4793,-9.4793,-9.4793,-9.4793,-9.4819,-9.4895,-9.507,-9.5215,-9.5286,-9.5486,-9.5643,-9.5751,-9.5839,-9.5979,-9.6098,-9.6232,-9.6288,-9.6288,-9.6288,-9.6288,-9.6288,-9.6288,-9.6288,-9.6288,-9.6288,-9.6288,-9.6288,-9.6288,-9.6288,-9.6325,-9.6429,-9.6492,-9.6542,-9.6676,-9.6768,-9.6822,-9.6822,-9.6822,-9.6822,-9.6822,-9.6822,-9.6822,-9.6822,-9.6822,-9.6822,-9.6822,-9.6822,-9.6836,-9.6912,-9.7006,-9.7057,-9.7106,-9.7176,-9.7199,-9.7199,-9.7199,-9.7199,-9.7199,-9.7199,-9.7199,-9.7199,-9.6694,-9.615,-9.6122,-9.5705,-9.533,-9.5107,-9.5162,-9.5119,-9.4933,-9.4566,-9.4535,-9.434,-9.4184,-9.4262,-9.4223,-9.4145,-9.3911,-9.3716,-9.3482,-9.3231,-9.2938,-9.2579,-9.2988,-9.2988,-9.2988,-9.3086,-9.3211,-9.3401,-9.3557,-9.3709,-9.3927,-9.4015,-9.4015,-9.4015,-9.4015,-9.4015,-9.4015,-9.4015,-9.4015,-9.4015,-9.4015,-9.4015,-9.4015,-9.4015,-9.4015,-9.4015,-9.4151,-9.4349,-9.4486,-9.4583,-9.4793,-9.4793,-9.4793,-9.4793,-9.4793,-9.4793,-9.4793,-9.4793,-9.4793,-9.487,-9.5045,-9.5191,-9.5215,-9.5425,-9.5621,-9.5708,-9.5818,-9.592,-9.6039,-9.6213,-9.6288,-9.6288,-9.6288,-9.6288,-9.6288,-9.6288,-9.6288,-9.6288,-9.6288,-9.6288,-9.6288,-9.6288,-9.6306,-9.6379,-9.6463,-9.6548,-9.6613,-9.6707,-9.6822,-9.6822,-9.6822,-9.6822,-9.6822,-9.6822,-9.6822,-9.6822,-9.6822,-9.6822,-9.6822,-9.6822,-9.6822,-9.6798,-9.6926,-9.7006,-9.7031,-9.7094,-9.7176,-9.7199,-9.7199,-9.7199,-9.7199,-9.7199,-9.7199,-9.7199,-9.7199,-9.6966,-9.651,-9.6405,-9.631,-9.5972,-9.5787,-9.5841,-9.5953,-9.5954,-9.6125,-9.6249,-9.5976,-9.5314,-9.4885,-9.4651,-9.4807,-9.4963,-9.4613,-9.423,-9.3751,-9.3386,-9.2942,-9.2988,-9.2988,-9.2988,-9.3086,-9.3211,-9.3438,-9.3594,-9.3709,-9.3927,-9.4015,-9.4015,-9.4015,-9.4015,-9.4015,-9.4015,-9.4015,-9.4015,-9.4015,-9.4015,-9.4015,-9.4015,-9.4015,-9.4015,-9.4044,-9.416,-9.4376,-9.4404,-9.4567,-9.4767,-9.4793,-9.4793,-9.4793,-9.4793,-9.4793,-9.4793,-9.4793,-9.4793,-9.487,-9.5021,-9.5143,-9.5263,-9.5486,-9.5598,-9.5621,-9.5814,-9.588,-9.5941,-9.6117,-9.6251,-9.6269,-9.6288,-9.6288,-9.6288,-9.6288,-9.6288,-9.6288,-9.6288,-9.6288,-9.6288,-9.6288,-9.6325,-9.6376,-9.6442,-9.6564,-9.6699,-9.6761,-9.6822,-9.6822,-9.6822,-9.6822,-9.6822,-9.6822,-9.6822,-9.6822,-9.6822,-9.6822,-9.6822,-9.6822,-9.6822,-9.6841,-9.6939,-9.6993,-9.7031,-9.7106,-9.7188,-9.7199,-9.7199,-9.7199,-9.7199,-9.7199,-9.7199,-9.7199,-9.7199,-9.7199,-9.7065,-9.702,-9.6963,-9.6809,-9.671,-9.6762,-9.6982,-9.7169,-9.7255,-9.7106,-9.6678,-9.5976,-9.5548,-9.5392,-9.582,-9.5898,-9.5431,-9.4938,-9.442,-9.3788,-9.3231,-9.2988,-9.2988,-9.2988,-9.3086,-9.3211,-9.337,-9.3594,-9.3709,-9.3927,-9.4015,-9.4015,-9.4015,-9.4015,-9.4015,-9.4015,-9.4015,-9.4015,-9.4015,-9.4015,-9.4015,-9.4015,-9.4015,-9.4015,-9.4015,-9.4189,-9.4349,-9.4404,-9.4567,-9.4741,-9.4793,-9.4793,-9.4793,-9.4793,-9.4793,-9.4793,-9.4793,-9.4793,-9.4819,-9.4946,-9.5143,-9.5371,-9.5531,-9.5598,-9.5643,-9.5729,-9.5856,-9.59,-9.6078,-9.6155,-9.6288,-9.6288,-9.6288,-9.6288,-9.6288,-9.6288,-9.6288,-9.6288,-9.6288,-9.6288,-9.6288,-9.6343,-9.6394,-9.648,-9.6564,-9.6676,-9.6777,-9.6822,-9.6822,-9.6822,-9.6822,-9.6822,-9.6822,-9.6822,-9.6822,-9.6822,-9.6822,-9.6822,-9.6822,-9.6822,-9.6841,-9.6939,-9.6993,-9.7019,-9.7118,-9.7199,-9.7199,-9.7199,-9.7199,-9.7199,-9.7199,-9.7199,-9.7199,-9.721,-9.721,-9.7242,-9.7274,-9.7314,-9.7343,-9.7398,-9.741,-9.7465,-9.7489,-9.7489,-9.7262,-9.6912,-9.6834,-9.6639,-9.6678,-9.7028,-9.6756,-9.6132,-9.5569,-9.5011,-9.4301,-9.3476,-9.2988,-9.2988,-9.2988,-9.3049,-9.3211,-9.3306,-9.3464,-9.3679,-9.377,-9.3897,-9.3986,-9.4015,-9.4015,-9.4015,-9.4015,-9.4015,-9.4015,-9.4015,-9.4015,-9.4015,-9.4015,-9.4015,-9.4015,-9.4015,-9.416,-9.4349,-9.4431,-9.4567,-9.4715,-9.4793,-9.4793,-9.4793,-9.4793,-9.4793,-9.4793,-9.4793,-9.4793,-9.487,-9.4996,-9.5191,-9.5394,-9.5531,-9.5598,-9.5598,-9.5746,-9.5835,-9.59,-9.6039,-9.6136,-9.6269,-9.6288,-9.6288,-9.6288,-9.6288,-9.6288,-9.6288,-9.6288,-9.6288,-9.6288,-9.6288,-9.6322,-9.6446,-9.6476,-9.6597,-9.6707,-9.6753,-9.6822,-9.6822,-9.6822,-9.6822,-9.6822,-9.6822,-9.6822,-9.6822,-9.6822,-9.6822,-9.6822,-9.6822,-9.6798,-9.687,-9.6939,-9.6993,-9.7044,-9.713,-9.7199,-9.7199,-9.7199,-9.7199,-9.7199,-9.7199,-9.7199,-9.7199,-9.721,-9.721,-9.7264,-9.7304,-9.7353,-9.739,-9.7441,-9.7473,-9.7489,-9.7496,-9.7496,-9.7496,-9.7301,-9.734,-9.7496,-9.7457,-9.7301,-9.7067,-9.6795,-9.5966,-9.5141,-9.4229,-9.3442,-9.2988,-9.2988,-9.2988,-9.3054,-9.3146,-9.3179,-9.337,-9.3656,-9.3679,-9.38,-9.3956,-9.4015,-9.4015,-9.4015,-9.4015,-9.4015,-9.4015,-9.4015,-9.4015,-9.4015,-9.4015,-9.4015,-9.4015,-9.4015,-9.416,-9.4404,-9.4404,-9.4567,-9.4715,-9.4793,-9.4793,-9.4793,-9.4793,-9.4793,-9.4793,-9.4793,-9.4793,-9.4819,-9.5045,-9.5253,-9.5371,-9.5531,-9.5576,-9.5621,-9.5686,-9.5793,-9.59,-9.5981,-9.6098,-9.6269,-9.6288,-9.6288,-9.6288,-9.6288,-9.6288,-9.6288,-9.6288,-9.6288,-9.6288,-9.6306,-9.6358,-9.648,-9.6558,-9.6661,-9.6753,-9.6822,-9.6822,-9.6822,-9.6822,-9.6822,-9.6822,-9.6822,-9.6822,-9.6822,-9.6822,-9.6822,-9.6822,-9.6836,-9.6812,-9.6884,-9.6953,-9.7019,-9.7082,-9.7153,-9.7188,-9.7199,-9.7199,-9.7199,-9.7199,-9.7199,-9.7199,-9.7199,-9.721,-9.7221,-9.7274,-9.7324,-9.7381,-9.7347,-9.7395,-9.7457,-9.7418,-9.7457,-9.7496,-9.7496,-9.7496,-9.7496,-9.7496,-9.7496,-9.7496,-9.7223,-9.6802,-9.5979,-9.5114,-9.4167,-9.3374,-9.2988,-9.2988,-9.2988,-9.3021,-9.3021,-9.3146,-9.3306,-9.3532,-9.3618,-9.38,-9.3986,-9.4015,-9.4015,-9.4015,-9.4015,-9.4015,-9.4015,-9.4015,-9.4015,-9.4015,-9.4015,-9.4015,-9.4015,-9.4044,-9.4122,-9.4349,-9.4404,-9.4567,-9.4741,-9.4793,-9.4793,-9.4793,-9.4793,-9.4793,-9.4793,-9.4793,-9.4793,-9.4844,-9.507,-9.5191,-9.5286,-9.5463,-9.5598,-9.5598,-9.5621,-9.5729,-9.59,-9.592,-9.6058,-9.6269,-9.6288,-9.6288,-9.6288,-9.6288,-9.6288,-9.6288,-9.6288,-9.6288,-9.6288,-9.6306,-9.6358,-9.6514,-9.6661,-9.6738,-9.6783,-9.6822,-9.6822,-9.6822,-9.6822,-9.6822,-9.6822,-9.6822,-9.6822,-9.6822,-9.6822,-9.6822,-9.6822,-9.6836,-9.6827,-9.6898,-9.6966,-9.7057,-9.7106,-9.7176,-9.7199,-9.7199,-9.7199,-9.7199,-9.7199,-9.7199,-9.7199,-9.7199,-9.721,-9.7232,-9.7284,-9.7256,-9.7048,-9.7052,-9.7084,-9.7216,-9.7301,-9.7379,-9.7496,-9.7496,-9.7496,-9.7496,-9.7418,-9.7223,-9.7106,-9.7184,-9.6738,-9.5602,-9.4591,-9.3612,-9.3045,-9.2988,-9.2988,-9.2988,-9.2988,-9.2988,-9.3054,-9.3146,-9.3306,-9.3532,-9.3747,-9.4015,-9.4015,-9.4015,-9.4015,-9.4015,-9.4015,-9.4015,-9.4015,-9.4015,-9.4015,-9.4015,-9.4015,-9.4015,-9.4044,-9.416,-9.4349,-9.4404,-9.4567,-9.4767,-9.4793,-9.4793,-9.4793,-9.4793,-9.4793,-9.4793,-9.4793,-9.4793,-9.487,-9.5045,-9.5191,-9.5239,-9.5463,-9.5598,-9.5598,-9.5598,-9.5729,-9.5859,-9.59,-9.6078,-9.6232,-9.6269,-9.6288,-9.6288,-9.6288,-9.6288,-9.6288,-9.6288,-9.6288,-9.6288,-9.6306,-9.634,-9.6514,-9.6676,-9.6822,-9.6822,-9.6822,-9.6822,-9.6822,-9.6822,-9.6822,-9.6822,-9.6822,-9.6822,-9.6822,-9.6822,-9.6822,-9.6836,-9.6812,-9.687,-9.6939,-9.7019,-9.7094,-9.7142,-9.7188,-9.7199,-9.7199,-9.7199,-9.7199,-9.7199,-9.7199,-9.7199,-9.721,-9.7221,-9.7147,-9.7159,-9.6943,-9.6676,-9.6631,-9.6663,-9.667,-9.6756,-9.7379,-9.7457,-9.7496,-9.7262,-9.7028,-9.6834,-9.6717,-9.6639,-9.6561,-9.5888,-9.4913,-9.3944,-9.3049,-9.2748,-9.2988,-9.2988,-9.2988,-9.2988,-9.2988,-9.2988,-9.3086,-9.3211,-9.3438,-9.3686,-9.3986,-9.4015,-9.4015,-9.4015,-9.4015,-9.4015,-9.4015,-9.4015,-9.4015,-9.4015,-9.4015,-9.4015,-9.4015,-9.4044,-9.4122,-9.4349,-9.4431,-9.4567,-9.4793,-9.4793,-9.4793,-9.4793,-9.4793,-9.4793,-9.4793,-9.4793,-9.4793,-9.487,-9.4996,-9.5167,-9.5215,-9.5417,-9.5576,-9.5598,-9.5598,-9.5729,-9.5839,-9.592,-9.602,-9.6174,-9.6288,-9.6288,-9.6288,-9.6288,-9.6288,-9.6288,-9.6288,-9.6288,-9.6288,-9.6361,-9.6394,-9.6531,-9.6692,-9.6768,-9.6822,-9.6822,-9.6822,-9.6822,-9.6822,-9.6822,-9.6822,-9.6822,-9.6822,-9.6822,-9.6822,-9.6822,-9.6812,-9.6827,-9.6912,-9.6979,-9.7057,-9.7118,-9.7165,-9.7199,-9.7199,-9.7199,-9.7199,-9.7199,-9.7199,-9.7199,-9.7199,-9.7221,-9.7242,-9.7139,-9.7003,-9.662,-9.6187,-9.579,-9.5813,-9.582,-9.6015,-9.6639,-9.6795,-9.6366,-9.621,-9.6288,-9.6132,-9.5859,-9.5782,-9.5782,-9.5005,-9.4151,-9.3486,-9.2702,-9.2631,-9.2988,-9.2988,-9.2951,-9.2951,-9.2914,-9.2988,-9.3086,-9.3211,-9.3407,-9.3686,-9.3986,-9.4015,-9.4015,-9.4015,-9.4015,-9.4015,-9.3948,-9.394,-9.3835,-9.376,-9.3723,-9.3873,-9.394,-9.3932,-9.4122,-9.4349,-9.4431,-9.4567,-9.4793,-9.4793,-9.4793,-9.4793,-9.4793,-9.4793,-9.4793,-9.4793,-9.4793,-9.4819,-9.4946,-9.507,-9.5191,-9.5371,-9.5486,-9.5576,-9.5598,-9.5729,-9.5859,-9.5862,-9.602,-9.6251,-9.6288,-9.6288,-9.6288,-9.6288,-9.6288,-9.6288,-9.6288,-9.6288,-9.6288,-9.6429,-9.6497,-9.6548,-9.6692,-9.6807,-9.6822,-9.6822,-9.6822,-9.6822,-9.6822,-9.6822,-9.6822,-9.6822,-9.6822,-9.6822,-9.6822,-9.6798,-9.6827,-9.687,-9.6953,-9.7031,-9.7082,-9.713,-9.7165,-9.7199,-9.7199,-9.7199,-9.7199,-9.7199,-9.7199,-9.7199,-9.721,-9.7126,-9.7118,-9.678,-9.6563,-9.617,-9.5697,-9.5221,-9.4924,-9.4924,-9.5041,-9.5431,-9.5392,-9.5158,-9.5314,-9.5548,-9.5236,-9.4885,-9.4698,-9.4478,-9.4172,-9.3471,-9.2837,-9.2507,-9.2518,-9.2988,-9.2951,-9.2393,-9.2133,-9.2208,-9.2765,-9.3021,-9.3082,-9.3375,-9.3686,-9.3956,-9.4015,-9.4015,-9.4015,-9.394,-9.3902,-9.3835,-9.3235,-9.3122,-9.3122,-9.316,-9.3122,-9.3272,-9.3706,-9.4085,-9.4321,-9.4431,-9.4567,-9.4793,-9.4793,-9.4793,-9.4793,-9.4793,-9.4793,-9.4793,-9.4793,-9.4793,-9.4819,-9.4921,-9.507,-9.5191,-9.531,-9.5463,-9.5598,-9.5598,-9.5729,-9.588,-9.59,-9.602,-9.6251,-9.6288,-9.6288,-9.6288,-9.6288,-9.6288,-9.6288,-9.6288,-9.6288,-9.6325,-9.6411,-9.6476,-9.658,-9.6676,-9.6783,-9.6822,-9.6822,-9.6822,-9.6822,-9.6822,-9.6822,-9.6822,-9.6822,-9.6822,-9.6822,-9.6836,-9.6827,-9.6856,-9.6926,-9.7006,-9.7069,-9.713,-9.7153,-9.7188,-9.7199,-9.7199,-9.7082,-9.7082,-9.716,-9.7199,-9.721,-9.7171,-9.6991,-9.6877,-9.6458,-9.6075,-9.5447,-9.4848,-9.4294,-9.4067,-9.4106,-9.4223,-9.4379,-9.4613,-9.4651,-9.4729,-9.4768,-9.434,-9.3879,-9.3419,-9.3055,-9.3092,-9.3091,-9.2733,-9.251,-9.2518,-9.2542,-9.2431,-9.165,-9.1279,-9.139,-9.191,-9.2198,-9.2327,-9.2549,-9.2825,-9.3055,-9.3084,-9.3114,-9.3114,-9.3122,-9.3122,-9.3047,-9.2596,-9.2296,-9.2296,-9.2296,-9.2484,-9.2859,-9.3301,-9.3812,-9.417,-9.4394,-9.453,-9.4793,-9.4793,-9.4793,-9.4793,-9.4793,-9.4793,-9.4793,-9.4793,-9.4793,-9.4819,-9.4895,-9.4996,-9.5143,-9.5324,-9.5417,-9.5554,-9.5643,-9.567,-9.5839,-9.5941,-9.6039,-9.6232,-9.6288,-9.6288,-9.6288,-9.6288,-9.6288,-9.6288,-9.6288,-9.6288,-9.6325,-9.6429,-9.6476,-9.6509,-9.6692,-9.6768,-9.6822,-9.6822,-9.6822,-9.6822,-9.6822,-9.6822,-9.6822,-9.6822,-9.6822,-9.6822,-9.6836,-9.6827,-9.6884,-9.6953,-9.7031,-9.7094,-9.7153,-9.7188,-9.7199,-9.7199,-9.7199,-9.7082,-9.6927,-9.7005,-9.7005,-9.686,-9.6793,-9.6584,-9.6157,-9.5581,-9.5041,-9.4505,-9.3897,-9.3327,-9.3288,-9.3366,-9.3288,-9.3443,-9.3794,-9.4067,-9.3833,-9.3599,-9.3288,-9.2905,-9.2756,-9.2666,-9.2663,-9.2588,-9.2507,-9.2518,-9.2482,-9.1688,-9.1539,-9.0796,-9.0462,-9.0462,-9.0494,-9.0652,-9.1036,-9.1073,-9.1291,-9.1582,-9.1695,-9.1808,-9.1658,-9.1582,-9.1695,-9.1658,-9.1545,-9.147,-9.1432,-9.1432,-9.1883,-9.2296,-9.2709,-9.337,-9.3991,-9.4394,-9.4503,-9.4767,-9.4793,-9.4793,-9.4793,-9.4793,-9.4793,-9.4793,-9.4793,-9.4793,-9.4819,-9.4844,-9.4971,-9.5181,-9.5215,-9.5394,-9.5531,-9.5621,-9.5691,-9.5839,-9.592,-9.6078,-9.6213,-9.6288,-9.6288,-9.6288,-9.6288,-9.6288,-9.6288,-9.6288,-9.6288,-9.6325,-9.6429,-9.6476,-9.6509,-9.6692,-9.6753,-9.6822,-9.6822,-9.6822,-9.6822,-9.6822,-9.6822,-9.6822,-9.6822,-9.6822,-9.6822,-9.6822,-9.6841,-9.6898,-9.6966,-9.7044,-9.7106,-9.7165,-9.7199,-9.7199,-9.7199,-9.7043,-9.6733,-9.6499,-9.6344,-9.6266,-9.5994,-9.591,-9.5856,-9.532,-9.4539,-9.4045,-9.3741,-9.3319,-9.2898,-9.2742,-9.2742,-9.2625,-9.2625,-9.2976,-9.3093,-9.2703,-9.2508,-9.2664,-9.2625,-9.2522,-9.2432,-9.2462,-9.25,-9.2498,-9.2514,-9.2482,-9.1353,-9.0759,-8.9979,-8.9644,-8.9565,-8.9138,-8.9696,-9.0886,-9.0998,-9.1178,-9.147,-9.147,-9.132,-9.147,-9.147,-9.1432,-9.1207,-9.0944,-9.0644,-9.0569,-9.0569,-9.0756,-9.1282,-9.2071,-9.2815,-9.3455,-9.3999,-9.4513,-9.4636,-9.4741,-9.4793,-9.4793,-9.4793,-9.4793,-9.4793,-9.4793,-9.4793,-9.4793,-9.4793,-9.4946,-9.5119,-9.5167,-9.5371,-9.5509,-9.5598,-9.5691,-9.5839,-9.59,-9.6058,-9.6232,-9.6269,-9.6288,-9.6288,-9.6288,-9.6288,-9.6288,-9.6288,-9.6288,-9.6325,-9.6429,-9.6492,-9.6525,-9.6692,-9.6768,-9.6822,-9.6822,-9.6822,-9.6822,-9.6822,-9.6822,-9.6822,-9.6822,-9.6822,-9.6822,-9.6798,-9.6841,-9.6912,-9.6979,-9.7018,-9.7142,-9.7199,-9.7199,-9.7199,-9.7005,-9.681,-9.6422,-9.6033,-9.5723,-9.5489,-9.5217,-9.5105,-9.501,-9.4503,-9.3731,-9.3508,-9.3249,-9.2859,-9.2508,-9.243,-9.243,-9.2469,-9.2508,-9.243,-9.243,-9.243,-9.243,-9.243,-9.2391,-9.2398,-9.2419,-9.245,-9.249,-9.2485,-9.2507,-9.2482,-9.0462,-8.9942,-8.9161,-8.8827,-8.8747,-8.8456,-8.9018,-8.9952,-9.0087,-9.0264,-9.0494,-9.0456,-9.0494,-9.0456,-9.0418,-9.0418,-9.0343,-8.9968,-8.9743,-8.9705,-8.978,-9.0043,-9.0606,-9.1507,-9.2382,-9.305,-9.3793,-9.4448,-9.4583,-9.4715,-9.4793,-9.4793,-9.4793,-9.4793,-9.4793,-9.4793,-9.4793,-9.4793,-9.4844,-9.4946,-9.5045,-9.5167,-9.5348,-9.5486,-9.5554,-9.567,-9.5818,-9.5859,-9.6,-9.6213,-9.6251,-9.6288,-9.6288,-9.6288,-9.6288,-9.6288,-9.6288,-9.6288,-9.6325,-9.6429,-9.6459,-9.6542,-9.6692,-9.6753,-9.6822,-9.6822,-9.6822,-9.6822,-9.6822,-9.6822,-9.6822,-9.6822,-9.6822,-9.6822,-9.6812,-9.6856,-9.6926,-9.6993,-9.7082,-9.7176,-9.7199,-9.7199,-9.7082,-9.6888,-9.6538,-9.5994,-9.5256,-9.4557,-9.4402,-9.4285,-9.4231,-9.4222,-9.3627,-9.2952,-9.2853,-9.2859,-9.2625,-9.243,-9.243,-9.243,-9.243,-9.243,-9.243,-9.243,-9.243,-9.243,-9.243,-9.243,-9.2391,-9.2412,-9.2432,-9.2474,-9.2471,-9.2507,-9.2518,-8.9273,-8.9161,-8.8381,-8.8158,-8.8152,-8.8263,-8.8451,-8.8533,-8.8895,-8.8926,-8.9104,-8.9067,-8.9179,-8.9367,-8.9367,-8.933,-8.9367,-8.9254,-8.9217,-8.9029,-8.9179,-8.9517,-9.0306,-9.1094,-9.209,-9.2947,-9.3755,-9.4448,-9.461,-9.4715,-9.4793,-9.4793,-9.4793,-9.4793,-9.4793,-9.4793,-9.4793,-9.4793,-9.4819,-9.4895,-9.4996,-9.5119,-9.5277,-9.5417,-9.5531,-9.5664,-9.5772,-9.5877,-9.5961,-9.6098,-9.6193,-9.6288,-9.6288,-9.6288,-9.6288,-9.6288,-9.6288,-9.6306,-9.6343,-9.6446,-9.6514,-9.6597,-9.6692,-9.6753,-9.6822,-9.6822,-9.6822,-9.6822,-9.6822,-9.6822,-9.6822,-9.6822,-9.6822,-9.6822,-9.6798,-9.687,-9.6966,-9.7031,-9.7118,-9.7188,-9.7199,-9.7121,-9.6694,-9.6461,-9.5839,-9.5373,-9.4751,-9.3819,-9.3402,-9.3363,-9.3425,-9.3453,-9.3043,-9.2602,-9.2588,-9.2586,-9.2508,-9.243,-9.243,-9.243,-9.243,-9.243,-9.243,-9.243,-9.243,-9.243,-9.243,-9.243,-9.243,-9.2398,-9.2425,-9.245,-9.2451,-9.249,-9.251,-8.8938,-8.8381,-8.8158,-8.8084,-8.8146,-8.8354,-8.8436,-8.8495,-8.8823,-8.8964,-8.8992,-8.8992,-8.8992,-8.8992,-8.8992,-8.8992,-8.8992,-8.8992,-8.8992,-8.8992,-8.8992,-8.9442,-9.0231,-9.1094,-9.1912,-9.2824,-9.3737,-9.4503,-9.4689,-9.4767,-9.4793,-9.4793,-9.4793,-9.4793,-9.4793,-9.4793,-9.4793,-9.4793,-9.4819,-9.487,-9.4971,-9.5119,-9.5277,-9.5417,-9.5531,-9.5643,-9.5772,-9.5839,-9.5961,-9.6098,-9.6232,-9.6269,-9.6288,-9.6288,-9.6288,-9.6288,-9.6288,-9.6325,-9.6358,-9.6463,-9.6548,-9.6629,-9.6723,-9.6792,-9.6822,-9.6822,-9.6822,-9.6822,-9.6822,-9.6822,-9.6822,-9.6822,-9.6822,-9.6822,-9.6822,-9.6898,-9.6993,-9.7082,-9.7153,-9.7176,-9.7199,-9.6849,-9.6383,-9.5761,-9.5179,-9.4596,-9.4013,-9.3325,-9.2791,-9.2607,-9.2696,-9.2714,-9.2606,-9.2338,-9.2362,-9.243,-9.243,-9.243,-9.243,-9.243,-9.243,-9.243,-9.243,-9.243,-9.243,-9.243,-9.243,-9.243,-9.2391,-9.2391,-9.2405,-9.2438,-9.2417,-9.2451,-9.249,-8.8493,-8.8121,-8.8084,-8.8084,-8.8146,-8.8384,-8.8533,-8.8554,-8.8851,-8.8992,-8.8992,-8.8992,-8.8992,-8.8992,-8.8992,-8.8992,-8.8992,-8.8992,-8.8992,-8.8992,-8.9142,-8.9555,-9.0268,-9.1132,-9.1969,-9.2853,-9.3924,-9.4583,-9.4767,-9.4793,-9.4793,-9.4793,-9.4793,-9.4793,-9.4793,-9.4793,-9.4793,-9.4793,-9.4793,-9.4844,-9.4946,-9.5094,-9.5229,-9.5333,-9.5486,-9.5621,-9.5729,-9.5797,-9.592,-9.6058,-9.6213,-9.6269,-9.6288,-9.6288,-9.6288,-9.6288,-9.6288,-9.6325,-9.6394,-9.648,-9.658,-9.6661,-9.6777,-9.6822,-9.6822,-9.6822,-9.6822,-9.6822,-9.6822,-9.6822,-9.6822,-9.6822,-9.6822,-9.6822,-9.6798,-9.6856,-9.6993,-9.7106,-9.7165,-9.7188,-9.6966,-9.6383,-9.58,-9.4868,-9.4324,-9.3935,-9.3314,-9.2887,-9.2353,-9.2161,-9.2171,-9.2217,-9.2234,-9.2268,-9.237,-9.243,-9.243,-9.243,-9.243,-9.243,-9.243,-9.243,-9.243,-9.243,-9.243,-9.243,-9.243,-9.243,-9.243,-9.2391,-9.2405,-9.2419,-9.2438,-9.2456,-9.2451,-8.8121,-8.8084,-8.8084,-8.8084,-8.8146,-8.8384,-8.8533,-8.8554,-8.8851,-8.8992,-8.8992,-8.8992,-8.8992,-8.8992,-8.8992,-8.8992,-8.8992,-8.8992,-8.8992,-8.9029,-8.9179,-8.9855,-9.0606,-9.132,-9.2298,-9.3219,-9.4146,-9.4534,-9.4793,-9.4793,-9.4793,-9.4793,-9.4793,-9.4793,-9.4793,-9.4793,-9.4793,-9.4793,-9.4793,-9.4793,-9.4921,-9.5045,-9.5143,-9.5286,-9.5463,-9.5576,-9.5686,-9.5734,-9.5859,-9.6,-9.6136,-9.6251,-9.6288,-9.6288,-9.6288,-9.6288,-9.6325,-9.6379,-9.6429,-9.6514,-9.6597,-9.6715,-9.6792,-9.6822,-9.6822,-9.6822,-9.6822,-9.6822,-9.6822,-9.6822,-9.6822,-9.6822,-9.6822,-9.6798,-9.6827,-9.6856,-9.6993,-9.7079,-9.7087,-9.7121,-9.6538,-9.5956,-9.4984,-9.4052,-9.3586,-9.3197,-9.2809,-9.242,-9.212,-9.2142,-9.219,-9.2234,-9.2268,-9.2347,-9.2384,-9.243,-9.243,-9.243,-9.243,-9.243,-9.243,-9.243,-9.243,-9.243,-9.243,-9.243,-9.243,-9.243,-9.243,-9.243,-9.2398,-9.2405,-9.2419,-9.2432,-9.245,-8.8084,-8.8084,-8.8084,-8.8084,-8.8146,-8.8384,-8.8533,-8.8562,-8.8851,-8.8992,-8.8992,-8.8992,-8.8992,-8.8992,-8.8992,-8.8992,-8.8992,-8.8992,-8.8992,-8.9029,-8.9555,-9.0381,-9.1273,-9.2157,-9.3097,-9.3858,-9.4389,-9.4625,-9.4793,-9.4793,-9.4793,-9.4793,-9.4793,-9.4793,-9.4793,-9.4793,-9.4793,-9.4793,-9.4793,-9.4793,-9.487,-9.5021,-9.5143,-9.5286,-9.5463,-9.5554,-9.5643,-9.5729,-9.5835,-9.5941,-9.6136,-9.6251,-9.6288,-9.6288,-9.6288,-9.6325,-9.6361,-9.6411,-9.6497,-9.658,-9.6699,-9.6761,-9.6822,-9.6822,-9.6822,-9.6822,-9.6822,-9.6822,-9.6822,-9.6822,-9.6822,-9.6822,-9.6822,-9.6827,-9.6856,-9.6926,-9.7019,-9.6924,-9.6877,-9.6499,-9.5956,-9.5101,-9.4052,-9.343,-9.3081,-9.2731,-9.2459,-9.211,-9.2131,-9.2152,-9.2208,-9.2252,-9.2331,-9.2362,-9.243,-9.243,-9.243,-9.243,-9.243,-9.243,-9.243,-9.243,-9.243,-9.243,-9.243,-9.243,-9.243,-9.243,-9.243,-9.243,-9.243,-9.2391,-9.2398,-9.2412,-9.2425]},{"header":{"parameterUnit":"m.s-1","parameterCategory":1,"la1":31.0,"la2":29.5877,"lo1":-88.7671,"lo2":-86.6584,"dy":0.0162,"dx":0.0185,"nx":115,"ny":88,"refTime":"2023-03-21T06:00:00:Z","depth":0,"parameterNumber":3,"parameterNumberName":"V-component_of_WINDS"},"data":[0.0,0.0,0.0,0.0,0.0,0.0,0.0,0.0,0.0,0.0,0.0,0.0,0.0,0.0,0.0,0.0,0.0,0.0,0.0,0.0,0.0,0.0,0.0,0.0,0.0,0.0,0.0,0.0,0.0,0.0,0.0,0.0,0.0,0.0,0.0,0.0,0.0,0.0,0.0,0.0,0.0,0.0,0.0,0.0,0.0,0.0,0.0,0.0,0.0,0.0,0.0,0.0,0.0,0.0,0.0,0.0,0.0,0.0,0.0,0.0,0.0,0.0,0.0,0.0,0.0,0.0,0.0,0.0,0.0,0.0,0.0,0.0,0.0,0.0,0.0,0.0,0.0,0.0,0.0,0.0,0.0,0.0,0.0,0.0,0.0,0.0,0.0,0.0,0.0,0.0,0.0,0.0,0.0,0.0,0.0,0.0,0.0,0.0,0.0,0.0,0.0,0.0,0.0,0.0,0.0,0.0,0.0,0.0,0.0,0.0,0.0,0.0,0.0,0.0,0.0,0.0,0.0,0.0,0.0,0.0,0.0,0.0,0.0,0.0,0.0,0.0,0.0,0.0,0.0,0.0,0.0,0.0,0.0,0.0,0.0,0.0,0.0,0.0,0.0,0.0,0.0,0.0,0.0,0.0,0.0,0.0,0.0,0.0,0.0,0.0,0.0,0.0,0.0,0.0,0.0,0.0,0.0,0.0,0.0,0.0,0.0,0.0,0.0,0.0,0.0,0.0,0.0,0.0,0.0,0.0,0.0,0.0,0.0,0.0,0.0,0.0,0.0,0.0,0.0,0.0,0.0,0.0,0.0,0.0,0.0,0.0,0.0,0.0,0.0,0.0,0.0,0.0,0.0,0.0,0.0,0.0,0.0,0.0,0.0,0.0,0.0,0.0,0.0,0.0,0.0,0.0,0.0,0.0,0.0,0.0,0.0,0.0,0.0,0.0,0.0,0.0,0.0,0.0,0.0,0.0,0.0,0.0,0.0,0.0,0.0,0.0,0.0,0.0,0.0,0.0,0.0,0.0,0.0,0.0,0.0,0.0,0.0,0.0,0.0,0.0,0.0,0.0,0.0,0.0,0.0,0.0,0.0,0.0,0.0,0.0,0.0,0.0,0.0,0.0,0.0,0.0,0.0,0.0,0.0,0.0,0.0,0.0,0.0,0.0,0.0,0.0,0.0,0.0,0.0,0.0,0.0,0.0,0.0,0.0,0.0,0.0,0.0,0.0,0.0,0.0,0.0,0.0,0.0,0.0,0.0,0.0,0.0,0.0,0.0,0.0,0.0,0.0,0.0,0.0,0.0,0.0,0.0,0.0,0.0,0.0,0.0,0.0,0.0,0.0,0.0,0.0,0.0,0.0,0.0,0.0,0.0,0.0,0.0,0.0,0.0,0.0,0.0,0.0,0.0,0.0,0.0,0.0,0.0,0.0,0.0,0.0,0.0,0.0,0.0,0.0,0.0,0.0,0.0,0.0,0.0,0.0,0.0,0.0,0.0,0.0,0.0,0.0,0.0,0.0,0.0,0.0,0.0,0.0,0.0,0.0,0.0,0.0,0.0,0.0,0.0,0.0,0.0,0.0,0.0,0.0,0.0,0.0,0.0,0.0,0.0,0.0,0.0,0.0,0.0,0.0,0.0,0.0,0.0,0.0,0.0,0.0,0.0,0.0,0.0,0.0,0.0,0.0,0.0,0.0,0.0,0.0,0.0,0.0,0.0,0.0,0.0,0.0,0.0,0.0,0.0,0.0,0.0,0.0,0.0,0.0,0.0,0.0,0.0,0.0,0.0,0.0,0.0,0.0,0.0,0.0,0.0,0.0,0.0,0.0,0.0,0.0,0.0,0.0,0.0,0.0,0.0,0.0,0.0,0.0,0.0,0.0,0.0,0.0,0.0,0.0,0.0,0.0,0.0,0.0,0.0,0.0,0.0,0.0,0.0,0.0,0.0,0.0,0.0,0.0,0.0,0.0,0.0,0.0,0.0,0.0,0.0,0.0,0.0,0.0,0.0,0.0,0.0,0.0,0.0,0.0,0.0,0.0,0.0,0.0,0.0,0.0,0.0,0.0,0.0,0.0,0.0,0.0,0.0,0.0,0.0,0.0,0.0,0.0,0.0,0.0,0.0,0.0,0.0,0.0,0.0,0.0,0.0,0.0,0.0,0.0,0.0,0.0,0.0,0.0,0.0,0.0,0.0,0.0,0.0,0.0,0.0,0.0,0.0,0.0,0.0,0.0,0.0,0.0,0.0,0.0,0.0,0.0,0.0,0.0,0.0,0.0,0.0,0.0,0.0,0.0,0.0,0.0,0.0,0.0,0.0,0.0,0.0,0.0,0.0,0.0,0.0,0.0,0.0,0.0,0.0,0.0,0.0,0.0,0.0,0.0,0.0,0.0,0.0,0.0,0.0,0.0,0.0,0.0,0.0,0.0,0.0,0.0,0.0,0.0,0.0,0.0,0.0,0.0,0.0,0.0,0.0,0.0,0.0,0.0,0.0,0.0,0.0,0.0,0.0,0.0,0.0,0.0,0.0,0.0,0.0,0.0,0.0,0.0,0.0,0.0,0.0,0.0,0.0,0.0,0.0,0.0,0.0,0.0,0.0,0.0,0.0,0.0,0.0,0.0,0.0,0.0,0.0,0.0,0.0,0.0,0.0,0.0,0.0,0.0,0.0,0.0,0.0,0.0,0.0,0.0,0.0,0.0,0.0,0.0,0.0,0.0,0.0,0.0,0.0,0.0,0.0,0.0,0.0,0.0,0.0,0.0,0.0,0.0,0.0,0.0,0.0,0.0,0.0,0.0,0.0,0.0,0.0,0.0,0.0,0.0,0.0,0.0,0.0,0.0,0.0,0.0,0.0,0.0,0.0,0.0,0.0,0.0,0.0,0.0,0.0,0.0,0.0,0.0,0.0,0.0,0.0,0.0,0.0,0.0,0.0,0.0,0.0,0.0,0.0,0.0,0.0,0.0,0.0,0.0,0.0,0.0,0.0,0.0,0.0,0.0,0.0,0.0,0.0,0.0,0.0,0.0,0.0,0.0,0.0,0.0,0.0,0.0,0.0,0.0,0.0,0.0,0.0,0.0,0.0,0.0,0.0,0.0,0.0,0.0,0.0,0.0,0.0,0.0,0.0,0.0,0.0,0.0,0.0,0.0,0.0,0.0,0.0,0.0,0.0,0.0,0.0,0.0,0.0,0.0,0.0,0.0,0.0,0.0,0.0,0.0,0.0,0.0,0.0,0.0,0.0,0.0,0.0,0.0,0.0,0.0,0.0,0.0,0.0,0.0,0.0,0.0,0.0,0.0,0.0,0.0,0.0,0.0,0.0,0.0,0.0,0.0,0.0,0.0,0.0,0.0,0.0,0.0,0.0,0.0,0.0,0.0,0.0,0.0,0.0,0.0,0.0,0.0,0.0,0.0,0.0,0.0,0.0,0.0,0.0,0.0,0.0,0.0,0.0,0.0,0.0,0.0,0.0,0.0,0.0,0.0,0.0,0.0,0.0,0.0,0.0,0.0,0.0,0.0,0.0,0.0,0.0,0.0,0.0,0.0,0.0,0.0,0.0,0.0,0.0,0.0,0.0,0.0,0.0,0.0,0.0,0.0,0.0,0.0,0.0,0.0,0.0,0.0,0.0,0.0,0.0,0.0,0.0,0.0,0.0,0.0,0.0,0.0,0.0,0.0,0.0,0.0,0.0,0.0,0.0,0.0,0.0,0.0,0.0,0.0,0.0,0.0,0.0,0.0,0.0,0.0,0.0,0.0,0.0,0.0,0.0,0.0,0.0,0.0,0.0,0.0,0.0,0.0,0.0,0.0,0.0,0.0,0.0,0.0,0.0,0.0,0.0,0.0,0.0,0.0,0.0,0.0,0.0,0.0,0.0,0.0,0.0,0.0,0.0,0.0,0.0,0.0,0.0,0.0,0.0,0.0,0.0,0.0,0.0,0.0,0.0,0.0,0.0,0.0,0.0,0.0,0.0,0.0,0.0,0.0,0.0,0.0,0.0,0.0,0.0,0.0,0.0,0.0,0.0,0.0,0.0,0.0,0.0,0.0,0.0,0.0,0.0,0.0,0.0,0.0,0.0,0.0,0.0,0.0,0.0,0.0,0.0,0.0,0.0,0.0,0.0,0.0,0.0,0.0,0.0,0.0,0.0,0.0,0.0,0.0,0.0,0.0,0.0,0.0,0.0,0.0,0.0,0.0,0.0,0.0,0.0,0.0,0.0,0.0,0.0,0.0,0.0,0.0,0.0,0.0,0.0,0.0,-1.0019,0.0,0.0,0.0,0.0,0.0,0.0,0.0,0.0,0.0,0.0,0.0,0.0,0.0,0.0,0.0,0.0,0.0,0.0,0.0,0.0,0.0,0.0,0.0,0.0,0.0,0.0,0.0,0.0,0.0,0.0,0.0,0.0,0.0,0.0,0.0,0.0,0.0,0.0,0.0,0.0,0.0,0.0,0.0,0.0,0.0,0.0,0.0,0.0,0.0,0.0,0.0,0.0,0.0,0.0,0.0,0.0,0.0,0.0,0.0,0.0,0.0,0.0,0.0,0.0,0.0,0.0,0.0,0.0,0.0,0.0,0.0,0.0,0.0,0.0,0.0,0.0,0.0,0.0,0.0,0.0,0.0,0.0,0.0,0.0,0.0,0.0,0.0,0.0,0.0,0.0,0.0,0.0,0.0,0.0,0.0,0.0,0.0,0.0,0.0,0.0,0.0,0.0,0.0,0.0,0.0,0.0,0.0,0.0,0.0,0.0,-1.1572,-1.1029,-1.0719,-1.0408,-1.0014,0.0,0.0,0.0,0.0,0.0,0.0,0.0,0.0,0.0,0.0,0.0,0.0,0.0,0.0,0.0,0.0,0.0,0.0,0.0,0.0,0.0,0.0,0.0,0.0,0.0,0.0,0.0,0.0,0.0,0.0,0.0,0.0,0.0,0.0,0.0,0.0,0.0,0.0,0.0,0.0,0.0,0.0,0.0,0.0,0.0,0.0,0.0,0.0,0.0,0.0,0.0,0.0,0.0,0.0,0.0,0.0,0.0,0.0,0.0,0.0,0.0,0.0,0.0,0.0,0.0,0.0,0.0,0.0,0.0,0.0,0.0,0.0,0.0,0.0,0.0,0.0,0.0,0.0,0.0,0.0,0.0,0.0,0.0,0.0,0.0,0.0,0.0,0.0,0.0,0.0,0.0,0.0,0.0,0.0,0.0,0.0,0.0,0.0,0.0,0.0,0.0,0.0,0.0,0.0,0.0,0.0,0.0,0.0,0.0,0.0,0.0,0.0,-1.1029,-1.0486,-1.0014,0.0,0.0,0.0,0.0,0.0,0.0,0.0,0.0,0.0,0.0,0.0,0.0,0.0,0.0,0.0,0.0,0.0,0.0,0.0,0.0,0.0,0.0,0.0,0.0,0.0,0.0,0.0,0.0,0.0,0.0,0.0,0.0,0.0,0.0,0.0,0.0,0.0,0.0,0.0,0.0,0.0,0.0,0.0,0.0,0.0,0.0,0.0,0.0,0.0,0.0,0.0,0.0,0.0,0.0,0.0,0.0,0.0,0.0,0.0,0.0,0.0,0.0,0.0,0.0,0.0,0.0,0.0,0.0,0.0,0.0,0.0,0.0,0.0,0.0,0.0,0.0,0.0,0.0,0.0,0.0,0.0,0.0,0.0,0.0,0.0,0.0,0.0,0.0,0.0,0.0,0.0,0.0,0.0,0.0,0.0,0.0,0.0,0.0,0.0,0.0,0.0,0.0,0.0,0.0,0.0,0.0,0.0,0.0,0.0,0.0,-1.2269,-1.1882,-1.1417,0.0,-1.0092,0.0,0.0,0.0,0.0,0.0,0.0,0.0,0.0,0.0,0.0,0.0,0.0,0.0,0.0,0.0,0.0,0.0,0.0,0.0,0.0,0.0,0.0,0.0,0.0,0.0,0.0,0.0,0.0,0.0,0.0,0.0,0.0,0.0,0.0,0.0,0.0,0.0,0.0,0.0,0.0,0.0,0.0,0.0,0.0,0.0,0.0,0.0,0.0,0.0,0.0,0.0,0.0,0.0,0.0,0.0,0.0,0.0,0.0,0.0,0.0,0.0,0.0,0.0,0.0,0.0,0.0,0.0,0.0,0.0,0.0,0.0,0.0,0.0,0.0,0.0,0.0,0.0,0.0,0.0,0.0,0.0,0.0,0.0,0.0,0.0,0.0,0.0,0.0,0.0,0.0,0.0,0.0,0.0,0.0,0.0,0.0,0.0,0.0,0.0,0.0,0.0,0.0,0.0,0.0,0.0,0.0,0.0,0.0,0.0,0.0,-1.2347,-1.1882,-1.1262,-1.0563,0.0,0.0,0.0,0.0,0.0,0.0,0.0,0.0,0.0,0.0,0.0,0.0,0.0,0.0,0.0,0.0,0.0,0.0,0.0,0.0,0.0,0.0,0.0,0.0,0.0,0.0,0.0,0.0,0.0,0.0,0.0,0.0,0.0,0.0,0.0,0.0,0.0,0.0,0.0,0.0,0.0,0.0,0.0,0.0,0.0,0.0,0.0,0.0,0.0,0.0,0.0,0.0,0.0,0.0,0.0,0.0,0.0,0.0,0.0,0.0,0.0,0.0,0.0,0.0,0.0,0.0,0.0,0.0,0.0,0.0,0.0,0.0,0.0,0.0,0.0,0.0,0.0,0.0,0.0,0.0,0.0,0.0,0.0,0.0,0.0,0.0,0.0,0.0,0.0,0.0,0.0,0.0,0.0,0.0,0.0,0.0,0.0,0.0,0.0,0.0,0.0,0.0,0.0,0.0,0.0,0.0,0.0,0.0,0.0,0.0,-1.2888,-1.2347,-1.1882,-1.1184,-1.0563,-1.0175,0.0,0.0,0.0,0.0,0.0,0.0,0.0,0.0,0.0,0.0,0.0,0.0,0.0,0.0,0.0,0.0,0.0,0.0,0.0,0.0,0.0,0.0,0.0,0.0,0.0,0.0,0.0,0.0,0.0,0.0,0.0,0.0,0.0,0.0,0.0,0.0,0.0,0.0,0.0,0.0,0.0,0.0,0.0,0.0,0.0,0.0,0.0,0.0,0.0,0.0,0.0,0.0,0.0,0.0,0.0,0.0,0.0,0.0,0.0,0.0,0.0,0.0,0.0,0.0,0.0,0.0,0.0,0.0,0.0,0.0,0.0,0.0,0.0,0.0,0.0,0.0,0.0,0.0,0.0,0.0,0.0,0.0,0.0,0.0,0.0,0.0,0.0,0.0,0.0,0.0,0.0,0.0,0.0,0.0,0.0,0.0,0.0,0.0,0.0,0.0,0.0,0.0,0.0,0.0,0.0,0.0,0.0,0.0,-1.3667,-1.2888,-1.2347,-1.1882,-1.1495,-1.1029,0.0,0.0,0.0,0.0,0.0,0.0,0.0,0.0,0.0,0.0,0.0,0.0,0.0,0.0,0.0,0.0,0.0,0.0,0.0,0.0,0.0,0.0,0.0,0.0,0.0,0.0,0.0,0.0,0.0,0.0,0.0,0.0,0.0,0.0,0.0,0.0,0.0,0.0,0.0,0.0,0.0,0.0,0.0,0.0,0.0,0.0,0.0,0.0,0.0,0.0,0.0,0.0,0.0,0.0,0.0,0.0,0.0,0.0,0.0,0.0,0.0,0.0,0.0,0.0,0.0,0.0,0.0,0.0,0.0,0.0,0.0,0.0,0.0,0.0,0.0,0.0,0.0,0.0,0.0,0.0,0.0,0.0,0.0,0.0,0.0,0.0,0.0,0.0,0.0,0.0,0.0,0.0,0.0,0.0,0.0,0.0,0.0,0.0,0.0,0.0,0.0,0.0,0.0,0.0,0.0,0.0,0.0,0.0,0.0,-1.366,-1.2888,-1.2269,-1.1882,-1.1495,-1.1107,0.0,0.0,0.0,0.0,0.0,0.0,0.0,0.0,0.0,0.0,0.0,0.0,0.0,0.0,0.0,0.0,0.0,0.0,0.0,0.0,0.0,0.0,0.0,0.0,0.0,0.0,0.0,0.0,0.0,0.0,0.0,0.0,0.0,0.0,0.0,0.0,0.0,0.0,0.0,0.0,0.0,0.0,0.0,0.0,0.0,0.0,0.0,0.0,0.0,0.0,0.0,0.0,0.0,0.0,0.0,0.0,0.0,0.0,0.0,0.0,0.0,0.0,0.0,0.0,0.0,0.0,0.0,0.0,0.0,0.0,0.0,0.0,0.0,0.0,0.0,0.0,0.0,0.0,0.0,0.0,0.0,0.0,0.0,0.0,0.0,0.0,0.0,0.0,0.0,0.0,0.0,0.0,0.0,0.0,0.0,0.0,0.0,0.0,0.0,0.0,0.0,0.0,0.0,0.0,0.0,0.0,0.0,0.0,0.0,-1.3513,0.0,-1.2347,-1.2114,-1.1727,-1.1262,0.0,0.0,0.0,0.0,0.0,0.0,0.0,0.0,0.0,0.0,0.0,0.0,0.0,0.0,0.0,0.0,0.0,0.0,0.0,0.0,0.0,0.0,0.0,0.0,0.0,0.0,0.0,0.0,0.0,0.0,0.0,0.0,0.0,0.0,0.0,0.0,0.0,0.0,0.0,0.0,0.0,0.0,0.0,0.0,0.0,0.0,0.0,0.0,0.0,0.0,0.0,0.0,0.0,0.0,0.0,0.0,0.0,0.0,0.0,0.0,0.0,0.0,0.0,0.0,0.0,0.0,0.0,0.0,0.0,0.0,0.0,0.0,0.0,0.0,0.0,0.0,0.0,0.0,0.0,0.0,0.0,0.0,0.0,0.0,0.0,0.0,0.0,0.0,0.0,0.0,0.0,0.0,0.0,0.0,0.0,0.0,0.0,0.0,0.0,0.0,0.0,0.0,0.0,0.0,0.0,0.0,0.0,0.0,-1.3983,-1.312,-1.2733,-1.2501,-1.2501,-1.2114,-1.1727,0.0,0.0,0.0,0.0,0.0,0.0,0.0,0.0,0.0,0.0,0.0,0.0,0.0,0.0,0.0,0.0,0.0,0.0,0.0,0.0,0.0,0.0,0.0,0.0,0.0,0.0,0.0,0.0,0.0,0.0,0.0,0.0,0.0,0.0,0.0,0.0,0.0,0.0,0.0,0.0,0.0,0.0,0.0,0.0,0.0,0.0,0.0,0.0,0.0,0.0,0.0,0.0,0.0,0.0,0.0,0.0,0.0,0.0,0.0,0.0,0.0,0.0,0.0,0.0,0.0,0.0,0.0,0.0,0.0,0.0,0.0,0.0,0.0,0.0,0.0,0.0,0.0,0.0,0.0,0.0,0.0,0.0,0.0,0.0,0.0,0.0,0.0,0.0,0.0,0.0,0.0,0.0,0.0,0.0,0.0,0.0,0.0,0.0,0.0,0.0,0.0,0.0,0.0,0.0,0.0,0.0,0.0,0.0,0.0,-1.3513,-1.312,-1.2811,-1.2501,-1.2114,-1.1882,0.0,0.0,0.0,0.0,0.0,0.0,0.0,0.0,0.0,0.0,0.0,0.0,0.0,0.0,0.0,0.0,0.0,0.0,0.0,0.0,0.0,0.0,0.0,0.0,0.0,0.0,0.0,0.0,0.0,0.0,0.0,0.0,0.0,0.0,0.0,0.0,0.0,0.0,0.0,0.0,0.0,0.0,0.0,0.0,0.0,0.0,0.0,0.0,0.0,0.0,0.0,0.0,0.0,0.0,0.0,0.0,0.0,0.0,0.0,0.0,0.0,0.0,0.0,0.0,0.0,0.0,0.0,0.0,0.0,0.0,0.0,0.0,0.0,0.0,0.0,0.0,0.0,0.0,0.0,0.0,0.0,0.0,0.0,0.0,0.0,0.0,0.0,0.0,0.0,0.0,0.0,0.0,0.0,0.0,0.0,0.0,0.0,0.0,0.0,0.0,0.0,0.0,0.0,0.0,0.0,0.0,0.0,0.0,0.0,-1.4165,-1.361,-1.3134,-1.2906,-1.2514,-1.22,-1.2043,0.0,0.0,0.0,0.0,0.0,0.0,0.0,0.0,0.0,0.0,0.0,0.0,0.0,0.0,0.0,0.0,0.0,0.0,0.0,0.0,0.0,0.0,0.0,0.0,0.0,0.0,0.0,0.0,0.0,0.0,0.0,0.0,0.0,0.0,0.0,0.0,0.0,0.0,0.0,0.0,0.0,0.0,0.0,0.0,0.0,0.0,0.0,0.0,0.0,0.0,0.0,0.0,0.0,0.0,0.0,0.0,0.0,0.0,0.0,0.0,0.0,0.0,0.0,0.0,0.0,0.0,0.0,0.0,0.0,0.0,0.0,0.0,0.0,0.0,0.0,0.0,0.0,0.0,0.0,0.0,0.0,0.0,0.0,0.0,0.0,0.0,0.0,0.0,0.0,0.0,0.0,0.0,0.0,0.0,0.0,0.0,0.0,0.0,0.0,0.0,0.0,0.0,0.0,0.0,0.0,0.0,0.0,0.0,-1.4978,-1.4098,-1.3676,-1.3582,-1.3189,-1.2795,0.0,0.0,0.0,0.0,0.0,0.0,0.0,0.0,0.0,0.0,0.0,0.0,0.0,0.0,0.0,0.0,0.0,0.0,0.0,0.0,0.0,0.0,0.0,0.0,0.0,0.0,0.0,0.0,0.0,0.0,0.0,0.0,0.0,0.0,0.0,0.0,0.0,0.0,0.0,0.0,0.0,0.0,0.0,0.0,0.0,0.0,0.0,0.0,0.0,0.0,0.0,0.0,0.0,0.0,0.0,0.0,0.0,0.0,0.0,0.0,0.0,0.0,0.0,0.0,0.0,0.0,0.0,0.0,0.0,0.0,0.0,0.0,0.0,0.0,0.0,0.0,0.0,0.0,0.0,0.0,0.0,0.0,0.0,0.0,0.0,0.0,0.0,0.0,0.0,0.0,0.0,0.0,0.0,0.0,0.0,0.0,0.0,0.0,0.0,0.0,0.0,0.0,0.0,0.0,0.0,0.0,0.0,0.0,0.0,-1.5739,-1.4832,-1.415,-1.3596,-1.3196,-1.2963,0.0,0.0,0.0,0.0,0.0,0.0,0.0,0.0,0.0,0.0,0.0,0.0,0.0,0.0,0.0,0.0,0.0,0.0,0.0,0.0,0.0,0.0,0.0,0.0,0.0,0.0,0.0,0.0,0.0,0.0,0.0,0.0,0.0,0.0,0.0,0.0,0.0,0.0,0.0,0.0,0.0,0.0,0.0,0.0,0.0,0.0,0.0,0.0,0.0,0.0,0.0,0.0,0.0,0.0,0.0,0.0,0.0,0.0,0.0,0.0,0.0,0.0,0.0,0.0,0.0,0.0,0.0,0.0,0.0,0.0,0.0,0.0,0.0,0.0,0.0,0.0,0.0,0.0,0.0,0.0,0.0,0.0,0.0,0.0,0.0,0.0,0.0,0.0,0.0,0.0,0.0,0.0,0.0,0.0,0.0,0.0,0.0,0.0,0.0,0.0,0.0,0.0,0.0,0.0,0.0,0.0,0.0,0.0,-1.6673,-1.6048,-1.5133,-1.4542,-1.4032,-1.3464,-1.3146,0.0,0.0,0.0,0.0,0.0,0.0,0.0,0.0,0.0,0.0,0.0,0.0,0.0,0.0,0.0,0.0,0.0,0.0,0.0,0.0,0.0,0.0,0.0,0.0,0.0,0.0,0.0,0.0,0.0,0.0,0.0,0.0,0.0,0.0,0.0,0.0,0.0,0.0,0.0,0.0,0.0,0.0,0.0,0.0,0.0,0.0,0.0,0.0,0.0,0.0,0.0,0.0,0.0,0.0,0.0,0.0,0.0,0.0,0.0,0.0,0.0,0.0,0.0,0.0,0.0,0.0,0.0,0.0,0.0,0.0,0.0,0.0,0.0,0.0,0.0,0.0,0.0,0.0,0.0,0.0,0.0,0.0,0.0,0.0,0.0,0.0,0.0,0.0,0.0,0.0,0.0,0.0,0.0,0.0,0.0,0.0,0.0,0.0,0.0,0.0,0.0,0.0,0.0,0.0,0.0,0.0,0.0,0.0,-1.7176,-1.6105,-1.5187,-1.4765,-1.4765,-1.3929,-1.3424,0.0,0.0,0.0,0.0,0.0,0.0,0.0,0.0,0.0,0.0,0.0,0.0,0.0,0.0,0.0,0.0,0.0,0.0,0.0,0.0,0.0,0.0,0.0,0.0,0.0,0.0,0.0,0.0,0.0,0.0,0.0,0.0,0.0,0.0,0.0,0.0,0.0,0.0,0.0,0.0,0.0,0.0,0.0,0.0,0.0,0.0,0.0,0.0,0.0,0.0,0.0,0.0,0.0,0.0,0.0,0.0,0.0,0.0,0.0,0.0,0.0,0.0,0.0,0.0,0.0,0.0,0.0,0.0,0.0,0.0,0.0,0.0,0.0,0.0,0.0,0.0,0.0,0.0,0.0,0.0,0.0,0.0,0.0,0.0,0.0,0.0,0.0,0.0,0.0,0.0,0.0,0.0,0.0,0.0,0.0,0.0,0.0,0.0,0.0,0.0,0.0,0.0,0.0,0.0,0.0,0.0,0.0,0.0,-1.7433,-1.647,-1.5532,-1.5108,-1.5108,-1.4063,-1.358,0.0,0.0,0.0,0.0,0.0,0.0,0.0,0.0,0.0,0.0,0.0,0.0,0.0,0.0,0.0,0.0,0.0,0.0,0.0,0.0,0.0,0.0,0.0,0.0,0.0,0.0,0.0,0.0,0.0,0.0,0.0,0.0,0.0,0.0,0.0,0.0,0.0,0.0,0.0,0.0,0.0,0.0,0.0,0.0,0.0,0.0,0.0,0.0,-0.7603,0.0,0.0,0.0,0.0,0.0,0.0,0.0,0.0,0.0,0.0,0.0,0.0,0.0,0.0,0.0,0.0,0.0,0.0,0.0,0.0,0.0,0.0,0.0,0.0,0.0,0.0,0.0,0.0,0.0,0.0,0.0,0.0,0.0,0.0,0.0,0.0,0.0,0.0,0.0,0.0,0.0,0.0,0.0,0.0,0.0,0.0,0.0,0.0,0.0,0.0,0.0,0.0,0.0,0.0,0.0,0.0,0.0,0.0,0.0,-1.7596,-1.6584,-1.5732,-1.522,-1.5135,-1.4351,-1.3804,0.0,0.0,0.0,0.0,0.0,0.0,0.0,0.0,0.0,0.0,0.0,0.0,0.0,0.0,0.0,0.0,0.0,0.0,0.0,0.0,0.0,0.0,0.0,0.0,0.0,0.0,0.0,0.0,0.0,0.0,0.0,0.0,0.0,0.0,0.0,0.0,0.0,0.0,0.0,0.0,0.0,0.0,0.0,0.0,0.0,0.0,0.0,0.0,0.0,0.0,0.0,0.0,0.0,0.0,0.0,0.0,0.0,0.0,0.0,0.0,0.0,0.0,0.0,0.0,0.0,0.0,0.0,0.0,0.0,0.0,0.0,0.0,0.0,0.0,0.0,0.0,0.0,0.0,0.0,0.0,0.0,0.0,0.0,0.0,0.0,0.0,0.0,0.0,0.0,0.0,0.0,0.0,0.0,0.0,0.0,0.0,0.0,0.0,0.0,0.0,0.0,0.0,0.0,0.0,0.0,0.0,0.0,-1.8173,-1.7673,-1.6674,-1.5723,-1.5294,-1.5294,-1.4562,-1.4048,-1.3919,0.0,0.0,0.0,0.0,0.0,0.0,0.0,0.0,0.0,0.0,0.0,0.0,0.0,0.0,0.0,0.0,0.0,0.0,0.0,0.0,0.0,0.0,0.0,0.0,0.0,0.0,0.0,0.0,0.0,0.0,0.0,0.0,0.0,0.0,0.0,0.0,0.0,0.0,-1.0019,-1.0019,0.0,0.0,0.0,0.0,0.0,0.0,0.0,0.0,-0.7566,0.0,0.0,0.0,0.0,0.0,0.0,0.0,0.0,0.0,0.0,0.0,0.0,0.0,0.0,0.0,0.0,0.0,0.0,0.0,0.0,0.0,0.0,0.0,0.0,0.0,0.0,0.0,0.0,0.0,0.0,0.0,0.0,0.0,0.0,0.0,0.0,0.0,0.0,0.0,0.0,0.0,0.0,0.0,0.0,0.0,0.0,0.0,0.0,0.0,0.0,0.0,0.0,0.0,0.0,0.0,0.0,-1.8462,-1.8034,-1.758,-1.7023,-1.6148,-1.5622,-1.5622,-1.4773,-1.4251,-1.4136,0.0,0.0,0.0,0.0,0.0,0.0,0.0,0.0,0.0,0.0,0.0,0.0,0.0,0.0,0.0,0.0,0.0,0.0,0.0,0.0,0.0,0.0,0.0,0.0,0.0,0.0,0.0,0.0,0.0,0.0,0.0,0.0,0.0,0.0,0.0,0.0,0.0,0.0,0.0,-1.0019,-0.9901,0.0,0.0,0.0,0.0,0.0,0.0,0.0,0.0,-0.7754,0.0,0.0,0.0,0.0,0.0,0.0,0.0,0.0,0.0,0.0,0.0,0.0,0.0,0.0,0.0,0.0,0.0,0.0,0.0,0.0,0.0,0.0,0.0,0.0,0.0,0.0,0.0,0.0,0.0,0.0,0.0,0.0,0.0,0.0,0.0,0.0,0.0,0.0,0.0,0.0,0.0,0.0,0.0,0.0,0.0,0.0,0.0,0.0,0.0,0.0,0.0,0.0,0.0,0.0,0.0,-1.8514,-1.7998,-1.7463,-1.6753,-1.6057,-1.5616,-1.5352,-1.4653,-1.4299,0.0,0.0,0.0,0.0,0.0,0.0,0.0,0.0,0.0,0.0,0.0,0.0,0.0,0.0,0.0,0.0,0.0,0.0,0.0,0.0,0.0,0.0,0.0,0.0,0.0,0.0,0.0,0.0,0.0,0.0,0.0,0.0,0.0,0.0,0.0,0.0,0.0,0.0,0.0,0.0,-0.9972,-0.9755,-0.9327,0.0,0.0,0.0,0.0,0.0,0.0,-0.7799,-0.7799,0.0,0.0,0.0,0.0,0.0,0.0,0.0,0.0,0.0,0.0,0.0,0.0,0.0,0.0,0.0,0.0,0.0,0.0,0.0,0.0,0.0,0.0,0.0,0.0,0.0,0.0,0.0,0.0,0.0,0.0,0.0,0.0,0.0,0.0,0.0,0.0,0.0,0.0,0.0,0.0,0.0,0.0,0.0,0.0,0.0,0.0,0.0,0.0,0.0,0.0,0.0,0.0,0.0,0.0,0.0,-1.8514,-1.7902,-1.7288,-1.6401,-1.5969,-1.544,-1.4999,-1.4557,-1.4299,0.0,0.0,0.0,0.0,0.0,0.0,0.0,0.0,0.0,0.0,0.0,0.0,0.0,0.0,0.0,0.0,0.0,0.0,0.0,0.0,0.0,0.0,0.0,0.0,0.0,0.0,0.0,0.0,0.0,0.0,0.0,0.0,0.0,0.0,0.0,0.0,0.0,0.0,0.0,0.0,0.0,-0.9587,-0.9197,-0.8716,0.0,0.0,0.0,0.0,-0.7852,-0.7852,0.0,0.0,0.0,0.0,0.0,0.0,0.0,0.0,0.0,0.0,0.0,0.0,0.0,0.0,0.0,0.0,0.0,0.0,0.0,0.0,0.0,0.0,0.0,0.0,0.0,0.0,0.0,0.0,0.0,0.0,0.0,0.0,0.0,0.0,0.0,0.0,0.0,0.0,0.0,0.0,0.0,0.0,0.0,0.0,0.0,0.0,0.0,0.0,0.0,0.0,0.0,0.0,0.0,0.0,0.0,0.0,-1.8427,-1.7639,-1.6936,-1.6401,-1.5961,-1.544,-1.4999,-1.4564,-1.4299,0.0,0.0,0.0,0.0,0.0,0.0,0.0,0.0,0.0,0.0,0.0,0.0,0.0,0.0,0.0,0.0,0.0,0.0,0.0,0.0,0.0,0.0,0.0,0.0,0.0,0.0,0.0,0.0,0.0,0.0,0.0,0.0,0.0,0.0,0.0,0.0,0.0,0.0,0.0,0.0,0.0,-0.9531,-0.9216,-0.882,-0.844,0.0,0.0,-0.8032,-0.8032,-0.8032,0.0,0.0,0.0,0.0,0.0,0.0,0.0,0.0,0.0,0.0,0.0,0.0,0.0,0.0,0.0,0.0,0.0,0.0,0.0,0.0,0.0,0.0,0.0,0.0,0.0,0.0,0.0,0.0,0.0,0.0,0.0,0.0,0.0,0.0,0.0,0.0,0.0,0.0,0.0,0.0,0.0,0.0,0.0,0.0,0.0,0.0,0.0,0.0,0.0,0.0,0.0,0.0,0.0,0.0,0.0,-1.8339,-1.8085,-1.7463,-1.6761,-1.6049,-1.5793,-1.5352,-1.4653,-1.4387,-1.4299,0.0,0.0,0.0,0.0,0.0,0.0,0.0,0.0,0.0,0.0,0.0,0.0,0.0,0.0,0.0,0.0,0.0,0.0,0.0,0.0,0.0,0.0,0.0,0.0,0.0,0.0,0.0,0.0,0.0,0.0,0.0,0.0,0.0,0.0,0.0,0.0,0.0,0.0,0.0,0.0,0.0,0.0,-0.8999,-0.8588,0.0,0.0,0.0,-0.806,-0.806,0.0,0.0,0.0,0.0,0.0,0.0,0.0,0.0,0.0,0.0,0.0,0.0,0.0,0.0,0.0,0.0,0.0,0.0,0.0,0.0,0.0,0.0,0.0,0.0,0.0,0.0,0.0,0.0,0.0,0.0,0.0,0.0,0.0,0.0,0.0,0.0,0.0,0.0,0.0,0.0,0.0,0.0,0.0,0.0,0.0,0.0,0.0,0.0,0.0,0.0,0.0,0.0,0.0,0.0,0.0,0.0,0.0,-1.7822,-1.72,-1.6497,-1.5704,-1.5616,-1.5183,-1.4299,-1.4299,0.0,0.0,0.0,0.0,0.0,0.0,0.0,0.0,0.0,0.0,0.0,0.0,0.0,0.0,0.0,0.0,0.0,0.0,0.0,0.0,0.0,0.0,0.0,0.0,0.0,0.0,0.0,-1.0476,0.0,0.0,0.0,0.0,0.0,0.0,0.0,0.0,0.0,0.0,0.0,0.0,0.0,0.0,-0.924,-0.8738,-0.8399,-0.8156,0.0,0.0,-0.8105,-0.8125,-0.813,-0.813,0.0,0.0,0.0,0.0,0.0,0.0,0.0,0.0,0.0,0.0,0.0,0.0,0.0,0.0,0.0,0.0,0.0,0.0,0.0,0.0,0.0,0.0,0.0,0.0,0.0,0.0,0.0,0.0,0.0,0.0,0.0,0.0,0.0,0.0,0.0,0.0,0.0,0.0,0.0,0.0,0.0,0.0,0.0,0.0,0.0,0.0,0.0,0.0,0.0,0.0,0.0,0.0,0.0,0.0,0.0,-1.7822,-1.6928,-1.6233,-1.5712,-1.5264,-1.4822,-1.4299,-1.4299,-1.4299,0.0,0.0,0.0,0.0,0.0,0.0,0.0,0.0,0.0,0.0,0.0,0.0,0.0,0.0,0.0,0.0,0.0,0.0,0.0,0.0,0.0,0.0,0.0,0.0,0.0,0.0,0.0,0.0,0.0,0.0,0.0,0.0,0.0,0.0,0.0,0.0,0.0,0.0,0.0,0.0,0.0,-0.924,-0.8738,-0.8399,-0.8093,0.0,0.0,-0.8219,-0.8301,-0.8313,-0.8317,-0.8317,0.0,0.0,0.0,0.0,0.0,0.0,0.0,0.0,0.0,0.0,0.0,0.0,0.0,0.0,0.0,0.0,0.0,0.0,0.0,0.0,0.0,0.0,0.0,0.0,0.0,0.0,0.0,0.0,0.0,0.0,0.0,0.0,0.0,0.0,0.0,0.0,0.0,0.0,0.0,0.0,0.0,0.0,0.0,0.0,0.0,0.0,0.0,0.0,0.0,0.0,0.0,0.0,0.0,-1.8161,-1.7705,-1.7079,-1.6451,-1.6003,-1.5553,-1.5021,-1.457,-1.457,-1.457,0.0,0.0,0.0,0.0,0.0,0.0,0.0,0.0,0.0,0.0,0.0,0.0,0.0,0.0,0.0,0.0,0.0,0.0,0.0,0.0,0.0,0.0,0.0,0.0,0.0,0.0,0.0,0.0,-1.078,-1.0737,-1.0737,0.0,0.0,0.0,0.0,0.0,0.0,0.0,0.0,0.0,0.0,-0.8929,-0.8479,-0.8317,0.0,0.0,-0.8285,-0.8293,-0.833,-0.8334,-0.8334,-0.8334,-0.8334,0.0,0.0,0.0,0.0,0.0,0.0,0.0,0.0,0.0,0.0,0.0,0.0,0.0,0.0,0.0,0.0,0.0,0.0,0.0,0.0,0.0,0.0,0.0,0.0,0.0,0.0,0.0,0.0,0.0,0.0,0.0,0.0,0.0,0.0,0.0,0.0,0.0,0.0,0.0,0.0,0.0,0.0,0.0,0.0,0.0,0.0,0.0,0.0,0.0,0.0,0.0,0.0,-1.8101,-1.764,-1.7014,-1.656,-1.6189,-1.556,-1.5013,-1.474,-1.474,-1.474,0.0,0.0,0.0,0.0,0.0,0.0,0.0,0.0,0.0,0.0,0.0,0.0,0.0,0.0,0.0,0.0,0.0,0.0,0.0,0.0,0.0,0.0,0.0,0.0,0.0,0.0,0.0,0.0,-1.0873,-1.0846,-1.0846,0.0,0.0,0.0,0.0,0.0,0.0,0.0,0.0,0.0,0.0,-0.8774,-0.8326,-0.8334,-0.8259,-0.837,-0.8375,-0.8383,-0.8411,-0.8419,-0.8415,-0.8415,0.0,0.0,0.0,0.0,0.0,0.0,0.0,0.0,0.0,0.0,0.0,0.0,0.0,0.0,0.0,0.0,0.0,0.0,0.0,0.0,0.0,0.0,0.0,0.0,0.0,0.0,0.0,0.0,0.0,0.0,-2.2697,0.0,0.0,0.0,0.0,0.0,0.0,0.0,0.0,0.0,0.0,0.0,0.0,0.0,0.0,0.0,0.0,0.0,0.0,0.0,0.0,0.0,0.0,-1.8109,-1.7558,-1.6658,-1.6204,-1.6204,-1.5195,-1.4753,-1.4746,-1.4746,-1.474,-1.4649,0.0,0.0,0.0,0.0,0.0,0.0,0.0,0.0,0.0,0.0,0.0,0.0,0.0,0.0,0.0,0.0,0.0,0.0,0.0,0.0,0.0,0.0,0.0,0.0,0.0,0.0,-1.0922,-1.1025,-1.109,0.0,0.0,0.0,0.0,0.0,0.0,0.0,0.0,0.0,0.0,-0.928,-0.8848,-0.8338,-0.8338,-0.8375,-0.8456,-0.8468,-0.8497,-0.8583,-0.8599,-0.8603,0.0,0.0,0.0,0.0,0.0,0.0,0.0,0.0,0.0,0.0,0.0,0.0,0.0,0.0,0.0,0.0,0.0,0.0,0.0,0.0,0.0,0.0,0.0,0.0,0.0,0.0,0.0,-2.3235,-2.316,0.0,0.0,0.0,0.0,0.0,0.0,0.0,0.0,0.0,0.0,0.0,-2.1056,-2.0686,0.0,0.0,0.0,0.0,0.0,0.0,0.0,0.0,0.0,0.0,0.0,0.0,-1.8182,-1.7997,-1.7073,-1.6517,-1.6517,-1.5496,-1.5031,-1.5031,-1.5031,-1.4712,-1.3875,0.0,0.0,0.0,0.0,0.0,0.0,0.0,0.0,0.0,0.0,0.0,0.0,0.0,0.0,0.0,0.0,0.0,0.0,0.0,0.0,0.0,0.0,0.0,0.0,0.0,-1.1123,0.0,0.0,0.0,0.0,0.0,0.0,0.0,0.0,0.0,0.0,0.0,-0.974,-0.9371,-0.8948,-0.8623,-0.8509,-0.8517,-0.853,0.0,0.0,0.0,0.0,0.0,0.0,0.0,0.0,0.0,0.0,0.0,0.0,0.0,0.0,-0.8477,-0.8354,-0.7641,-0.7122,-0.6949,0.0,0.0,0.0,0.0,0.0,0.0,0.0,0.0,0.0,0.0,0.0,0.0,0.0,0.0,-2.3472,0.0,-2.3397,0.0,0.0,0.0,0.0,0.0,0.0,0.0,0.0,-2.223,-2.1721,-2.11,-2.0815,-2.0828,0.0,-2.096,-2.0885,0.0,0.0,0.0,0.0,0.0,0.0,0.0,0.0,-1.8176,-1.8176,-1.7242,-1.6673,-1.6673,-1.5744,-1.5181,-1.5181,-1.4993,-1.4477,-1.3554,-1.3361,-1.2859,0.0,0.0,0.0,0.0,0.0,0.0,0.0,0.0,0.0,0.0,0.0,0.0,0.0,0.0,0.0,0.0,0.0,0.0,0.0,0.0,0.0,0.0,0.0,-1.1259,0.0,0.0,0.0,0.0,0.0,0.0,0.0,0.0,0.0,-1.0631,-1.0088,-0.9674,-0.9215,-0.8783,-0.8542,-0.8599,0.0,0.0,0.0,0.0,0.0,0.0,0.0,-0.8701,-0.8701,-0.8697,-0.8701,-0.8701,-0.8697,-0.8701,-0.8701,0.0,0.0,-0.8193,-0.7549,-0.6939,-0.6761,-0.6147,-0.5621,-0.5621,-0.5621,-0.5621,0.0,0.0,0.0,0.0,0.0,0.0,0.0,0.0,-2.3752,-2.3634,0.0,-2.344,0.0,0.0,0.0,0.0,0.0,-2.3429,0.0,0.0,-2.2212,-2.1758,-2.0866,-2.1064,-2.1168,-2.1168,-2.1168,-2.1159,-2.1159,-2.1159,0.0,0.0,0.0,0.0,0.0,0.0,-1.8176,-1.8176,-1.7242,-1.6673,-1.6681,-1.5744,-1.5181,-1.5181,-1.4704,-1.4146,-1.3682,-1.3205,-1.2739,-1.2261,-1.2167,0.0,0.0,0.0,0.0,0.0,0.0,0.0,0.0,0.0,0.0,0.0,0.0,0.0,0.0,0.0,0.0,0.0,0.0,0.0,0.0,-1.1275,0.0,0.0,0.0,0.0,0.0,0.0,0.0,0.0,0.0,0.0,-1.0753,-1.0303,-0.9857,-0.9322,0.0,0.0,0.0,0.0,-0.8738,-0.8738,-0.8811,-0.8869,-0.8869,-0.8869,-0.8869,-0.8869,0.0,0.0,-0.8869,-0.8869,-0.8864,-0.8869,-0.8795,-0.8529,-0.8001,-0.7527,-0.7077,-0.6627,-0.6088,-0.5739,-0.5739,-0.5728,-0.573,-2.4118,0.0,0.0,0.0,0.0,-2.4118,-2.4075,-2.4011,-2.4011,-2.3978,-2.3914,-2.3914,0.0,0.0,0.0,0.0,0.0,0.0,-2.3083,-2.2455,-2.2148,-2.1718,-2.1074,-2.114,-2.1168,-2.1168,-2.1168,-2.1168,-2.1168,-2.1168,-2.1168,-2.1168,0.0,0.0,0.0,0.0,-1.8176,-1.8176,-1.7242,-1.6673,-1.6673,-1.5744,-1.5181,-1.5181,-1.4711,-1.4146,-1.3688,-1.3211,-1.2644,-1.2267,-1.2172,0.0,0.0,0.0,0.0,0.0,0.0,0.0,0.0,0.0,0.0,0.0,0.0,0.0,0.0,0.0,0.0,0.0,0.0,0.0,-1.1406,-1.1489,-1.1505,0.0,0.0,0.0,0.0,0.0,0.0,0.0,0.0,0.0,-1.0522,-1.0278,-0.9784,0.0,0.0,-0.8795,-0.8795,-0.8815,-0.8832,-0.8832,-0.8852,0.0,0.0,-0.8873,-0.8873,-0.8873,-0.8873,-0.8873,-0.8873,-0.8873,-0.8873,-0.8873,-0.8577,-0.8091,-0.7604,-0.7332,-0.7091,-0.6544,-0.6097,-0.5741,-0.5741,-0.5741,-0.5741,-2.4387,-2.4377,-2.4194,-2.4118,-2.4118,-2.4118,-2.4118,-2.4118,-2.4118,-2.4118,-2.4118,-2.4118,-2.4118,-2.4118,-2.4118,0.0,0.0,0.0,-2.3097,-2.2544,-2.2083,-2.1631,-2.1261,-2.1168,-2.1168,-2.1168,-2.1168,-2.1168,-2.1168,-2.1168,-2.1168,-2.1168,0.0,0.0,-1.9674,-1.8735,-1.8176,-1.8176,-1.7242,-1.6673,-1.6673,-1.5744,-1.5181,-1.5181,-1.4523,-1.3964,-1.3682,-1.3022,-1.2456,-1.2172,-1.2172,-1.2172,0.0,0.0,0.0,0.0,0.0,0.0,0.0,0.0,0.0,0.0,0.0,-1.1677,-1.1607,0.0,0.0,0.0,-1.1601,-1.1596,-1.1601,-1.1601,0.0,0.0,0.0,0.0,0.0,0.0,0.0,-1.1813,-1.1819,-1.1538,-1.0707,-1.0417,-0.9931,-0.8886,-0.8836,-0.8873,-0.8873,0.0,-0.8926,-0.8926,-0.8954,-0.8979,-0.8979,-0.8979,-0.8979,-0.8979,-0.8979,-0.8979,-0.8979,-0.8979,-0.8979,-0.8886,-0.8486,-0.7999,-0.7532,-0.716,-0.6809,-0.6356,-0.5993,-0.5812,-0.5812,-0.5724,-0.5812,-2.4797,-2.4764,-2.4344,-2.4161,-2.414,-2.4118,-2.4118,-2.4118,-2.4118,-2.4118,-2.4118,-2.4118,-2.4118,-2.4118,-2.4118,0.0,-2.4118,-2.3567,-2.3097,-2.2544,-2.2093,-2.1631,-2.1168,-2.1168,-2.1168,-2.1168,-2.1168,-2.1168,-2.1168,-2.1187,-2.1187,-2.1196,-2.0268,-1.9701,-1.9674,-1.8752,-1.82,-1.82,-1.7273,-1.6718,-1.6624,-1.5685,-1.5208,-1.5107,-1.426,-1.3694,-1.3594,-1.2739,-1.2172,-1.2172,-1.2172,-1.2172,-1.2172,0.0,0.0,0.0,0.0,0.0,0.0,0.0,0.0,0.0,0.0,0.0,0.0,0.0,0.0,0.0,-1.1819,0.0,-1.1819,-1.1819,0.0,0.0,0.0,-1.1824,-1.1835,-1.1835,-1.1841,-1.1846,0.0,0.0,-1.1192,-1.0728,-1.0101,-0.909,-0.8985,-0.8893,-0.8893,-0.8967,-0.902,-0.902,-0.9085,-0.9047,-0.9126,-0.9035,-0.9126,-0.9126,-0.9051,-0.9134,-0.9134,-0.9134,-0.9138,-0.9134,-0.8606,-0.7989,-0.7611,-0.6994,-0.6398,-0.6027,-0.5927,-0.5918,-0.5913,-0.5913,-0.591,-2.4797,-2.4797,-2.4689,-2.4538,-2.4366,-2.4183,-2.4118,-2.4118,-2.4118,-2.4118,-2.4118,-2.4118,-2.4118,-2.4118,-2.4118,-2.4118,-2.4026,-2.3199,-2.2729,-2.2544,-2.1723,-2.1261,-2.1168,-2.1168,-2.1168,-2.1168,-2.1168,-2.1168,-2.1178,-2.1329,-2.1395,-2.1404,-2.0508,-1.9964,-1.9683,-1.8878,-1.8387,-1.8387,-1.7573,-1.6678,-1.5918,-1.5629,-1.5281,-1.4787,-1.4209,-1.3596,-1.3122,-1.255,-1.2172,-1.2172,-1.2172,-1.2172,-1.2172,-1.2172,0.0,0.0,0.0,0.0,0.0,0.0,0.0,0.0,0.0,-1.1911,-1.1824,0.0,-1.1819,0.0,-1.1819,-1.1819,-1.1819,-1.1819,0.0,0.0,-1.1819,-1.1851,-1.1938,-1.1949,-1.1982,-1.2074,-1.2085,-1.1898,-1.1423,-1.0884,-1.0423,-0.974,-0.9265,-0.9077,-0.9081,-0.9093,-0.9109,-0.9109,-0.9126,-0.9051,-0.9051,-0.9051,-0.9051,-0.9051,-0.9051,-0.9051,-0.9051,-0.9051,-0.9051,-0.9047,-0.8368,-0.7785,-0.7592,-0.6822,-0.6244,-0.6049,-0.5987,-0.5921,-0.5921,-0.5924,-0.5924,-2.512,-2.5109,-2.5012,-2.4893,-2.4764,-2.4527,-2.442,-2.442,-2.442,-2.4366,-2.4269,-2.4161,-2.4118,-2.4118,-2.4118,-2.4118,-2.4026,-2.3015,-2.2637,-2.2544,-2.1631,-2.1168,-2.1168,-2.1168,-2.1215,-2.13,-2.13,-2.1348,-2.1452,-2.1556,-2.1612,-2.1612,-2.067,-2.014,-1.9938,-1.8992,-1.8574,-1.8574,-1.7712,-1.6698,-1.5635,-1.5635,-1.5408,-1.5129,-1.4354,-1.3806,-1.3394,-1.2628,-1.2227,-1.2178,-1.2172,-1.2172,-1.2172,-1.2172,-1.2172,0.0,0.0,0.0,0.0,0.0,0.0,0.0,0.0,0.0,0.0,0.0,-1.1976,-1.1976,-1.1976,-1.1976,-1.1976,-1.1976,-1.1976,-1.1976,-1.1976,-1.2004,-1.2063,-1.2069,-1.2096,-1.2161,-1.2172,-1.2078,-1.1794,-1.1132,-1.0564,-1.028,-0.9616,-0.9051,-0.9051,-0.9051,-0.9051,-0.9051,-0.9051,-0.9051,-0.9051,-0.9051,-0.9051,-0.9051,-0.9051,-0.9051,-0.9051,-0.9051,-0.9047,-0.8763,-0.8094,-0.7528,-0.7338,-0.6669,-0.6098,-0.609,-0.6046,-0.6006,-0.6,-0.6,-0.6,-2.5518,-2.5507,-2.5303,-2.5216,-2.5206,-2.498,-2.4861,-2.4797,-2.4797,-2.4689,-2.4495,-2.429,-2.4183,-2.4161,-2.4161,-2.414,-2.4026,-2.3097,-2.2657,-2.2585,-2.1762,-2.1318,-2.1253,-2.1244,-2.1338,-2.1508,-2.1508,-2.1603,-2.1792,-2.182,-2.183,-2.183,-2.0786,-2.0316,-2.022,-1.9267,-1.8697,-1.86,-1.7731,-1.6763,-1.5696,-1.5696,-1.5592,-1.5475,-1.4595,-1.4042,-1.3812,-1.2949,-1.2324,-1.2205,-1.2194,-1.2188,-1.2172,-1.2172,-1.2172,0.0,-1.2172,0.0,0.0,0.0,0.0,0.0,0.0,0.0,0.0,-1.2172,-1.2172,-1.2172,-1.2172,-1.2172,-1.2172,-1.2172,-1.2172,-1.2172,-1.2172,-1.2172,-1.2172,-1.2172,-1.2172,-1.2172,-1.2172,-1.2172,-1.2172,-1.1321,-1.0753,-1.0659,-0.9806,-0.9237,-0.9146,-0.9051,-0.9051,-0.9051,-0.9154,-0.9171,-0.9175,-0.9179,-0.9187,-0.9183,-0.9191,-0.9175,-0.9187,-0.9187,-0.8992,-0.8512,-0.8039,-0.7466,-0.6985,-0.6508,-0.6123,-0.6131,-0.6125,-0.6115,-0.6093,-0.6087,-0.6098,-2.5518,-2.5518,-2.5475,-2.5453,-2.5453,-2.5399,-2.5163,-2.4807,-2.4797,-2.4786,-2.4732,-2.4689,-2.457,-2.4398,-2.4398,-2.429,-2.4026,-2.3475,-2.3097,-2.2806,-2.2246,-2.1885,-2.1669,-2.1678,-2.1697,-2.1735,-2.1726,-2.1754,-2.1792,-2.1952,-2.2038,-2.2038,-2.1128,-2.0711,-2.0613,0.0,0.0,0.0,-1.7674,-1.7082,-1.6094,-1.6001,-1.5736,-1.5224,-1.4636,0.0,-1.3371,-1.2789,-1.2444,-1.233,-1.2415,0.0,0.0,0.0,0.0,0.0,0.0,0.0,0.0,0.0,0.0,0.0,-1.2172,-1.2172,-1.2172,-1.2172,-1.2172,-1.2172,-1.2172,-1.2172,-1.2172,-1.2172,-1.2172,-1.2172,-1.2172,-1.2172,-1.2172,-1.2172,-1.2172,-1.2172,-1.2172,-1.2172,-1.2178,-1.17,-1.1132,-1.0763,-1.0185,-0.9616,-0.915,-0.915,-0.9051,-0.9146,-0.9212,-0.9252,-0.9256,-0.931,-0.9338,-0.9359,-0.9359,-0.9354,-0.9346,-0.935,-0.916,-0.8574,-0.8095,-0.7605,-0.7018,-0.6635,-0.6237,-0.6243,-0.6243,-0.6215,-0.612,-0.6098,-0.6098,-2.5518,0.0,-2.5518,-2.5518,0.0,-2.5518,-2.5378,-2.5152,-2.5152,-2.5098,-2.498,-2.4861,-2.4732,-2.4624,-2.4635,-2.457,-2.4452,-2.3987,-2.3489,-2.3122,-2.2651,-2.2152,-2.1792,-2.1792,-2.1839,-2.1943,-2.1943,-2.199,-2.2085,-2.2189,-2.2236,-2.2245,-2.1263,-2.0826,-2.0727,-1.9849,-1.8762,-1.7672,-1.7672,-1.7176,-1.6182,-1.6083,-1.5943,-1.5572,0.0,0.0,0.0,0.0,0.0,0.0,0.0,0.0,0.0,0.0,0.0,-1.2172,-1.2172,-1.2172,-1.2172,-1.2172,-1.2172,-1.2172,-1.2172,-1.2172,-1.2172,-1.2172,-1.2172,-1.2172,-1.2172,-1.2172,-1.2172,-1.2172,-1.2172,-1.2172,-1.2172,-1.2172,-1.2172,-1.2172,-1.2172,-1.2172,-1.2172,-1.2188,-1.2254,-1.1878,-1.1332,-1.0898,-1.0427,-0.9846,-0.9365,-0.9236,-0.9224,-0.9265,-0.931,-0.9342,-0.9346,-0.9375,-0.9408,-0.9408,-0.9408,-0.9408,-0.9408,-0.9212,-0.8822,-0.8337,-0.7746,-0.7257,-0.6768,-0.6474,-0.6278,-0.6278,-0.6278,-0.6264,-0.6199,-0.6188,-0.6188,-2.5583,-2.5572,-2.5539,-2.5518,-2.5518,-2.5518,-2.5518,-2.5518,0.0,0.0,0.0,-2.5023,-2.4904,-2.4872,-2.4872,-2.484,-2.4807,-2.443,-2.3872,-2.3344,-2.2974,-2.2422,-2.1896,-2.1896,-2.1981,-2.2141,-2.2141,-2.2227,-2.2387,-2.2387,-2.2387,-2.2289,-2.1317,-2.0727,-2.053,-1.975,-1.8861,-1.787,-1.7771,-1.7176,-1.6182,-1.6083,-1.6083,-1.6083,-1.5578,-1.503,-1.4521,-1.3923,-1.3372,-1.2862,-1.2665,-1.2598,-1.2576,-1.2387,-1.2227,-1.2205,-1.2205,-1.2194,-1.2172,-1.2172,-1.2183,-1.2205,-1.2221,-1.2216,-1.2178,-1.2172,-1.2172,-1.2172,-1.2172,-1.2172,-1.2172,-1.2194,-1.2205,-1.2205,-1.2221,-1.2243,-1.2237,-1.2237,-1.2248,-1.2237,-1.2248,-1.2275,-1.2373,-1.2,-1.1549,-1.1042,-1.0657,-1.0099,-0.9611,-0.9354,-0.9322,-0.9379,-0.9412,-0.9432,-0.9432,-0.9457,-0.9452,-0.9473,-0.9465,-0.9457,-0.9358,-0.9064,-0.8475,-0.7997,-0.7393,-0.6904,-0.651,-0.6319,-0.6311,-0.6311,-0.6311,-0.6311,-0.6313,-0.6313,-0.6303,-2.5819,-2.5798,-2.5604,-2.5518,-2.5518,-2.5518,-2.5518,-2.5518,-2.5518,-2.5507,-2.5464,-2.5432,-2.5313,-2.512,-2.513,-2.5012,-2.4807,-2.4713,-2.4251,-2.3577,-2.3481,-2.3002,-2.2302,-2.2302,-2.2321,-2.234,-2.2349,-2.2359,-2.2387,-2.2387,-2.2387,-2.2289,-2.1308,-2.0333,-1.9553,-1.9355,-1.896,-1.8358,-1.797,-1.7176,-1.6182,-1.6083,-1.6083,-1.6083,-1.5578,-1.5273,-1.5155,-1.4651,-1.4292,-1.4072,-1.3649,-1.3297,-1.3189,-1.2778,-1.2439,-1.2341,-1.233,-1.2281,-1.2178,-1.2172,-1.2216,-1.2324,-1.2428,-1.2401,-1.2194,-1.2172,-1.2172,-1.2172,-1.2183,-1.2172,-1.2178,-1.227,-1.233,-1.2335,-1.2422,-1.2482,-1.2471,-1.2471,-1.2466,-1.2466,-1.2487,-1.2477,-1.2504,-1.2412,-1.2029,-1.126,-1.0806,-1.0517,-0.969,-0.9444,-0.9399,-0.9416,-0.9473,-0.9518,-0.953,-0.9591,-0.962,-0.964,-0.9632,-0.962,-0.962,-0.9121,-0.8621,-0.8131,-0.7521,-0.7026,-0.6528,-0.6436,-0.6425,-0.6422,-0.642,-0.6425,-0.6422,-0.6422,-0.6398,-2.6067,-2.6035,-2.5809,-2.5712,-2.5701,-2.5572,-2.5518,-2.5518,-2.5518,-2.5518,-2.5518,-2.5518,-2.5464,-2.5367,-2.5356,-2.5303,-2.5195,-2.5195,-2.4672,-2.3799,-2.3809,-2.3277,-2.2476,-2.2387,-2.2387,-2.2387,-2.2387,-2.2387,-2.2387,-2.2387,-2.2387,-2.2289,-2.1308,-2.0333,-1.9355,-1.9264,-1.9058,-1.8556,-1.7962,-1.7268,-1.6573,-1.6282,-1.6083,-1.6076,-1.5877,-1.5578,-1.528,-1.5081,-1.475,-1.4391,-1.4126,-1.3863,-1.3804,-1.3246,-1.2892,-1.2836,-1.2643,-1.2428,-1.2373,-1.2368,-1.2395,-1.2449,-1.2504,-1.2493,-1.2379,-1.2368,-1.2368,-1.2368,-1.2368,-1.2368,-1.2368,-1.2422,-1.2455,-1.2449,-1.2504,-1.2536,-1.2536,-1.2536,-1.2536,-1.2536,-1.2536,-1.2558,-1.2618,-1.2629,-1.2263,-1.1318,-1.0744,-1.0167,-0.9711,-0.9583,-0.9555,-0.9559,-0.9591,-0.9612,-0.962,-0.9648,-0.9677,-0.9681,-0.9681,-0.9681,-0.9681,-0.9074,-0.8471,-0.8069,-0.7465,-0.6864,-0.6561,-0.6461,-0.6463,-0.6463,-0.6463,-0.6463,-0.6463,-0.6463,-0.6439,-2.6415,-2.6293,-2.6046,-2.5916,-2.5852,-2.5679,-2.5572,-2.5518,-2.5518,-2.5518,-2.5518,-2.5518,-2.5518,-2.5518,-2.5518,-2.5518,-2.5518,-2.5518,-2.5022,-2.4253,-2.4058,-2.3463,-2.2583,-2.2485,-2.2387,-2.2387,-2.2387,-2.2387,-2.2387,-2.2387,-2.2289,-2.1995,-2.1219,-2.0333,-1.9264,-1.9264,-1.9058,-1.8655,-1.8061,-1.7474,-1.6871,-1.6374,-1.6083,-1.6083,-1.6083,-1.5877,-1.5479,-1.5479,-1.528,-1.4875,-1.4682,-1.4527,-1.4521,-1.3932,-1.347,-1.3355,-1.2959,-1.2661,-1.2542,-1.2558,-1.2574,-1.2574,-1.2602,-1.2613,-1.2613,-1.2618,-1.2591,-1.2547,-1.2526,-1.2531,-1.2531,-1.2558,-1.2574,-1.2574,-1.2602,-1.2629,-1.2618,-1.2613,-1.2618,-1.2613,-1.2613,-1.2656,-1.2721,-1.2748,-1.2384,-1.1354,-1.0384,-0.9782,-0.9681,-0.9681,-0.9681,-0.9681,-0.9681,-0.9677,-0.9681,-0.9681,-0.9681,-0.9681,-0.9681,-0.9681,-0.9581,-0.8773,-0.8166,-0.7968,-0.7264,-0.6662,-0.6561,-0.6463,-0.6463,-0.6463,-0.6463,-0.6463,-0.6463,-0.6463,-0.6461,-2.6955,-2.6519,-2.6293,-2.6067,-2.5873,-2.5841,-2.5712,-2.5539,-2.5518,-2.5518,-2.5518,-2.5518,-2.5518,-2.5518,-2.5518,-2.5518,-2.5518,-2.5518,-2.5227,-2.4643,-2.4156,-2.3668,-2.3072,-2.2583,-2.2387,-2.2387,-2.2387,-2.2387,-2.2387,-2.2387,-2.1897,-2.1013,-2.0826,-2.0333,-1.9454,-1.9256,-1.9256,-1.9157,-1.8267,-1.7466,-1.6864,-1.6374,-1.6083,-1.6083,-1.6083,-1.6083,-1.5983,-1.5983,-1.5983,-1.5884,-1.5466,-1.5155,-1.5155,-1.4645,-1.4087,-1.3586,-1.3476,-1.3136,-1.2558,-1.2634,-1.2689,-1.2694,-1.2786,-1.2841,-1.2846,-1.2846,-1.2759,-1.2607,-1.2547,-1.2553,-1.2542,-1.2629,-1.2689,-1.2694,-1.2776,-1.2852,-1.2841,-1.2857,-1.2857,-1.2857,-1.283,-1.2857,-1.2852,-1.2757,-1.2368,-1.1478,-1.0384,-0.9681,-0.9681,-0.9681,-0.9681,-0.9681,-0.9681,-0.9681,-0.9681,-0.9681,-0.9681,-0.9681,-0.9681,-0.9681,-0.948,-0.8873,-0.8065,-0.7965,-0.7264,-0.6561,-0.6463,-0.6463,-0.6463,-0.6463,-0.6463,-0.6463,-0.6463,-0.6463,-0.6463,-2.7501,-2.7276,-2.6642,-2.6304,-2.6089,-2.5938,-2.5809,-2.5723,-2.5572,-2.5518,-2.5518,-2.5518,-2.5518,-2.5518,-2.5518,-2.5518,-2.5518,-2.5518,-2.5227,-2.473,-2.4253,-2.3766,-2.318,-2.2681,-2.2387,-2.2387,-2.2387,-2.2387,-2.2387,-2.2387,-2.1995,-2.1308,-2.1013,-2.0432,-1.9742,-1.9454,-1.9264,-1.9256,-1.8267,-1.7573,-1.7268,-1.658,-1.6083,-1.6083,-1.6083,-1.6083,-1.6083,-1.6083,-1.6083,-1.6083,-1.5877,-1.5784,-1.5778,-1.528,-1.4856,-1.4601,-1.4298,-1.3982,-1.3731,-1.3481,-1.3311,-1.3311,-1.3057,-1.289,-1.289,-1.289,-1.2841,-1.277,-1.2743,-1.2743,-1.2743,-1.2786,-1.2814,-1.2819,-1.2863,-1.289,-1.289,-1.289,-1.289,-1.289,-1.289,-1.289,-1.279,-1.2389,-1.1783,-1.1282,-1.038,-0.9782,-0.9681,-0.9681,-0.9681,-0.9681,-0.9681,-0.9681,-0.9681,-0.9681,-0.9681,-0.9681,-0.9681,-0.9681,-0.9581,-0.8773,-0.8065,-0.8065,-0.7163,-0.6561,-0.6463,-0.6463,-0.6463,-0.6463,-0.6463,-0.6463,-0.6463,-0.6463,-0.6463,-2.8065,-2.7736,-2.696,-2.6552,-2.6315,-2.6142,-2.5992,-2.5852,-2.569,-2.5583,-2.5518,-2.5518,-2.5518,-2.5518,-2.5518,-2.5518,-2.5518,-2.5518,-2.5324,-2.4838,-2.4253,-2.3766,-2.3375,-2.2681,-2.2387,-2.2387,-2.2387,-2.2387,-2.2387,-2.2387,-2.2093,-2.1603,-2.1022,-2.053,-2.0038,-1.9553,-1.9264,-1.9256,-1.8366,-1.787,-1.7573,-1.6772,-1.6282,-1.6083,-1.6083,-1.6083,-1.6083,-1.6083,-1.6083,-1.6083,-1.6083,-1.6083,-1.6083,-1.5685,-1.5479,-1.528,-1.4775,-1.4476,-1.4476,-1.4183,-1.3884,-1.3889,-1.339,-1.309,-1.309,-1.299,-1.289,-1.2884,-1.289,-1.2879,-1.289,-1.289,-1.289,-1.289,-1.289,-1.289,-1.289,-1.289,-1.289,-1.289,-1.289,-1.289,-1.279,-1.2089,-1.1282,-1.1182,-1.0384,-0.9681,-0.9681,-0.9681,-0.9681,-0.9681,-0.9681,-0.9681,-0.9681,-0.9681,-0.9681,-0.9681,-0.9681,-0.9681,-0.9581,-0.8773,-0.8065,-0.7965,-0.7062,-0.6561,-0.6561,-0.6463,-0.6463,-0.6463,-0.6463,-0.6463,-0.6463,-0.6463,-0.6463,-2.8677,-2.7758,-2.7133,-2.6788,-2.6562,-2.6541,-2.6282,-2.5916,-2.5852,-2.5733,-2.555,-2.5518,-2.5518,-2.5518,-2.5518,-2.5518,-2.5518,-2.5518,-2.5518,-2.5324,-2.4448,-2.3951,-2.3853,-2.2877,-2.2387,-2.2387,-2.2387,-2.2387,-2.2387,-2.2387,-2.2103,-2.1612,-2.1112,-2.053,-2.0038,-1.9553,-1.9363,-1.9264,-1.8762,-1.816,-1.7672,-1.7169,-1.6573,-1.6182,-1.6083,-1.6083,-1.6083,-1.6083,-1.6083,-1.6083,-1.6083,-1.6083,-1.6083,-1.6083,-1.5778,-1.5379,-1.4881,-1.4576,-1.4576,-1.4476,-1.4476,-1.4377,-1.3983,-1.369,-1.359,-1.319,-1.299,-1.289,-1.289,-1.289,-1.289,-1.289,-1.289,-1.289,-1.289,-1.289,-1.289,-1.289,-1.289,-1.289,-1.289,-1.289,-1.289,-1.1989,-1.1383,-1.1082,-1.0384,-0.9681,-0.9681,-0.9681,-0.9681,-0.9681,-0.9681,-0.9681,-0.9681,-0.9681,-0.9681,-0.9681,-0.9681,-0.9681,-0.9376,-0.8974,-0.8471,-0.7867,-0.7062,-0.6561,-0.6561,-0.6463,-0.6463,-0.6463,-0.6463,-0.6463,-0.6463,-0.6463,-0.6463,-2.8982,-2.8269,-2.7656,-2.7396,-2.7309,-2.6851,-2.6476,-2.6304,-2.5992,-2.5819,-2.5723,-2.5583,-2.5518,-2.5518,-2.5518,-2.5518,-2.5518,-2.5518,-2.5518,-2.5421,-2.473,-2.4253,-2.3961,-2.3268,-2.2681,-2.2387,-2.2387,-2.2387,-2.2387,-2.2387,-2.2289,-2.2093,-2.1612,-2.1022,-2.053,-2.0038,-1.9651,-1.9256,-1.8762,-1.8259,-1.768,-1.7169,-1.6672,-1.6182,-1.6083,-1.6083,-1.6083,-1.6083,-1.6083,-1.6083,-1.6083,-1.6083,-1.6083,-1.6083,-1.5983,-1.5784,-1.5578,-1.5578,-1.5479,-1.518,-1.4981,-1.4981,-1.4482,-1.4083,-1.379,-1.349,-1.329,-1.299,-1.289,-1.289,-1.289,-1.289,-1.289,-1.289,-1.289,-1.289,-1.289,-1.289,-1.289,-1.289,-1.289,-1.289,-1.269,-1.1989,-1.1282,-1.1182,-1.0384,-0.9782,-0.9681,-0.9681,-0.9681,-0.9681,-0.9681,-0.9681,-0.9681,-0.9681,-0.9681,-0.9681,-0.9681,-0.9681,-0.948,-0.8773,-0.8166,-0.7965,-0.7163,-0.6561,-0.6463,-0.6463,-0.6463,-0.6463,-0.6463,-0.6463,-0.6463,-0.6463,-0.6463,-2.9186,-2.8779,-2.8269,-2.8076,-2.794,-2.7276,-2.6952,-2.6764,-2.6339,-2.6056,-2.597,-2.5819,-2.5744,-2.5744,-2.5755,-2.5755,-2.5723,-2.5593,-2.5518,-2.5421,-2.4935,-2.4438,-2.3961,-2.3473,-2.2886,-2.2485,-2.2387,-2.2387,-2.2387,-2.2387,-2.2387,-2.2387,-2.1906,-2.1344,-2.0905,-2.0329,-1.9858,-1.941,-1.9128,-1.8628,-1.8121,-1.7621,-1.7028,-1.6627,-1.6326,-1.6171,-1.609,-1.6083,-1.6083,-1.6083,-1.6083,-1.6083,-1.6083,-1.6083,-1.6083,-1.6083,-1.6083,-1.6083,-1.6083,-1.5784,-1.5578,-1.5578,-1.5081,-1.4582,-1.3983,-1.379,-1.349,-1.309,-1.289,-1.289,-1.289,-1.289,-1.289,-1.289,-1.289,-1.289,-1.289,-1.289,-1.289,-1.289,-1.289,-1.289,-1.279,-1.1889,-1.1383,-1.1282,-1.038,-0.9782,-0.9681,-0.9681,-0.9681,-0.9681,-0.9681,-0.9681,-0.9681,-0.9681,-0.9681,-0.9681,-0.9681,-0.9681,-0.948,-0.8672,-0.8169,-0.7864,-0.7465,-0.6763,-0.6463,-0.6463,-0.6463,-0.6463,-0.6463,-0.6463,-0.6463,-0.6463,-0.6461,-2.9389,-2.9288,-2.8779,-2.8586,-2.8473,-2.8042,-2.7614,-2.7335,-2.6865,-2.6512,-2.6239,-2.6207,-2.6153,-2.6196,-2.6153,-2.6196,-2.6099,-2.5766,-2.5593,-2.5496,-2.5074,-2.4587,-2.4119,-2.361,-2.3033,-2.2453,-2.2416,-2.2416,-2.2444,-2.2453,-2.2453,-2.2327,-2.1962,-2.1569,-2.1124,-2.0633,-2.0209,-1.9905,-1.9727,-1.9439,-1.8963,-1.8323,-1.7807,-1.7312,-1.6796,-1.6368,-1.6117,-1.6096,-1.6103,-1.6096,-1.6083,-1.6083,-1.6083,-1.6083,-1.6083,-1.6083,-1.6083,-1.6083,-1.6083,-1.6083,-1.5983,-1.5983,-1.5578,-1.5081,-1.4476,-1.3983,-1.359,-1.299,-1.289,-1.289,-1.289,-1.289,-1.289,-1.289,-1.289,-1.289,-1.289,-1.289,-1.289,-1.289,-1.289,-1.289,-1.269,-1.1984,-1.1282,-1.1082,-1.0384,-0.9681,-0.9681,-0.9681,-0.9681,-0.9681,-0.9681,-0.9681,-0.9681,-0.9681,-0.9681,-0.9681,-0.9681,-0.9681,-0.948,-0.8873,-0.827,-0.7965,-0.7163,-0.6561,-0.6463,-0.6463,-0.6463,-0.6463,-0.6463,-0.6463,-0.6463,-0.6463,-0.636,-2.9909,-2.9909,-2.9389,-2.9186,-2.9084,-2.8586,-2.8122,-2.7625,-2.7278,-2.6844,-2.6455,-2.6304,-2.6229,-2.6239,-2.6229,-2.6239,-2.6218,-2.6067,-2.6013,-2.5882,-2.5634,-2.5349,-2.496,-2.4264,-2.3572,-2.2893,-2.2812,-2.2812,-2.2803,-2.2812,-2.2822,-2.2812,-2.2613,-2.235,-2.1812,-2.1318,-2.0857,-2.0384,-1.9995,-1.9581,-1.8963,-1.8462,-1.796,-1.745,-1.683,-1.6469,-1.6388,-1.6293,-1.6239,-1.6239,-1.6137,-1.6083,-1.6083,-1.6083,-1.6083,-1.6083,-1.6083,-1.6083,-1.6083,-1.6083,-1.6083,-1.6083,-1.5877,-1.5379,-1.4676,-1.4377,-1.3784,-1.3084,-1.289,-1.289,-1.289,-1.289,-1.289,-1.289,-1.289,-1.289,-1.289,-1.289,-1.289,-1.289,-1.289,-1.279,-1.2384,-1.1683,-1.1182,-1.0781,-1.0183,-0.9681,-0.9681,-0.9685,-0.9681,-0.9681,-0.9681,-0.9697,-0.9702,-0.9706,-0.9697,-0.9689,-0.9681,-0.9681,-0.948,-0.8873,-0.837,-0.7666,-0.6964,-0.6662,-0.6561,-0.6463,-0.6463,-0.6463,-0.6463,-0.6463,-0.6463,-0.6461,-0.636,-3.0214,-3.0112,-2.9808,-2.9694,-2.9593,-2.9096,-2.8575,-2.8042,-2.7704,-2.7232,-2.6782,-2.6573,-2.6498,-2.6498,-2.6498,-2.6498,-2.6498,-2.6498,-2.6498,-2.6444,-2.6142,-2.5801,-2.5408,-2.4497,-2.3778,-2.3083,-2.3011,-2.3011,-2.3011,-2.3011,-2.3011,-2.3011,-2.3011,-2.2746,-2.2314,-2.1816,-2.1232,-2.079,-2.0295,-1.9782,-1.9466,-1.8952,-1.8446,-1.7828,-1.7305,-1.69,-1.668,-1.6551,-1.6449,-1.6374,-1.6246,-1.6171,-1.6164,-1.6117,-1.6083,-1.6083,-1.6083,-1.6083,-1.6083,-1.6083,-1.6083,-1.6083,-1.6083,-1.5678,-1.4775,-1.4476,-1.3978,-1.309,-1.289,-1.289,-1.289,-1.289,-1.289,-1.289,-1.289,-1.289,-1.289,-1.289,-1.289,-1.289,-1.289,-1.2584,-1.2184,-1.1583,-1.1082,-1.0585,-1.0083,-0.9681,-0.9689,-0.9714,-0.9722,-0.9746,-0.9787,-0.9779,-0.9742,-0.973,-0.9718,-0.9702,-0.9681,-0.9681,-0.9581,-0.8773,-0.8065,-0.7364,-0.6662,-0.6561,-0.6463,-0.6463,-0.6463,-0.6463,-0.6463,-0.6463,-0.6463,-0.6463,-0.636,-3.0214,-3.0214,-3.0214,-3.0214,-3.0112,-2.9593,-2.9084,-2.8586,-2.8053,-2.7531,-2.702,-2.6783,-2.6805,-2.6826,-2.6772,-2.6772,-2.6826,-2.6885,-2.6772,-2.6778,-2.6408,-2.6025,-2.5482,-2.4588,-2.3812,-2.3298,-2.3096,-2.3077,-2.3115,-2.3115,-2.3049,-2.3096,-2.3115,-2.295,-2.2608,-2.2021,-2.1586,-2.1285,-2.0696,-2.0384,-2.0175,-1.967,-1.9149,-1.8507,-1.7984,-1.7461,-1.7015,-1.6809,-1.6673,-1.653,-1.6381,-1.632,-1.6293,-1.6178,-1.611,-1.611,-1.609,-1.6083,-1.6083,-1.6083,-1.6083,-1.6083,-1.6083,-1.5678,-1.4676,-1.4476,-1.4077,-1.309,-1.289,-1.289,-1.289,-1.289,-1.2895,-1.2901,-1.2901,-1.289,-1.289,-1.289,-1.289,-1.289,-1.289,-1.269,-1.2089,-1.1593,-1.1105,-1.0507,-1.0016,-0.9835,-0.9742,-0.9787,-0.9816,-0.9844,-0.9873,-0.9865,-0.9828,-0.9775,-0.9763,-0.9738,-0.9706,-0.9681,-0.9581,-0.8672,-0.7767,-0.7062,-0.6662,-0.6561,-0.6463,-0.6463,-0.6463,-0.6463,-0.6463,-0.6463,-0.6463,-0.6463,-0.6158,-3.0214,-3.0214,-3.0214,-3.0214,-3.0214,-3.0011,-2.9401,-2.8688,-2.8484,-2.7769,-2.7052,-2.6847,-2.6847,-2.6847,-2.6847,-2.6847,-2.6847,-2.6847,-2.6847,-2.6939,-2.6842,-2.6344,-2.5753,-2.5134,-2.4592,-2.407,-2.3632,-2.3464,-2.3474,-2.3436,-2.3446,-2.3474,-2.3436,-2.3381,-2.324,-2.2715,-2.2235,-2.1769,-2.1258,-2.0737,-2.0216,-1.9798,-1.9172,-1.8641,-1.8125,-1.7601,-1.7083,-1.6944,-1.6788,-1.6544,-1.649,-1.6463,-1.6456,-1.6327,-1.6246,-1.6239,-1.6151,-1.609,-1.609,-1.6096,-1.609,-1.6083,-1.611,-1.5678,-1.4576,-1.4482,-1.3983,-1.319,-1.289,-1.2895,-1.2895,-1.2901,-1.2928,-1.2993,-1.296,-1.2912,-1.2906,-1.289,-1.289,-1.289,-1.2901,-1.2405,-1.1818,-1.1359,-1.0996,-1.0295,-0.9926,-0.9865,-0.9857,-0.9881,-0.9914,-0.9918,-0.9934,-0.993,-0.9906,-0.9849,-0.9808,-0.9783,-0.9738,-0.9681,-0.9275,-0.8672,-0.7767,-0.6763,-0.6662,-0.6463,-0.6463,-0.6463,-0.6463,-0.6463,-0.6463,-0.6463,-0.6463,-0.6463,-0.5957,-3.0214,-3.0214,-3.0214,-3.0214,-3.0214,-3.0214,-2.9604,-2.8688,-2.8586,-2.7974,-2.7052,-2.6847,-2.6847,-2.6847,-2.6847,-2.6847,-2.6847,-2.6847,-2.6847,-2.6847,-2.6837,-2.6546,-2.5972,-2.5563,-2.4986,-2.4461,-2.3841,-2.3625,-2.3625,-2.3635,-2.3635,-2.3616,-2.3635,-2.3635,-2.3522,-2.3014,-2.2495,-2.1977,-2.1466,-2.0945,-2.032,-2.0007,-1.959,-1.8962,-1.8432,-1.7811,-1.7188,-1.6978,-1.689,-1.6741,-1.6659,-1.6619,-1.6605,-1.6476,-1.6402,-1.6395,-1.6313,-1.6266,-1.6266,-1.6266,-1.6266,-1.6172,-1.6065,-1.5561,-1.4861,-1.4446,-1.384,-1.3143,-1.3037,-1.3037,-1.3037,-1.3037,-1.3069,-1.3118,-1.3075,-1.3037,-1.3037,-1.3042,-1.3037,-1.2935,-1.2834,-1.2424,-1.1512,-1.1269,-1.0786,-1.0086,-0.9906,-0.993,-0.9839,-0.9979,-1.0008,-1.0008,-1.0028,-1.004,-0.9996,-0.993,-0.9828,-0.98,-0.9439,-0.9484,-0.8974,-0.8471,-0.7666,-0.6864,-0.6662,-0.6463,-0.6463,-0.6463,-0.6463,-0.6463,-0.6463,-0.6463,-0.6463,-0.6463,-0.5957,-3.0214,-3.0214,-3.0214,-3.0214,-3.0214,-3.0112,-2.9503,-2.8688,-2.8484,-2.7871,-2.7052,-2.6847,-2.6847,-2.6847,-2.6847,-2.6847,-2.6847,-2.6847,-2.6847,-2.6847,-2.6847,-2.661,-2.62,-2.5584,-2.5089,-2.4574,-2.3945,-2.3635,-2.3635,-2.3635,-2.3635,-2.3635,-2.3635,-2.3635,-2.3531,-2.3117,-2.2599,-2.2184,-2.1665,-2.1154,-2.0529,-2.032,-1.9903,-1.9388,-1.8641,-1.7915,-1.7293,-1.6978,-1.6958,-1.6971,-1.6842,-1.6781,-1.6754,-1.6632,-1.6558,-1.653,-1.6503,-1.6483,-1.6503,-1.6476,-1.6497,-1.6381,-1.5986,-1.5507,-1.4957,-1.4428,-1.3814,-1.3194,-1.3238,-1.3205,-1.3211,-1.3232,-1.3249,-1.3259,-1.3259,-1.3276,-1.327,-1.3254,-1.3238,-1.3135,-1.2719,-1.2209,-1.17,-1.109,-1.0587,-1.0174,-1.0,-1.0036,-1.0053,-1.0073,-1.0094,-1.0094,-1.0126,-1.0167,-1.0094,-1.0008,-0.9889,-0.9804,-0.9326,-0.8978,-0.8471,-0.7965,-0.7465,-0.6964,-0.6662,-0.6463,-0.6463,-0.6463,-0.6463,-0.6463,-0.6463,-0.6463,-0.6463,-0.6463,-0.6158,-3.0214,-3.0214,-3.0214,-3.0214,-3.0112,-2.9694,-2.9186,-2.8586,-2.8167,-2.7565,-2.7052,-2.6847,-2.6847,-2.6847,-2.6847,-2.6847,-2.6847,-2.6847,-2.6847,-2.6847,-2.6847,-2.6847,-2.654,-2.581,-2.5295,-2.4883,-2.4048,-2.3635,-2.3635,-2.3635,-2.3635,-2.3635,-2.3635,-2.3635,-2.3531,-2.3428,-2.3117,-2.2599,-2.208,-2.1457,-2.0945,-2.0529,-2.0007,-1.9493,-1.8544,-1.7706,-1.7188,-1.6978,-1.6978,-1.6971,-1.6951,-1.691,-1.6883,-1.6781,-1.6707,-1.668,-1.6592,-1.6537,-1.653,-1.6544,-1.653,-1.6448,-1.5949,-1.5507,-1.4886,-1.4288,-1.3763,-1.334,-1.3238,-1.3265,-1.3276,-1.3336,-1.3374,-1.3395,-1.345,-1.3504,-1.3493,-1.3357,-1.3276,-1.3157,-1.2745,-1.222,-1.1709,-1.1168,-1.067,-1.0161,-1.0094,-1.0147,-1.0159,-1.0163,-1.0159,-1.0155,-1.0171,-1.0196,-1.0155,-1.0061,-0.9942,-0.9648,-0.917,-0.8723,-0.8312,-0.7591,-0.7095,-0.6783,-0.6561,-0.6463,-0.6463,-0.6463,-0.6463,-0.6463,-0.6463,-0.6463,-0.6463,-0.6463,-0.6158,-3.0214,-3.0214,-3.0214,-3.0214,-3.0112,-2.9593,-2.9084,-2.8586,-2.8065,-2.7462,-2.695,-2.6847,-2.6847,-2.6847,-2.6847,-2.6847,-2.6847,-2.6847,-2.6847,-2.6847,-2.6847,-2.6847,-2.6745,-2.6118,-2.5604,-2.5192,-2.4471,-2.3945,-2.3635,-2.3635,-2.3635,-2.3635,-2.3635,-2.3635,-2.3635,-2.3635,-2.3324,-2.2806,-2.2288,-2.1778,-2.1154,-2.0633,-2.0007,-1.9485,-1.8649,-1.7915,-1.7496,-1.7083,-1.6978,-1.6978,-1.6978,-1.6978,-1.6971,-1.6904,-1.6863,-1.6836,-1.6795,-1.6734,-1.6734,-1.6734,-1.6748,-1.6734,-1.6009,-1.549,-1.4971,-1.4348,-1.3724,-1.3516,-1.3412,-1.3412,-1.3412,-1.3455,-1.3504,-1.3515,-1.3564,-1.3602,-1.358,-1.3482,-1.3406,-1.3203,-1.2698,-1.2176,-1.1668,-1.1158,-1.0651,-1.0138,-1.0143,-1.0187,-1.0192,-1.0192,-1.02,-1.02,-1.0204,-1.0204,-1.0183,-1.0106,-0.9991,-0.9609,-0.9049,-0.872,-0.8311,-0.7569,-0.6834,-0.6611,-0.6485,-0.6463,-0.6463,-0.6463,-0.6472,-0.6466,-0.6466,-0.6463,-0.6463,-0.6262,-0.5858,-3.0214,-3.0214,-3.0214,-3.0112,-3.0011,-2.9491,-2.8982,-2.8382,-2.786,-2.736,-2.695,-2.6847,-2.6847,-2.6847,-2.6847,-2.6847,-2.6847,-2.6847,-2.6847,-2.6847,-2.6847,-2.6847,-2.6745,-2.6437,-2.5913,-2.5295,-2.4677,-2.4151,-2.3738,-2.3635,-2.3635,-2.3635,-2.3635,-2.3635,-2.3635,-2.3531,-2.3428,-2.3014,-2.2288,-2.1882,-2.1362,-2.0737,-2.0007,-1.9485,-1.8858,-1.823,-1.7706,-1.7293,-1.6978,-1.6978,-1.6978,-1.6978,-1.6978,-1.6978,-1.6978,-1.6971,-1.6944,-1.6931,-1.6917,-1.6944,-1.6951,-1.6978,-1.5914,-1.5376,-1.5054,-1.4306,-1.3774,-1.3575,-1.3569,-1.3569,-1.3602,-1.3586,-1.3591,-1.3597,-1.3602,-1.3607,-1.3607,-1.3607,-1.358,-1.3475,-1.2701,-1.1949,-1.1547,-1.1033,-1.0521,-1.0216,-1.0216,-1.0216,-1.0216,-1.0216,-1.0216,-1.0216,-1.0216,-1.0175,-1.0151,-1.0033,-0.992,-0.9453,-0.8903,-0.849,-0.8073,-0.7426,-0.6777,-0.6639,-0.651,-0.6502,-0.6504,-0.6523,-0.6518,-0.6488,-0.6482,-0.6496,-0.6283,-0.6065,-0.5455,-3.0214,-3.0214,-3.0214,-2.9909,-2.9491,-2.8994,-2.8473,-2.786,-2.736,-2.7052,-2.695,-2.6847,-2.6847,-2.6847,-2.6847,-2.6847,-2.6847,-2.6847,-2.6847,-2.6847,-2.6847,-2.6847,-2.6847,-2.6745,-2.6232,-2.5398,-2.478,-2.4254,-2.3738,-2.3635,-2.3635,-2.3635,-2.3635,-2.3635,-2.3635,-2.3635,-2.3531,-2.3221,-2.2495,-2.1873,-2.1561,-2.0841,-2.0111,-1.959,-1.8955,-1.8439,-1.7811,-1.7293,-1.6978,-1.6978,-1.6978,-1.6978,-1.6978,-1.6978,-1.6978,-1.6978,-1.6978,-1.6978,-1.6978,-1.6978,-1.6978,-1.6768,-1.592,-1.5283,-1.4967,-1.4341,-1.3708,-1.3607,-1.3607,-1.3607,-1.3607,-1.3607,-1.3607,-1.3607,-1.3607,-1.3607,-1.3607,-1.3607,-1.3607,-1.3502,-1.2651,-1.1911,-1.1487,-1.1064,-1.0428,-1.0216,-1.0216,-1.0216,-1.0216,-1.0216,-1.0216,-1.0216,-1.0216,-1.0163,-1.0106,-0.9997,-0.9848,-0.9284,-0.8739,-0.8116,-0.7695,-0.7055,-0.6716,-0.6611,-0.6597,-0.6586,-0.6591,-0.6589,-0.6583,-0.6567,-0.6553,-0.6537,-0.6213,-0.5888,-0.5358,-3.0214,-3.0214,-3.0214,-2.9909,-2.9389,-2.8779,-2.8269,-2.7758,-2.7155,-2.6847,-2.6847,-2.6847,-2.6847,-2.6847,-2.6847,-2.6847,-2.6847,-2.6847,-2.6847,-2.6847,-2.6847,-2.6847,-2.6847,-2.6847,-2.6221,-2.5501,-2.4986,-2.4461,-2.3635,-2.3635,-2.3635,-2.3635,-2.3635,-2.3635,-2.3635,-2.3635,-2.3635,-2.3324,-2.2599,-2.1977,-2.1873,-2.0937,-2.0216,-1.9798,-1.9059,-1.8536,-1.8125,-1.7398,-1.6978,-1.6978,-1.6978,-1.6978,-1.6978,-1.6978,-1.6978,-1.6978,-1.6978,-1.6978,-1.6978,-1.6978,-1.6873,-1.6453,-1.571,-1.5184,-1.4762,-1.413,-1.3607,-1.3607,-1.3607,-1.3607,-1.3607,-1.3607,-1.3607,-1.3607,-1.3607,-1.3607,-1.3607,-1.3607,-1.3607,-1.3496,-1.2545,-1.1911,-1.1699,-1.117,-1.0428,-1.0216,-1.0216,-1.0216,-1.0216,-1.0216,-1.0216,-1.0216,-1.0216,-1.0192,-1.0037,-0.992,-0.9698,-0.9135,-0.8591,-0.7964,-0.7552,-0.7025,-0.6827,-0.673,-0.6711,-0.6665,-0.6635,-0.6619,-0.663,-0.664,-0.6616,-0.6486,-0.6042,-0.5609,-0.5176,-3.0214,-3.0214,-3.0214,-2.9909,-2.9389,-2.879,-2.828,-2.7758,-2.7155,-2.6847,-2.6847,-2.6847,-2.6847,-2.6847,-2.6847,-2.6847,-2.6847,-2.6847,-2.6847,-2.6847,-2.6847,-2.6847,-2.6847,-2.6745,-2.6334,-2.5398,-2.5295,-2.4677,-2.3738,-2.3635,-2.3635,-2.3635,-2.3635,-2.3635,-2.3635,-2.3635,-2.3635,-2.3324,-2.2703,-2.2184,-2.1665,-2.0841,-2.032,-2.0216,-1.9276,-1.8746,-1.8432,-1.7706,-1.7188,-1.7083,-1.6978,-1.6978,-1.6978,-1.6978,-1.6978,-1.6978,-1.6978,-1.6978,-1.6978,-1.6978,-1.6768,-1.6236,-1.5599,-1.5078,-1.4452,-1.403,-1.3607,-1.3607,-1.3607,-1.3607,-1.3607,-1.3607,-1.3607,-1.3607,-1.3607,-1.3607,-1.3607,-1.3607,-1.3607,-1.318,-1.244,-1.2017,-1.1699,-1.1064,-1.0322,-1.0216,-1.0216,-1.0216,-1.0216,-1.0216,-1.0216,-1.0216,-1.0216,-1.0216,-0.9988,-0.9662,-0.9443,-0.9002,-0.8355,-0.7722,-0.742,-0.7008,-0.6907,-0.679,-0.676,-0.6711,-0.6681,-0.667,-0.67,-0.6706,-0.6673,-0.6431,-0.5982,-0.5428,-0.4886,-3.0214,-3.0214,-3.0214,-2.9909,-2.9389,-2.888,-2.828,-2.7758,-2.7155,-2.6847,-2.6847,-2.6847,-2.6847,-2.6847,-2.6847,-2.6847,-2.6847,-2.6847,-2.6847,-2.6847,-2.6847,-2.6847,-2.6847,-2.6847,-2.6232,-2.5501,-2.5295,-2.4677,-2.3841,-2.3635,-2.3635,-2.3635,-2.3635,-2.3635,-2.3635,-2.3635,-2.3635,-2.3531,-2.3014,-2.2184,-2.1362,-2.0633,-2.032,-2.0111,-1.9694,-1.9067,-1.8641,-1.7915,-1.7496,-1.6978,-1.6978,-1.6978,-1.6978,-1.6978,-1.6978,-1.6978,-1.6978,-1.6978,-1.6978,-1.6978,-1.6663,-1.6131,-1.5605,-1.5078,-1.4341,-1.3924,-1.3607,-1.3607,-1.3607,-1.3607,-1.3607,-1.3607,-1.3607,-1.3607,-1.3607,-1.3607,-1.3607,-1.3607,-1.3607,-1.318,-1.244,-1.2017,-1.1805,-1.0958,-1.0216,-1.0216,-1.0216,-1.0216,-1.0216,-1.0216,-1.0216,-1.0216,-1.011,-1.011,-0.9792,-0.9474,-0.9049,-0.873,-0.8093,-0.7453,-0.7243,-0.6924,-0.6924,-0.6801,-0.6777,-0.6771,-0.6758,-0.676,-0.6785,-0.6766,-0.6722,-0.6369,-0.5915,-0.5355,-0.4694,-3.0214,-3.0214,-3.0214,-2.9897,-2.9389,-2.9084,-2.8575,-2.786,-2.7553,-2.7257,-2.695,-2.6847,-2.6847,-2.6847,-2.6847,-2.6847,-2.6847,-2.6847,-2.6847,-2.6847,-2.6847,-2.6847,-2.6847,-2.6847,-2.6334,-2.5501,-2.5192,-2.4677,-2.3945,-2.3635,-2.3635,-2.3635,-2.3635,-2.3635,-2.3635,-2.3635,-2.3635,-2.3324,-2.2806,-2.1977,-2.1258,-2.0633,-2.032,-2.032,-1.9806,-1.9172,-1.8641,-1.8125,-1.7601,-1.7083,-1.6978,-1.6978,-1.6978,-1.6978,-1.6978,-1.6978,-1.6978,-1.6978,-1.6978,-1.6978,-1.6551,-1.5815,-1.5388,-1.4868,-1.413,-1.3813,-1.3607,-1.3607,-1.3607,-1.3607,-1.3607,-1.3607,-1.3607,-1.3607,-1.3607,-1.3607,-1.3607,-1.3607,-1.3496,-1.2968,-1.244,-1.2017,-1.1593,-1.0852,-1.0216,-1.0216,-1.0216,-1.0216,-1.0216,-1.0216,-1.0216,-1.0216,-1.011,-1.011,-0.958,-0.9155,-0.8624,-0.8199,-0.7562,-0.7137,-0.6924,-0.6818,-0.6818,-0.6818,-0.6804,-0.6807,-0.6818,-0.6815,-0.6804,-0.6788,-0.6769,-0.629,-0.5715,-0.5248,-0.4591,-3.0214,-3.0214,-3.0214,-3.0011,-2.9593,-2.9491,-2.888,-2.8076,-2.786,-2.7451,-2.7052,-2.6847,-2.6847,-2.6847,-2.6847,-2.6847,-2.6847,-2.6847,-2.6847,-2.6847,-2.6847,-2.6847,-2.6847,-2.6847,-2.6334,-2.5295,-2.5295,-2.4677,-2.3945,-2.3635,-2.3635,-2.3635,-2.3635,-2.3635,-2.3635,-2.3635,-2.3635,-2.3531,-2.2599,-2.1882,-2.1362,-2.0633,-2.0424,-2.0216,-1.9903,-1.9381,-1.8641,-1.8222,-1.7811,-1.7083,-1.6978,-1.6978,-1.6978,-1.6978,-1.6978,-1.6978,-1.6978,-1.6978,-1.6978,-1.6873,-1.6341,-1.5605,-1.4862,-1.4446,-1.3813,-1.3607,-1.3607,-1.3607,-1.3607,-1.3607,-1.3607,-1.3607,-1.3607,-1.3607,-1.3607,-1.3607,-1.3607,-1.3502,-1.3391,-1.2863,-1.2334,-1.1805,-1.1276,-1.064,-1.0322,-1.0216,-1.0216,-1.0216,-1.0216,-1.0216,-1.0216,-1.0216,-1.011,-1.0004,-0.9474,-0.8943,-0.8306,-0.7768,-0.7131,-0.6815,-0.6812,-0.6815,-0.6818,-0.6818,-0.6818,-0.6818,-0.6818,-0.6818,-0.6818,-0.6799,-0.6663,-0.6081,-0.5505,-0.4935,-0.4383,-3.0214,-3.0214,-3.0214,-3.0112,-3.0112,-2.9593,-2.9084,-2.8484,-2.8065,-2.7451,-2.695,-2.6847,-2.6847,-2.6847,-2.6847,-2.6847,-2.6847,-2.6847,-2.6847,-2.6847,-2.6847,-2.6847,-2.6847,-2.6745,-2.6324,-2.5501,-2.5295,-2.4677,-2.3841,-2.3635,-2.3635,-2.3635,-2.3635,-2.3635,-2.3635,-2.3635,-2.3635,-2.3428,-2.2495,-2.1977,-2.1561,-2.0945,-2.032,-2.032,-2.0216,-1.9694,-1.8641,-1.8536,-1.802,-1.7083,-1.6978,-1.6978,-1.6978,-1.6978,-1.6978,-1.6978,-1.6978,-1.6978,-1.6978,-1.6873,-1.6341,-1.5394,-1.4446,-1.3919,-1.3602,-1.3607,-1.3607,-1.3607,-1.3607,-1.3607,-1.3607,-1.3607,-1.3607,-1.3607,-1.3607,-1.3607,-1.3607,-1.3502,-1.3285,-1.2757,-1.2228,-1.1487,-1.1064,-1.0428,-1.0216,-1.0216,-1.0216,-1.0216,-1.0216,-1.0216,-1.0216,-1.0216,-1.011,-0.9898,-0.9367,-0.883,-0.8064,-0.7532,-0.7108,-0.6905,-0.6804,-0.6809,-0.6818,-0.6818,-0.6818,-0.6818,-0.6812,-0.6799,-0.679,-0.6796,-0.6447,-0.5847,-0.5061,-0.4292,-0.3859,-3.0214,-3.0214,-3.0214,-3.0214,-3.0214,-3.0011,-2.9593,-2.9084,-2.8484,-2.7769,-2.6847,-2.6847,-2.6847,-2.6847,-2.6847,-2.6847,-2.6847,-2.6847,-2.6847,-2.6847,-2.6847,-2.6847,-2.6847,-2.6745,-2.6334,-2.5501,-2.5295,-2.4677,-2.3738,-2.3635,-2.3635,-2.3635,-2.3635,-2.3635,-2.3635,-2.3635,-2.3635,-2.3324,-2.2599,-2.1977,-2.1769,-2.0945,-2.032,-2.032,-2.032,-1.9694,-1.885,-1.8641,-1.7915,-1.7293,-1.7083,-1.6978,-1.6978,-1.6978,-1.6978,-1.6978,-1.6978,-1.6978,-1.6978,-1.6873,-1.6446,-1.5394,-1.4341,-1.3607,-1.3607,-1.3607,-1.3607,-1.3607,-1.3607,-1.3607,-1.3607,-1.3607,-1.3607,-1.3607,-1.3607,-1.3607,-1.3502,-1.3391,-1.2968,-1.244,-1.1805,-1.117,-1.0746,-1.0322,-1.0216,-1.0216,-1.0216,-1.0216,-1.0216,-1.0216,-1.0216,-1.011,-1.0004,-0.9568,-0.9035,-0.8375,-0.7821,-0.7393,-0.6971,-0.6866,-0.6766,-0.6809,-0.6815,-0.6818,-0.6801,-0.6785,-0.6771,-0.6763,-0.6758,-0.6752,-0.6285,-0.5597,-0.4718,-0.3758,-0.3441,-3.0214,-3.0214,-3.0214,-3.0214,-3.0214,-3.0214,-2.9909,-2.9389,-2.879,-2.7974,-2.695,-2.6847,-2.6847,-2.6847,-2.6847,-2.6847,-2.6847,-2.6847,-2.6847,-2.6847,-2.6847,-2.6847,-2.6847,-2.6745,-2.6324,-2.5501,-2.5192,-2.4677,-2.3635,-2.3635,-2.3635,-2.3635,-2.3635,-2.3635,-2.3635,-2.3635,-2.3635,-2.3324,-2.2806,-2.208,-2.1873,-2.1154,-2.0424,-2.032,-2.032,-1.9694,-1.8955,-1.8536,-1.8013,-1.7391,-1.6978,-1.6978,-1.6978,-1.6978,-1.6978,-1.6978,-1.6978,-1.6978,-1.6978,-1.6558,-1.6131,-1.5289,-1.4235,-1.3708,-1.3607,-1.3607,-1.3607,-1.3607,-1.3607,-1.3607,-1.3607,-1.3607,-1.3607,-1.3607,-1.3607,-1.3607,-1.3391,-1.3285,-1.2651,-1.2122,-1.1487,-1.0958,-1.0534,-1.0216,-1.0216,-1.0216,-1.0216,-1.0216,-1.0216,-1.0216,-1.0216,-1.0004,-0.9792,-0.9246,-0.8593,-0.8028,-0.757,-0.7118,-0.6805,-0.67,-0.6714,-0.6758,-0.6769,-0.6739,-0.6728,-0.6733,-0.6722,-0.6703,-0.6698,-0.6698,-0.6019,-0.5243,-0.449,-0.3642,-0.3437,-3.0214,-3.0214,-3.0202,-3.0202,-3.0189,-3.0214,-2.9909,-2.9389,-2.8892,-2.7974,-2.695,-2.6847,-2.6847,-2.6847,-2.6847,-2.6847,-2.6939,-2.6826,-2.6907,-2.6885,-2.6875,-2.6918,-2.6826,-2.6713,-2.6324,-2.5501,-2.5192,-2.4677,-2.3635,-2.3635,-2.3635,-2.3635,-2.3635,-2.3635,-2.3635,-2.3635,-2.3635,-2.3531,-2.3014,-2.2495,-2.1977,-2.1362,-2.0841,-2.0424,-2.032,-1.9694,-1.885,-1.8634,-1.8013,-1.7188,-1.6978,-1.6978,-1.6978,-1.6978,-1.6978,-1.6978,-1.6978,-1.6978,-1.6978,-1.592,-1.55,-1.5184,-1.4235,-1.3713,-1.3607,-1.3607,-1.3607,-1.3607,-1.3607,-1.3607,-1.3607,-1.3607,-1.3607,-1.3607,-1.3607,-1.3496,-1.3285,-1.2968,-1.2334,-1.1699,-1.1276,-1.0852,-1.0534,-1.0216,-1.0216,-1.0216,-1.0216,-1.0216,-1.0216,-1.0216,-1.011,-0.978,-0.9458,-0.8893,-0.8236,-0.778,-0.7321,-0.6867,-0.6638,-0.6638,-0.6646,-0.6673,-0.667,-0.6654,-0.6665,-0.6681,-0.666,-0.6635,-0.6518,-0.6296,-0.5554,-0.4796,-0.4155,-0.3635,-0.3332,-3.0214,-3.0202,-3.002,-2.9936,-2.996,-3.0141,-3.0112,-2.9796,-2.8994,-2.7974,-2.7052,-2.6847,-2.6847,-2.6847,-2.6826,-2.6815,-2.6907,-2.6735,-2.6702,-2.6702,-2.6713,-2.6702,-2.6745,-2.6649,-2.6313,-2.5604,-2.5192,-2.4677,-2.3635,-2.3635,-2.3635,-2.3635,-2.3635,-2.3635,-2.3635,-2.3635,-2.3635,-2.3531,-2.3117,-2.2495,-2.1977,-2.1457,-2.0945,-2.032,-2.032,-1.9694,-1.8746,-1.8641,-1.8013,-1.7188,-1.6978,-1.6978,-1.6978,-1.6978,-1.6978,-1.6978,-1.6978,-1.6978,-1.6768,-1.6026,-1.5388,-1.4973,-1.4341,-1.3602,-1.3607,-1.3607,-1.3607,-1.3607,-1.3607,-1.3607,-1.3607,-1.3607,-1.3607,-1.3607,-1.3502,-1.3285,-1.3074,-1.2545,-1.1911,-1.1382,-1.0852,-1.064,-1.0322,-1.0216,-1.0216,-1.0204,-1.0204,-1.0212,-1.0216,-1.011,-1.0106,-0.9553,-0.9115,-0.8545,-0.7983,-0.7512,-0.7152,-0.6697,-0.6578,-0.6581,-0.6589,-0.66,-0.6616,-0.6619,-0.6624,-0.6627,-0.6597,-0.6462,-0.6328,-0.5895,-0.5286,-0.4573,-0.3846,-0.3534,-0.3332,-3.0069,-3.0033,-2.9779,-2.9658,-2.9695,-2.9864,-2.9735,-2.9332,-2.8626,-2.7717,-2.6793,-2.6692,-2.659,-2.659,-2.6702,-2.6702,-2.6681,-2.6552,-2.6465,-2.6465,-2.6465,-2.6519,-2.6627,-2.6644,-2.6127,-2.5563,-2.5182,-2.4667,-2.3635,-2.3635,-2.3635,-2.3635,-2.3635,-2.3635,-2.3635,-2.3635,-2.3635,-2.3531,-2.3221,-2.2806,-2.2184,-2.157,-2.1154,-2.0529,-2.0111,-1.979,-1.8955,-1.8432,-1.8125,-1.7293,-1.6978,-1.6978,-1.6978,-1.6978,-1.6978,-1.6978,-1.6978,-1.6978,-1.6768,-1.592,-1.5388,-1.5178,-1.4235,-1.3708,-1.3607,-1.3607,-1.3607,-1.3607,-1.3607,-1.3607,-1.3607,-1.3607,-1.3607,-1.3607,-1.3502,-1.3285,-1.2863,-1.2334,-1.1699,-1.117,-1.064,-1.0322,-1.0216,-1.0216,-1.0216,-1.0204,-1.0187,-1.0196,-1.0196,-1.0074,-0.996,-0.93,-0.8836,-0.8257,-0.7689,-0.7023,-0.6772,-0.6526,-0.6523,-0.6529,-0.6523,-0.6534,-0.6559,-0.6578,-0.6561,-0.6545,-0.6523,-0.6395,-0.6283,-0.5871,-0.5262,-0.4447,-0.3635,-0.3332,-0.323,-2.9791,-2.9743,-2.9501,-2.9393,-2.9393,-2.9294,-2.88,-2.7832,-2.7844,-2.7258,-2.6261,-2.6293,-2.6325,-2.6282,-2.6261,-2.6293,-2.6282,-2.625,-2.6229,-2.6218,-2.6218,-2.6347,-2.6465,-2.6584,-2.6113,-2.5625,-2.5182,-2.477,-2.3738,-2.3635,-2.3635,-2.3635,-2.3635,-2.3635,-2.3635,-2.3635,-2.3635,-2.3531,-2.3428,-2.291,-2.2193,-2.1873,-2.1258,-2.0633,-2.0216,-1.9686,-1.8955,-1.8536,-1.7915,-1.7398,-1.6978,-1.6978,-1.6978,-1.6978,-1.6978,-1.6978,-1.6978,-1.6978,-1.6768,-1.592,-1.5388,-1.5178,-1.4235,-1.3813,-1.3607,-1.3607,-1.3607,-1.3607,-1.3607,-1.3607,-1.3607,-1.3607,-1.3607,-1.3607,-1.3607,-1.318,-1.2757,-1.2228,-1.1593,-1.1064,-1.0534,-1.0216,-1.0216,-1.0216,-1.02,-1.0167,-1.0143,-1.0126,-1.0118,-1.0089,-0.9763,-0.9124,-0.8549,-0.8063,-0.7401,-0.6761,-0.6628,-0.6496,-0.6485,-0.6485,-0.6477,-0.6477,-0.6502,-0.651,-0.6482,-0.6469,-0.648,-0.6477,-0.6267,-0.5856,-0.5352,-0.4645,-0.3836,-0.3433,-0.323,-2.9682,-2.9489,-2.9236,-2.9127,-2.8993,-2.8533,-2.8066,-2.7787,-2.7821,-2.7225,-2.6229,-2.6229,-2.6185,-2.6229,-2.6229,-2.6218,-2.6153,-2.6078,-2.5992,-2.597,-2.597,-2.6024,-2.6175,-2.6401,-2.6067,-2.5808,-2.5297,-2.4883,-2.4254,-2.3841,-2.3635,-2.3635,-2.3635,-2.3635,-2.3635,-2.3635,-2.3635,-2.3635,-2.3635,-2.3014,-2.2288,-2.208,-2.1362,-2.0737,-2.032,-1.9686,-1.8955,-1.8641,-1.802,-1.7293,-1.7083,-1.6978,-1.6978,-1.6978,-1.6978,-1.6978,-1.6978,-1.6978,-1.6768,-1.592,-1.5283,-1.5072,-1.4235,-1.3708,-1.3607,-1.3607,-1.3607,-1.3607,-1.3607,-1.3607,-1.3607,-1.3607,-1.3607,-1.3607,-1.3496,-1.318,-1.2651,-1.2122,-1.1483,-1.0746,-1.0216,-1.0216,-1.0216,-1.0196,-1.0175,-1.0134,-1.0094,-1.0061,-1.0036,-1.0008,-0.9577,-0.8939,-0.8476,-0.7891,-0.7257,-0.6521,-0.6493,-0.6469,-0.6463,-0.6463,-0.6466,-0.6469,-0.6463,-0.6463,-0.6463,-0.6463,-0.6463,-0.6461,-0.636,-0.6057,-0.5553,-0.4847,-0.4139,-0.3635,-0.323,-2.9393,-2.9224,-2.897,-2.8862,-2.8729,-2.8102,-2.7747,-2.7501,-2.7328,-2.6737,-2.5949,-2.5938,-2.5949,-2.5938,-2.5927,-2.5927,-2.5906,-2.5798,-2.5733,-2.5723,-2.5744,-2.5819,-2.5981,-2.6239,-2.6163,-2.5805,-2.5461,-2.4976,-2.4461,-2.3945,-2.3635,-2.3635,-2.3635,-2.3635,-2.3635,-2.3635,-2.3635,-2.3635,-2.3428,-2.3014,-2.2599,-2.208,-2.1466,-2.0841,-2.0529,-1.979,-1.9059,-1.885,-1.8118,-1.7398,-1.7188,-1.6978,-1.6978,-1.6978,-1.6978,-1.6978,-1.6978,-1.6978,-1.6768,-1.592,-1.5493,-1.4967,-1.4235,-1.3813,-1.3607,-1.3607,-1.3607,-1.3607,-1.3607,-1.3607,-1.3607,-1.3607,-1.3607,-1.3607,-1.3391,-1.3074,-1.2545,-1.2017,-1.1276,-1.0428,-1.0216,-1.0216,-1.0204,-1.0183,-1.0147,-1.0089,-1.0012,-0.9938,-0.9922,-0.991,-0.9281,-0.8554,-0.8191,-0.7826,-0.7104,-0.6493,-0.6477,-0.6463,-0.6463,-0.6463,-0.6463,-0.6463,-0.6463,-0.6463,-0.6463,-0.6463,-0.6463,-0.6463,-0.6461,-0.6158,-0.5856,-0.515,-0.4442,-0.3635,-0.3332,-2.9006,-2.897,-2.8717,-2.8644,-2.8536,-2.7935,-2.7465,-2.7067,-2.6543,-2.6025,-2.555,-2.5539,-2.5572,-2.5626,-2.5626,-2.5615,-2.5626,-2.5593,-2.5583,-2.5529,-2.5572,-2.5669,-2.5895,-2.6121,-2.6189,-2.5886,-2.5451,-2.4976,-2.4358,-2.3945,-2.3635,-2.3635,-2.3635,-2.3635,-2.3635,-2.3635,-2.3635,-2.3635,-2.3531,-2.3221,-2.2806,-2.2288,-2.1778,-2.1154,-2.0633,-2.0007,-1.9485,-1.8962,-1.8327,-1.7811,-1.7286,-1.6978,-1.6978,-1.6978,-1.6978,-1.6978,-1.6978,-1.6873,-1.6663,-1.5815,-1.5394,-1.4868,-1.4235,-1.3813,-1.3607,-1.3607,-1.3607,-1.3607,-1.3607,-1.3607,-1.3607,-1.3607,-1.3607,-1.3607,-1.3496,-1.2968,-1.2228,-1.1699,-1.0958,-1.0322,-1.0216,-1.0208,-1.0163,-1.0138,-1.0073,-1.0024,-0.9959,-0.9861,-0.9714,-0.971,-0.9099,-0.8382,-0.814,-0.7796,-0.6982,-0.6474,-0.6469,-0.6463,-0.6463,-0.6463,-0.6463,-0.6463,-0.6463,-0.6463,-0.6463,-0.6463,-0.6463,-0.6463,-0.6463,-0.636,-0.5957,-0.5553,-0.4845,-0.4038,-0.3534,-2.8898,-2.8717,-2.8644,-2.862,-2.8428,-2.7646,-2.7249,-2.7056,-2.61,-2.5615,-2.5518,-2.5518,-2.5518,-2.5518,-2.5518,-2.5518,-2.5518,-2.5518,-2.5518,-2.5518,-2.5518,-2.5647,-2.5873,-2.6121,-2.6247,-2.6179,-2.5666,-2.477,-2.4048,-2.3738,-2.3635,-2.3635,-2.3635,-2.3635,-2.3635,-2.3635,-2.3635,-2.3635,-2.3531,-2.3324,-2.291,-2.2288,-2.1778,-2.1154,-2.0633,-2.0111,-1.9485,-1.8955,-1.8327,-1.7811,-1.7293,-1.7083,-1.6978,-1.6978,-1.6978,-1.6978,-1.6978,-1.6768,-1.6341,-1.571,-1.5184,-1.4657,-1.4024,-1.3819,-1.3607,-1.3607,-1.3607,-1.3607,-1.3607,-1.3607,-1.3607,-1.3607,-1.3607,-1.3607,-1.3607,-1.2757,-1.2017,-1.1276,-1.064,-1.0428,-1.0216,-1.0179,-1.013,-1.0065,-1.0004,-0.9942,-0.9881,-0.9706,-0.9548,-0.9427,-0.8926,-0.8315,-0.8204,-0.7673,-0.6864,-0.6463,-0.6463,-0.6463,-0.6463,-0.6463,-0.6463,-0.6463,-0.6463,-0.6463,-0.6463,-0.6463,-0.6463,-0.6463,-0.6461,-0.6461,-0.6259,-0.5755,-0.545,-0.4845,-0.4038,-2.8753,-2.8632,-2.862,-2.862,-2.8428,-2.755,-2.7067,-2.6863,-2.6003,-2.5518,-2.5518,-2.5518,-2.5518,-2.5518,-2.5518,-2.5518,-2.5518,-2.5518,-2.5518,-2.5518,-2.5561,-2.5679,-2.5884,-2.6132,-2.6046,-2.6078,-2.5277,-2.4461,-2.3738,-2.3635,-2.3635,-2.3635,-2.3635,-2.3635,-2.3635,-2.3635,-2.3635,-2.3635,-2.3635,-2.3428,-2.3014,-2.2392,-2.1985,-2.1353,-2.0841,-2.0216,-1.9694,-1.9164,-1.8536,-1.802,-1.7398,-1.7083,-1.6978,-1.6978,-1.6978,-1.6978,-1.6978,-1.6768,-1.6131,-1.5605,-1.4973,-1.4446,-1.3924,-1.3607,-1.3607,-1.3607,-1.3607,-1.3607,-1.3607,-1.3607,-1.3607,-1.3607,-1.3607,-1.3607,-1.3496,-1.3074,-1.2017,-1.1064,-1.0534,-1.0322,-1.0192,-1.013,-1.0069,-0.9971,-0.9914,-0.9873,-0.9808,-0.9763,-0.9605,-0.9179,-0.8672,-0.8169,-0.7968,-0.7566,-0.6763,-0.6463,-0.6463,-0.6463,-0.6463,-0.6463,-0.6463,-0.6463,-0.6463,-0.6463,-0.6463,-0.6463,-0.6463,-0.6463,-0.6463,-0.6461,-0.6259,-0.6057,-0.5755,-0.5452,-0.4845,-2.8632,-2.862,-2.862,-2.862,-2.8428,-2.755,-2.7067,-2.6863,-2.6003,-2.5518,-2.5518,-2.5518,-2.5518,-2.5518,-2.5518,-2.5518,-2.5518,-2.5518,-2.5518,-2.5529,-2.5572,-2.5766,-2.5981,-2.6185,-2.6031,-2.5633,-2.4897,-2.4338,-2.3635,-2.3635,-2.3635,-2.3635,-2.3635,-2.3635,-2.3635,-2.3635,-2.3635,-2.3635,-2.3635,-2.3635,-2.3117,-2.2599,-2.2184,-2.1561,-2.0945,-2.0424,-1.9903,-1.9477,-1.885,-1.8118,-1.7601,-1.7188,-1.6978,-1.6978,-1.6978,-1.6978,-1.6768,-1.6453,-1.592,-1.5394,-1.4868,-1.4346,-1.3819,-1.3607,-1.3607,-1.3607,-1.3607,-1.3607,-1.3607,-1.3607,-1.3607,-1.3607,-1.3607,-1.3496,-1.3285,-1.3074,-1.2017,-1.0954,-1.0526,-1.0208,-1.0147,-1.0085,-0.9983,-0.9885,-0.9836,-0.9795,-0.9755,-0.9714,-0.9581,-0.8974,-0.8471,-0.7968,-0.7566,-0.7065,-0.6561,-0.6463,-0.6463,-0.6463,-0.6463,-0.6463,-0.6463,-0.6463,-0.6463,-0.6463,-0.6463,-0.6463,-0.6463,-0.6463,-0.6463,-0.6463,-0.636,-0.6259,-0.6057,-0.5856,-0.5553,-2.862,-2.862,-2.862,-2.862,-2.8428,-2.755,-2.7067,-2.6971,-2.6003,-2.5518,-2.5518,-2.5518,-2.5518,-2.5518,-2.5518,-2.5518,-2.5518,-2.5518,-2.5518,-2.5529,-2.5679,-2.5916,-2.6064,-2.6099,-2.5928,-2.5369,-2.4741,-2.4142,-2.3635,-2.3635,-2.3635,-2.3635,-2.3635,-2.3635,-2.3635,-2.3635,-2.3635,-2.3635,-2.3635,-2.3635,-2.3324,-2.2703,-2.2184,-2.1561,-2.0945,-2.0529,-2.0111,-1.9694,-1.9172,-1.8432,-1.7601,-1.7188,-1.6978,-1.6978,-1.6978,-1.6768,-1.6558,-1.6026,-1.55,-1.4973,-1.4452,-1.403,-1.3607,-1.3607,-1.3607,-1.3607,-1.3607,-1.3607,-1.3607,-1.3607,-1.3607,-1.3607,-1.3607,-1.3285,-1.3074,-1.2545,-1.1805,-1.0936,-1.0289,-1.0143,-1.0085,-0.9996,-0.9885,-0.982,-0.9783,-0.9746,-0.9718,-0.9681,-0.948,-0.8873,-0.827,-0.7767,-0.7267,-0.6864,-0.6463,-0.6463,-0.6463,-0.6463,-0.6463,-0.6463,-0.6463,-0.6463,-0.6463,-0.6463,-0.6463,-0.6463,-0.6463,-0.6463,-0.6463,-0.6463,-0.6463,-0.6461,-0.636,-0.6158,-0.5957]}]]